Wetterdaten: Mittwoch, 29.01.2025
Datum Zeit Temp. I. Temp. A. Feuchte I. Feuchte A. Luftdruck Regen Wind Richtung Richtung Sonnenschein Solar Taupunkt Windchill Windböen
29.01.2025 00:00 21,1 °C 4,7 °C 49 % 89 % 998,8 hPa 0,0 l/m² 9,5 km/h (2 Bft) S-SO 166 ° 0 min 0 W/m² 3,0 °C 2,1 °C 16,1 km/h (3 Bft)
29.01.2025 00:02 21,1 °C 4,7 °C 49 % 89 % 998,9 hPa 0,0 l/m² 10,9 km/h (2 Bft) S-SO 160 ° 0 min 0 W/m² 3,0 °C 1,1 °C 17,7 km/h (3 Bft)
29.01.2025 00:03 21,1 °C 4,7 °C 49 % 89 % 998,9 hPa 0,0 l/m² 11,9 km/h (2 Bft) S-SO 157 ° 0 min 0 W/m² 3,0 °C 0,5 °C 17,7 km/h (3 Bft)
29.01.2025 00:05 21,1 °C 4,7 °C 49 % 89 % 999,0 hPa 0,0 l/m² 9,4 km/h (2 Bft) S-SO 163 ° 0 min 0 W/m² 3,0 °C 2,2 °C 14,5 km/h (3 Bft)
29.01.2025 00:07 21,1 °C 4,7 °C 49 % 89 % 998,9 hPa 0,0 l/m² 10,5 km/h (2 Bft) S-SO 153 ° 0 min 0 W/m² 3,0 °C 1,4 °C 14,5 km/h (3 Bft)
29.01.2025 00:09 21,1 °C 4,7 °C 49 % 89 % 998,9 hPa 0,0 l/m² 12,2 km/h (2 Bft) S-SO 153 ° 0 min 0 W/m² 3,0 °C 0,3 °C 17,7 km/h (3 Bft)
29.01.2025 00:11 21,1 °C 4,7 °C 49 % 89 % 998,9 hPa 0,0 l/m² 11,3 km/h (2 Bft) S-SO 147 ° 0 min 0 W/m² 3,0 °C 0,9 °C 17,7 km/h (3 Bft)
29.01.2025 00:12 21,1 °C 4,7 °C 49 % 88 % 998,8 hPa 0,0 l/m² 11,9 km/h (2 Bft) SO 146 ° 0 min 0 W/m² 2,9 °C 0,5 °C 16,1 km/h (3 Bft)
29.01.2025 00:13 21,1 °C 4,7 °C 49 % 88 % 998,8 hPa 0,0 l/m² 12,6 km/h (3 Bft) S 171 ° 0 min 0 W/m² 2,9 °C 0,0 °C 16,1 km/h (3 Bft)
29.01.2025 00:14 21,1 °C 4,7 °C 49 % 88 % 998,8 hPa 0,0 l/m² 12,2 km/h (2 Bft) S-SO 157 ° 0 min 0 W/m² 2,9 °C 0,3 °C 14,5 km/h (3 Bft)
29.01.2025 00:16 21,1 °C 4,7 °C 49 % 88 % 998,8 hPa 0,0 l/m² 10,5 km/h (2 Bft) S 171 ° 0 min 0 W/m² 2,9 °C 1,4 °C 17,7 km/h (3 Bft)
29.01.2025 00:18 21,1 °C 4,7 °C 49 % 88 % 998,8 hPa 0,0 l/m² 12,1 km/h (2 Bft) S-SO 163 ° 0 min 0 W/m² 2,9 °C 0,3 °C 16,1 km/h (3 Bft)
29.01.2025 00:20 21,1 °C 4,7 °C 49 % 88 % 998,8 hPa 0,0 l/m² 11,4 km/h (2 Bft) S 174 ° 0 min 0 W/m² 2,9 °C 0,8 °C 16,1 km/h (3 Bft)
29.01.2025 00:21 21,1 °C 4,7 °C 49 % 88 % 998,8 hPa 0,0 l/m² 11,0 km/h (2 Bft) S-SO 163 ° 0 min 0 W/m² 2,9 °C 1,1 °C 16,1 km/h (3 Bft)
29.01.2025 00:23 21,1 °C 4,7 °C 49 % 88 % 998,9 hPa 0,0 l/m² 10,3 km/h (2 Bft) SO 142 ° 0 min 0 W/m² 2,9 °C 1,5 °C 14,5 km/h (3 Bft)
29.01.2025 00:24 21,1 °C 4,7 °C 49 % 88 % 998,9 hPa 0,0 l/m² 11,0 km/h (2 Bft) S-SO 158 ° 0 min 0 W/m² 2,9 °C 1,1 °C 12,9 km/h (3 Bft)
29.01.2025 00:26 21,1 °C 4,7 °C 49 % 88 % 998,9 hPa 0,0 l/m² 10,4 km/h (2 Bft) S-SO 161 ° 0 min 0 W/m² 2,9 °C 1,5 °C 16,1 km/h (3 Bft)
29.01.2025 00:28 21,1 °C 4,7 °C 49 % 88 % 998,8 hPa 0,0 l/m² 10,5 km/h (2 Bft) SO 144 ° 0 min 0 W/m² 2,9 °C 1,4 °C 16,1 km/h (3 Bft)
29.01.2025 00:30 21,1 °C 4,7 °C 49 % 88 % 998,8 hPa 0,0 l/m² 10,2 km/h (2 Bft) S-SO 155 ° 0 min 0 W/m² 2,9 °C 1,6 °C 16,1 km/h (3 Bft)
29.01.2025 00:31 21,1 °C 4,7 °C 49 % 88 % 998,9 hPa 0,0 l/m² 10,8 km/h (2 Bft) S-SO 165 ° 0 min 0 W/m² 2,9 °C 1,2 °C 16,1 km/h (3 Bft)
29.01.2025 00:33 21,1 °C 4,7 °C 49 % 88 % 999,0 hPa 0,0 l/m² 12,1 km/h (2 Bft) SO 143 ° 0 min 0 W/m² 2,9 °C 0,3 °C 17,7 km/h (3 Bft)
29.01.2025 00:34 21,1 °C 4,8 °C 49 % 88 % 998,8 hPa 0,0 l/m² 11,9 km/h (2 Bft) S-SO 149 ° 0 min 0 W/m² 3,0 °C 0,6 °C 14,5 km/h (3 Bft)
29.01.2025 00:36 21,1 °C 4,8 °C 49 % 89 % 999,0 hPa 0,0 l/m² 11,9 km/h (2 Bft) SO 144 ° 0 min 0 W/m² 3,1 °C 0,6 °C 16,1 km/h (3 Bft)
29.01.2025 00:38 21,1 °C 4,8 °C 49 % 88 % 998,9 hPa 0,0 l/m² 10,0 km/h (2 Bft) S-SO 153 ° 0 min 0 W/m² 3,0 °C 1,9 °C 14,5 km/h (3 Bft)
29.01.2025 00:40 21,1 °C 4,8 °C 49 % 89 % 999,0 hPa 0,0 l/m² 11,2 km/h (2 Bft) S-SO 147 ° 0 min 0 W/m² 3,1 °C 1,0 °C 16,1 km/h (3 Bft)
29.01.2025 00:41 21,1 °C 4,9 °C 49 % 89 % 998,9 hPa 0,0 l/m² 8,3 km/h (2 Bft) SO 144 ° 0 min 0 W/m² 3,2 °C 3,3 °C 11,3 km/h (2 Bft)
29.01.2025 00:43 21,1 °C 4,9 °C 49 % 89 % 999,0 hPa 0,0 l/m² 11,0 km/h (2 Bft) S-SO 160 ° 0 min 0 W/m² 3,2 °C 1,3 °C 17,7 km/h (3 Bft)
29.01.2025 00:45 21,1 °C 4,9 °C 49 % 89 % 998,8 hPa 0,0 l/m² 11,1 km/h (2 Bft) SO 137 ° 0 min 0 W/m² 3,2 °C 1,2 °C 16,1 km/h (3 Bft)
29.01.2025 00:46 21,1 °C 4,9 °C 49 % 89 % 999,0 hPa 0,0 l/m² 9,2 km/h (2 Bft) S-SO 165 ° 0 min 0 W/m² 3,2 °C 2,5 °C 12,9 km/h (3 Bft)
29.01.2025 00:48 21,1 °C 5,1 °C 49 % 89 % 998,9 hPa 0,0 l/m² 10,7 km/h (2 Bft) S-SO 152 ° 0 min 0 W/m² 3,4 °C 1,7 °C 17,7 km/h (3 Bft)
29.01.2025 00:50 21,1 °C 5,1 °C 49 % 89 % 998,8 hPa 0,0 l/m² 10,1 km/h (2 Bft) S-SO 163 ° 0 min 0 W/m² 3,4 °C 2,1 °C 16,1 km/h (3 Bft)
29.01.2025 00:51 21,1 °C 5,1 °C 49 % 89 % 998,8 hPa 0,0 l/m² 12,2 km/h (2 Bft) SO 146 ° 0 min 0 W/m² 3,4 °C 0,8 °C 16,1 km/h (3 Bft)
29.01.2025 00:53 21,1 °C 5,2 °C 49 % 89 % 998,7 hPa 0,0 l/m² 12,1 km/h (2 Bft) S-SO 152 ° 0 min 0 W/m² 3,5 °C 0,9 °C 19,3 km/h (3 Bft)
29.01.2025 00:54 21,2 °C 5,2 °C 49 % 89 % 998,8 hPa 0,0 l/m² 13,9 km/h (3 Bft) S-SO 157 ° 0 min 0 W/m² 3,5 °C -0,1 °C 19,3 km/h (3 Bft)
29.01.2025 00:56 21,1 °C 5,3 °C 49 % 89 % 998,7 hPa 0,0 l/m² 12,5 km/h (2 Bft) S-SO 155 ° 0 min 0 W/m² 3,6 °C 0,8 °C 22,5 km/h (4 Bft)
29.01.2025 00:58 21,1 °C 5,4 °C 49 % 89 % 998,7 hPa 0,0 l/m² 13,9 km/h (3 Bft) SO 142 ° 0 min 0 W/m² 3,7 °C 0,1 °C 20,9 km/h (4 Bft)
29.01.2025 01:00 21,2 °C 5,5 °C 49 % 89 % 998,7 hPa 0,0 l/m² 15,4 km/h (3 Bft) S 175 ° 0 min 0 W/m² 3,8 °C -0,5 °C 20,9 km/h (4 Bft)
29.01.2025 01:01 21,2 °C 5,6 °C 49 % 88 % 998,8 hPa 0,0 l/m² 13,6 km/h (3 Bft) S 176 ° 0 min 0 W/m² 3,8 °C 0,5 °C 16,1 km/h (3 Bft)
29.01.2025 01:03 21,1 °C 5,6 °C 49 % 88 % 998,8 hPa 0,0 l/m² 12,8 km/h (3 Bft) S 171 ° 0 min 0 W/m² 3,8 °C 1,0 °C 19,3 km/h (3 Bft)
29.01.2025 01:04 21,1 °C 5,7 °C 49 % 88 % 998,8 hPa 0,0 l/m² 16,0 km/h (3 Bft) S-SO 150 ° 0 min 0 W/m² 3,9 °C -0,6 °C 20,9 km/h (4 Bft)
29.01.2025 01:06 21,1 °C 5,7 °C 49 % 88 % 998,8 hPa 0,0 l/m² 13,1 km/h (3 Bft) S 175 ° 0 min 0 W/m² 3,9 °C 0,9 °C 19,3 km/h (3 Bft)
29.01.2025 01:08 21,2 °C 5,8 °C 49 % 87 % 998,8 hPa 0,0 l/m² 14,1 km/h (3 Bft) SO 140 ° 0 min 0 W/m² 3,8 °C 0,5 °C 19,3 km/h (3 Bft)
29.01.2025 01:09 21,2 °C 5,8 °C 49 % 87 % 998,8 hPa 0,0 l/m² 15,3 km/h (3 Bft) S-SO 147 ° 0 min 0 W/m² 3,8 °C -0,1 °C 19,3 km/h (3 Bft)
29.01.2025 01:11 21,2 °C 5,8 °C 49 % 87 % 998,8 hPa 0,0 l/m² 15,5 km/h (3 Bft) SO 146 ° 0 min 0 W/m² 3,8 °C -0,2 °C 20,9 km/h (4 Bft)
29.01.2025 01:12 21,1 °C 5,9 °C 49 % 87 % 998,8 hPa 0,0 l/m² 19,4 km/h (3 Bft) S-SO 155 ° 0 min 0 W/m² 3,9 °C -1,8 °C 25,7 km/h (4 Bft)
29.01.2025 01:13 21,1 °C 5,8 °C 49 % 87 % 998,8 hPa 0,0 l/m² 20,0 km/h (4 Bft) S-SO 163 ° 0 min 0 W/m² 3,8 °C -2,1 °C 25,7 km/h (4 Bft)
29.01.2025 01:15 21,1 °C 5,9 °C 49 % 87 % 998,6 hPa 0,0 l/m² 14,4 km/h (3 Bft) SO 132 ° 0 min 0 W/m² 3,9 °C 0,5 °C 19,3 km/h (3 Bft)
29.01.2025 01:16 21,2 °C 5,9 °C 49 % 87 % 998,7 hPa 0,0 l/m² 15,7 km/h (3 Bft) SO 146 ° 0 min 0 W/m² 3,9 °C -0,2 °C 22,5 km/h (4 Bft)
29.01.2025 01:17 21,2 °C 5,9 °C 49 % 87 % 998,7 hPa 0,0 l/m² 18,0 km/h (3 Bft) S-SO 167 ° 0 min 0 W/m² 3,9 °C -1,2 °C 22,5 km/h (4 Bft)
29.01.2025 01:18 21,2 °C 5,9 °C 49 % 87 % 998,6 hPa 0,0 l/m² 17,4 km/h (3 Bft) S-SO 151 ° 0 min 0 W/m² 3,9 °C -0,9 °C 22,5 km/h (4 Bft)
29.01.2025 01:19 21,1 °C 6,0 °C 49 % 86 % 998,7 hPa 0,0 l/m² 17,6 km/h (3 Bft) S-SO 158 ° 0 min 0 W/m² 3,8 °C -0,9 °C 22,5 km/h (4 Bft)
29.01.2025 01:20 21,2 °C 6,0 °C 49 % 86 % 998,6 hPa 0,0 l/m² 19,8 km/h (3 Bft) S-SO 151 ° 0 min 0 W/m² 3,8 °C -1,8 °C 25,7 km/h (4 Bft)
29.01.2025 01:21 21,2 °C 6,1 °C 49 % 86 % 998,6 hPa 0,0 l/m² 18,8 km/h (3 Bft) S-SO 155 ° 0 min 0 W/m² 3,9 °C -1,3 °C 24,1 km/h (4 Bft)
29.01.2025 01:22 21,2 °C 6,0 °C 49 % 86 % 998,6 hPa 0,0 l/m² 18,4 km/h (3 Bft) S-SO 155 ° 0 min 0 W/m² 3,8 °C -1,2 °C 22,5 km/h (4 Bft)
29.01.2025 01:23 21,2 °C 6,1 °C 49 % 86 % 998,6 hPa 0,0 l/m² 21,4 km/h (4 Bft) S-SO 150 ° 0 min 0 W/m² 3,9 °C -2,3 °C 30,6 km/h (5 Bft)
29.01.2025 01:24 21,2 °C 6,1 °C 49 % 86 % 998,5 hPa 0,0 l/m² 19,6 km/h (3 Bft) S-SO 153 ° 0 min 0 W/m² 3,9 °C -1,6 °C 24,1 km/h (4 Bft)
29.01.2025 01:25 21,2 °C 6,1 °C 49 % 86 % 998,6 hPa 0,0 l/m² 18,0 km/h (3 Bft) S-SO 166 ° 0 min 0 W/m² 3,9 °C -1,0 °C 24,1 km/h (4 Bft)
29.01.2025 01:26 21,2 °C 6,1 °C 49 % 86 % 998,6 hPa 0,0 l/m² 18,2 km/h (3 Bft) S-SO 153 ° 0 min 0 W/m² 3,9 °C -1,0 °C 24,1 km/h (4 Bft)
29.01.2025 01:27 21,2 °C 6,1 °C 49 % 86 % 998,6 hPa 0,0 l/m² 17,5 km/h (3 Bft) S 176 ° 0 min 0 W/m² 3,9 °C -0,7 °C 24,1 km/h (4 Bft)
29.01.2025 01:28 21,2 °C 6,1 °C 49 % 86 % 998,6 hPa 0,0 l/m² 13,7 km/h (3 Bft) S-SO 156 ° 0 min 0 W/m² 3,9 °C 1,1 °C 17,7 km/h (3 Bft)
29.01.2025 01:29 21,2 °C 6,1 °C 49 % 85 % 998,6 hPa 0,0 l/m² 16,4 km/h (3 Bft) S-SO 161 ° 0 min 0 W/m² 3,8 °C -0,3 °C 20,9 km/h (4 Bft)
29.01.2025 01:30 21,2 °C 6,1 °C 49 % 86 % 998,6 hPa 0,0 l/m² 16,9 km/h (3 Bft) SO 144 ° 0 min 0 W/m² 3,9 °C -0,5 °C 22,5 km/h (4 Bft)
29.01.2025 01:31 21,2 °C 6,0 °C 49 % 86 % 998,6 hPa 0,0 l/m² 14,6 km/h (3 Bft) SO 145 ° 0 min 0 W/m² 3,8 °C 0,5 °C 19,3 km/h (3 Bft)
29.01.2025 01:33 21,2 °C 6,1 °C 49 % 85 % 998,6 hPa 0,0 l/m² 17,4 km/h (3 Bft) S 169 ° 0 min 0 W/m² 3,8 °C -0,7 °C 22,5 km/h (4 Bft)
29.01.2025 01:34 21,2 °C 6,0 °C 49 % 86 % 998,6 hPa 0,0 l/m² 17,9 km/h (3 Bft) S-SO 158 ° 0 min 0 W/m² 3,8 °C -1,0 °C 22,5 km/h (4 Bft)
29.01.2025 01:35 21,2 °C 6,1 °C 49 % 85 % 998,6 hPa 0,0 l/m² 15,6 km/h (3 Bft) SO 139 ° 0 min 0 W/m² 3,8 °C 0,1 °C 20,9 km/h (4 Bft)
29.01.2025 01:36 21,2 °C 6,1 °C 49 % 85 % 998,6 hPa 0,0 l/m² 15,1 km/h (3 Bft) S-SO 159 ° 0 min 0 W/m² 3,8 °C 0,4 °C 19,3 km/h (3 Bft)
29.01.2025 01:37 21,2 °C 6,1 °C 49 % 85 % 998,6 hPa 0,0 l/m² 17,0 km/h (3 Bft) S-SO 153 ° 0 min 0 W/m² 3,8 °C -0,5 °C 19,3 km/h (3 Bft)
29.01.2025 01:38 21,2 °C 6,1 °C 49 % 85 % 998,6 hPa 0,0 l/m² 17,4 km/h (3 Bft) SO 146 ° 0 min 0 W/m² 3,8 °C -0,7 °C 24,1 km/h (4 Bft)
29.01.2025 01:39 21,2 °C 6,1 °C 49 % 86 % 998,6 hPa 0,0 l/m² 16,8 km/h (3 Bft) SO 145 ° 0 min 0 W/m² 3,9 °C -0,4 °C 20,9 km/h (4 Bft)
29.01.2025 01:40 21,2 °C 6,0 °C 49 % 86 % 998,6 hPa 0,0 l/m² 15,6 km/h (3 Bft) S-SO 151 ° 0 min 0 W/m² 3,8 °C -0,0 °C 19,3 km/h (3 Bft)
29.01.2025 01:41 21,2 °C 6,0 °C 49 % 85 % 998,6 hPa 0,0 l/m² 15,4 km/h (3 Bft) S 169 ° 0 min 0 W/m² 3,7 °C 0,1 °C 20,9 km/h (4 Bft)
29.01.2025 01:43 21,2 °C 6,0 °C 49 % 85 % 998,7 hPa 0,0 l/m² 17,6 km/h (3 Bft) SO 146 ° 0 min 0 W/m² 3,7 °C -0,9 °C 24,1 km/h (4 Bft)
29.01.2025 01:44 21,2 °C 6,0 °C 49 % 85 % 998,7 hPa 0,0 l/m² 19,0 km/h (3 Bft) S-SO 163 ° 0 min 0 W/m² 3,7 °C -1,5 °C 24,1 km/h (4 Bft)
29.01.2025 01:45 21,1 °C 6,0 °C 49 % 85 % 998,5 hPa 0,0 l/m² 17,7 km/h (3 Bft) S-SO 153 ° 0 min 0 W/m² 3,7 °C -1,0 °C 24,1 km/h (4 Bft)
29.01.2025 01:46 21,1 °C 6,0 °C 49 % 85 % 998,6 hPa 0,0 l/m² 17,1 km/h (3 Bft) S-SO 149 ° 0 min 0 W/m² 3,7 °C -0,7 °C 20,9 km/h (4 Bft)
29.01.2025 01:47 21,2 °C 6,0 °C 49 % 85 % 998,7 hPa 0,0 l/m² 19,9 km/h (4 Bft) SO 146 ° 0 min 0 W/m² 3,7 °C -1,8 °C 27,4 km/h (5 Bft)
29.01.2025 01:48 21,2 °C 6,0 °C 49 % 85 % 998,6 hPa 0,0 l/m² 16,9 km/h (3 Bft) S-SO 165 ° 0 min 0 W/m² 3,7 °C -0,6 °C 22,5 km/h (4 Bft)
29.01.2025 01:49 21,2 °C 6,0 °C 49 % 85 % 998,6 hPa 0,0 l/m² 19,2 km/h (3 Bft) S-SO 155 ° 0 min 0 W/m² 3,7 °C -1,6 °C 25,7 km/h (4 Bft)
29.01.2025 01:50 21,2 °C 6,0 °C 49 % 85 % 998,6 hPa 0,0 l/m² 16,7 km/h (3 Bft) S-SO 150 ° 0 min 0 W/m² 3,7 °C -0,5 °C 20,9 km/h (4 Bft)
29.01.2025 01:51 21,1 °C 6,1 °C 49 % 85 % 998,6 hPa 0,0 l/m² 19,3 km/h (3 Bft) S 173 ° 0 min 0 W/m² 3,8 °C -1,5 °C 24,1 km/h (4 Bft)
29.01.2025 01:52 21,1 °C 6,0 °C 49 % 85 % 998,6 hPa 0,0 l/m² 17,4 km/h (3 Bft) S 171 ° 0 min 0 W/m² 3,7 °C -0,8 °C 24,1 km/h (4 Bft)
29.01.2025 01:53 21,2 °C 6,0 °C 49 % 85 % 998,6 hPa 0,0 l/m² 17,6 km/h (3 Bft) S-SO 159 ° 0 min 0 W/m² 3,7 °C -0,9 °C 22,5 km/h (4 Bft)
29.01.2025 01:54 21,2 °C 6,0 °C 49 % 85 % 998,5 hPa 0,0 l/m² 16,7 km/h (3 Bft) SO 145 ° 0 min 0 W/m² 3,7 °C -0,5 °C 22,5 km/h (4 Bft)
29.01.2025 01:55 21,2 °C 6,0 °C 49 % 85 % 998,6 hPa 0,0 l/m² 16,8 km/h (3 Bft) S-SO 158 ° 0 min 0 W/m² 3,7 °C -0,6 °C 22,5 km/h (4 Bft)
29.01.2025 01:56 21,2 °C 6,1 °C 49 % 85 % 998,6 hPa 0,0 l/m² 17,8 km/h (3 Bft) S-SO 149 ° 0 min 0 W/m² 3,8 °C -0,9 °C 24,1 km/h (4 Bft)
29.01.2025 01:57 21,2 °C 6,0 °C 49 % 85 % 998,6 hPa 0,0 l/m² 17,0 km/h (3 Bft) S-SO 165 ° 0 min 0 W/m² 3,7 °C -0,6 °C 20,9 km/h (4 Bft)
29.01.2025 01:58 21,1 °C 6,0 °C 49 % 85 % 998,6 hPa 0,0 l/m² 18,5 km/h (3 Bft) S 175 ° 0 min 0 W/m² 3,7 °C -1,3 °C 22,5 km/h (4 Bft)
29.01.2025 01:59 21,2 °C 6,1 °C 49 % 85 % 998,5 hPa 0,0 l/m² 16,8 km/h (3 Bft) S-SO 158 ° 0 min 0 W/m² 3,8 °C -0,4 °C 22,5 km/h (4 Bft)
29.01.2025 02:00 21,1 °C 6,1 °C 49 % 85 % 998,6 hPa 0,0 l/m² 18,0 km/h (3 Bft) SO 144 ° 0 min 0 W/m² 3,8 °C -1,0 °C 27,4 km/h (5 Bft)
29.01.2025 02:01 21,1 °C 6,1 °C 49 % 85 % 998,6 hPa 0,0 l/m² 18,3 km/h (3 Bft) SO 146 ° 0 min 0 W/m² 3,8 °C -1,1 °C 20,9 km/h (4 Bft)
29.01.2025 02:02 21,1 °C 6,1 °C 49 % 85 % 998,6 hPa 0,0 l/m² 18,4 km/h (3 Bft) SO 146 ° 0 min 0 W/m² 3,8 °C -1,1 °C 24,1 km/h (4 Bft)
29.01.2025 02:03 21,2 °C 6,1 °C 49 % 85 % 998,6 hPa 0,0 l/m² 16,6 km/h (3 Bft) S-SO 151 ° 0 min 0 W/m² 3,8 °C -0,3 °C 19,3 km/h (3 Bft)
29.01.2025 02:04 21,2 °C 6,1 °C 49 % 85 % 998,6 hPa 0,0 l/m² 16,0 km/h (3 Bft) S-SO 165 ° 0 min 0 W/m² 3,8 °C -0,1 °C 24,1 km/h (4 Bft)
29.01.2025 02:05 21,1 °C 6,1 °C 49 % 85 % 998,6 hPa 0,0 l/m² 15,4 km/h (3 Bft) S-SO 155 ° 0 min 0 W/m² 3,8 °C 0,2 °C 19,3 km/h (3 Bft)
29.01.2025 02:06 21,1 °C 6,1 °C 49 % 85 % 998,6 hPa 0,0 l/m² 14,3 km/h (3 Bft) S-SO 152 ° 0 min 0 W/m² 3,8 °C 0,8 °C 22,5 km/h (4 Bft)
29.01.2025 02:07 21,1 °C 6,1 °C 49 % 85 % 998,6 hPa 0,0 l/m² 17,4 km/h (3 Bft) S 176 ° 0 min 0 W/m² 3,8 °C -0,7 °C 24,1 km/h (4 Bft)
29.01.2025 02:08 21,1 °C 6,0 °C 49 % 85 % 998,6 hPa 0,0 l/m² 12,7 km/h (3 Bft) S-SO 161 ° 0 min 0 W/m² 3,7 °C 1,5 °C 19,3 km/h (3 Bft)
29.01.2025 02:09 21,1 °C 6,1 °C 49 % 85 % 998,6 hPa 0,0 l/m² 13,6 km/h (3 Bft) S 184 ° 0 min 0 W/m² 3,8 °C 1,1 °C 17,7 km/h (3 Bft)
29.01.2025 02:10 21,1 °C 6,0 °C 49 % 85 % 998,6 hPa 0,0 l/m² 17,4 km/h (3 Bft) S 173 ° 0 min 0 W/m² 3,7 °C -0,8 °C 24,1 km/h (4 Bft)
29.01.2025 02:11 21,1 °C 6,0 °C 49 % 85 % 998,6 hPa 0,0 l/m² 14,8 km/h (3 Bft) S-SO 154 ° 0 min 0 W/m² 3,7 °C 0,4 °C 22,5 km/h (4 Bft)
29.01.2025 02:12 21,1 °C 5,9 °C 49 % 85 % 998,6 hPa 0,0 l/m² 14,2 km/h (3 Bft) S-SO 163 ° 0 min 0 W/m² 3,6 °C 0,6 °C 29,0 km/h (5 Bft)
29.01.2025 02:13 21,1 °C 5,9 °C 49 % 85 % 998,5 hPa 0,0 l/m² 16,9 km/h (3 Bft) S-SO 165 ° 0 min 0 W/m² 3,6 °C -0,7 °C 20,9 km/h (4 Bft)
29.01.2025 02:14 21,1 °C 5,9 °C 49 % 85 % 998,6 hPa 0,0 l/m² 18,2 km/h (3 Bft) S-SO 161 ° 0 min 0 W/m² 3,6 °C -1,3 °C 24,1 km/h (4 Bft)
29.01.2025 02:15 21,1 °C 5,9 °C 49 % 85 % 998,5 hPa 0,0 l/m² 18,9 km/h (3 Bft) S 173 ° 0 min 0 W/m² 3,6 °C -1,6 °C 27,4 km/h (5 Bft)
29.01.2025 02:16 21,1 °C 5,9 °C 49 % 85 % 998,6 hPa 0,0 l/m² 17,9 km/h (3 Bft) S 176 ° 0 min 0 W/m² 3,6 °C -1,2 °C 25,7 km/h (4 Bft)
29.01.2025 02:17 21,1 °C 5,9 °C 49 % 85 % 998,6 hPa 0,0 l/m² 17,7 km/h (3 Bft) S-SO 154 ° 0 min 0 W/m² 3,6 °C -1,1 °C 24,1 km/h (4 Bft)
29.01.2025 02:18 21,1 °C 5,9 °C 49 % 85 % 998,6 hPa 0,0 l/m² 15,2 km/h (3 Bft) S 171 ° 0 min 0 W/m² 3,6 °C 0,1 °C 24,1 km/h (4 Bft)
29.01.2025 02:19 21,1 °C 5,9 °C 49 % 85 % 998,6 hPa 0,0 l/m² 13,1 km/h (3 Bft) S 179 ° 0 min 0 W/m² 3,6 °C 1,2 °C 19,3 km/h (3 Bft)
29.01.2025 02:20 21,1 °C 5,9 °C 49 % 85 % 998,6 hPa 0,0 l/m² 18,8 km/h (3 Bft) S 169 ° 0 min 0 W/m² 3,6 °C -1,5 °C 25,7 km/h (4 Bft)
29.01.2025 02:21 21,1 °C 5,9 °C 49 % 85 % 998,6 hPa 0,0 l/m² 14,4 km/h (3 Bft) S-SO 167 ° 0 min 0 W/m² 3,6 °C 0,5 °C 22,5 km/h (4 Bft)
29.01.2025 02:22 21,1 °C 5,9 °C 49 % 85 % 998,6 hPa 0,0 l/m² 14,7 km/h (3 Bft) S 170 ° 0 min 0 W/m² 3,6 °C 0,3 °C 19,3 km/h (3 Bft)
29.01.2025 02:23 21,1 °C 5,9 °C 49 % 85 % 998,6 hPa 0,0 l/m² 12,2 km/h (2 Bft) S 175 ° 0 min 0 W/m² 3,6 °C 1,7 °C 17,7 km/h (3 Bft)
29.01.2025 02:24 21,1 °C 5,9 °C 49 % 85 % 998,6 hPa 0,0 l/m² 12,0 km/h (2 Bft) S-SO 161 ° 0 min 0 W/m² 3,6 °C 1,8 °C 20,9 km/h (4 Bft)
29.01.2025 02:25 21,1 °C 5,9 °C 49 % 85 % 998,6 hPa 0,0 l/m² 10,9 km/h (2 Bft) S 169 ° 0 min 0 W/m² 3,6 °C 2,5 °C 17,7 km/h (3 Bft)
29.01.2025 02:26 21,2 °C 5,9 °C 49 % 85 % 998,7 hPa 0,0 l/m² 11,0 km/h (2 Bft) S-SO 166 ° 0 min 0 W/m² 3,6 °C 2,4 °C 16,1 km/h (3 Bft)
29.01.2025 02:27 21,2 °C 5,9 °C 49 % 85 % 998,7 hPa 0,0 l/m² 11,1 km/h (2 Bft) S-SO 168 ° 0 min 0 W/m² 3,6 °C 2,3 °C 14,5 km/h (3 Bft)
29.01.2025 02:28 21,1 °C 5,9 °C 49 % 85 % 998,8 hPa 0,0 l/m² 10,7 km/h (2 Bft) S-SO 164 ° 0 min 0 W/m² 3,6 °C 2,6 °C 17,7 km/h (3 Bft)
29.01.2025 02:29 21,1 °C 5,9 °C 49 % 85 % 998,8 hPa 0,0 l/m² 10,4 km/h (2 Bft) S 170 ° 0 min 0 W/m² 3,6 °C 2,8 °C 16,1 km/h (3 Bft)
29.01.2025 02:30 21,1 °C 5,9 °C 49 % 85 % 998,7 hPa 0,0 l/m² 11,1 km/h (2 Bft) S 189 ° 0 min 0 W/m² 3,6 °C 2,3 °C 14,5 km/h (3 Bft)
29.01.2025 02:31 21,1 °C 5,9 °C 49 % 85 % 998,7 hPa 0,0 l/m² 8,6 km/h (2 Bft) S 170 ° 0 min 0 W/m² 3,6 °C 4,1 °C 14,5 km/h (3 Bft)
29.01.2025 02:32 21,1 °C 5,9 °C 49 % 85 % 998,7 hPa 0,0 l/m² 11,8 km/h (2 Bft) S 182 ° 0 min 0 W/m² 3,6 °C 1,9 °C 17,7 km/h (3 Bft)
29.01.2025 02:33 21,1 °C 5,9 °C 49 % 85 % 998,7 hPa 0,0 l/m² 10,6 km/h (2 Bft) S 190 ° 0 min 0 W/m² 3,6 °C 2,7 °C 14,5 km/h (3 Bft)
29.01.2025 02:34 21,1 °C 5,9 °C 49 % 85 % 998,8 hPa 0,0 l/m² 11,4 km/h (2 Bft) S-SO 168 ° 0 min 0 W/m² 3,6 °C 2,2 °C 16,1 km/h (3 Bft)
29.01.2025 02:35 21,1 °C 5,8 °C 49 % 85 % 998,8 hPa 0,0 l/m² 10,1 km/h (2 Bft) S 170 ° 0 min 0 W/m² 3,5 °C 2,9 °C 12,9 km/h (3 Bft)
29.01.2025 02:36 21,1 °C 5,8 °C 49 % 85 % 998,8 hPa 0,0 l/m² 10,4 km/h (2 Bft) S 171 ° 0 min 0 W/m² 3,5 °C 2,7 °C 14,5 km/h (3 Bft)
29.01.2025 02:37 21,1 °C 5,8 °C 49 % 85 % 998,9 hPa 0,0 l/m² 8,6 km/h (2 Bft) S 176 ° 0 min 0 W/m² 3,5 °C 4,0 °C 11,3 km/h (2 Bft)
29.01.2025 02:38 21,1 °C 5,8 °C 49 % 85 % 998,9 hPa 0,0 l/m² 7,6 km/h (2 Bft) S 174 ° 0 min 0 W/m² 3,5 °C 4,8 °C 9,7 km/h (2 Bft)
29.01.2025 02:39 21,1 °C 5,8 °C 49 % 85 % 998,8 hPa 0,0 l/m² 8,4 km/h (2 Bft) S 174 ° 0 min 0 W/m² 3,5 °C 4,1 °C 12,9 km/h (3 Bft)
29.01.2025 02:40 21,1 °C 5,8 °C 49 % 85 % 998,8 hPa 0,0 l/m² 11,1 km/h (2 Bft) S 180 ° 0 min 0 W/m² 3,5 °C 2,2 °C 16,1 km/h (3 Bft)
29.01.2025 02:41 21,1 °C 5,8 °C 49 % 85 % 998,8 hPa 0,0 l/m² 13,9 km/h (3 Bft) S 174 ° 0 min 0 W/m² 3,5 °C 0,6 °C 22,5 km/h (4 Bft)
29.01.2025 02:42 21,1 °C 5,8 °C 49 % 85 % 998,8 hPa 0,0 l/m² 12,6 km/h (3 Bft) S 182 ° 0 min 0 W/m² 3,5 °C 1,3 °C 19,3 km/h (3 Bft)
29.01.2025 02:43 21,1 °C 5,8 °C 49 % 85 % 998,8 hPa 0,0 l/m² 12,9 km/h (3 Bft) S-SW 198 ° 0 min 0 W/m² 3,5 °C 1,2 °C 17,7 km/h (3 Bft)
29.01.2025 02:44 21,1 °C 5,8 °C 49 % 85 % 998,8 hPa 0,0 l/m² 14,7 km/h (3 Bft) S 187 ° 0 min 0 W/m² 3,5 °C 0,2 °C 20,9 km/h (4 Bft)
29.01.2025 02:45 21,1 °C 5,8 °C 49 % 85 % 998,8 hPa 0,0 l/m² 16,8 km/h (3 Bft) S 184 ° 0 min 0 W/m² 3,5 °C -0,8 °C 20,9 km/h (4 Bft)
29.01.2025 02:46 21,1 °C 5,8 °C 49 % 85 % 998,8 hPa 0,0 l/m² 15,6 km/h (3 Bft) S-SW 192 ° 0 min 0 W/m² 3,5 °C -0,2 °C 22,5 km/h (4 Bft)
29.01.2025 02:47 21,1 °C 5,9 °C 49 % 85 % 998,8 hPa 0,0 l/m² 14,7 km/h (3 Bft) S-SW 194 ° 0 min 0 W/m² 3,6 °C 0,3 °C 19,3 km/h (3 Bft)
29.01.2025 02:48 21,1 °C 5,9 °C 49 % 85 % 999,0 hPa 0,0 l/m² 12,6 km/h (3 Bft) S-SW 198 ° 0 min 0 W/m² 3,6 °C 1,4 °C 16,1 km/h (3 Bft)
29.01.2025 02:49 21,1 °C 5,9 °C 49 % 85 % 999,0 hPa 0,0 l/m² 13,6 km/h (3 Bft) S 184 ° 0 min 0 W/m² 3,6 °C 0,9 °C 19,3 km/h (3 Bft)
29.01.2025 02:50 21,1 °C 5,9 °C 49 % 85 % 999,0 hPa 0,0 l/m² 14,1 km/h (3 Bft) S 177 ° 0 min 0 W/m² 3,6 °C 0,6 °C 19,3 km/h (3 Bft)
29.01.2025 02:51 21,1 °C 5,9 °C 49 % 85 % 999,0 hPa 0,0 l/m² 15,6 km/h (3 Bft) S 190 ° 0 min 0 W/m² 3,6 °C -0,1 °C 20,9 km/h (4 Bft)
29.01.2025 02:52 21,1 °C 5,9 °C 49 % 85 % 999,0 hPa 0,0 l/m² 13,5 km/h (3 Bft) S 178 ° 0 min 0 W/m² 3,6 °C 0,9 °C 19,3 km/h (3 Bft)
29.01.2025 02:53 21,1 °C 5,9 °C 49 % 85 % 999,0 hPa 0,0 l/m² 16,2 km/h (3 Bft) S 185 ° 0 min 0 W/m² 3,6 °C -0,4 °C 19,3 km/h (3 Bft)
29.01.2025 02:54 21,1 °C 5,9 °C 49 % 85 % 998,8 hPa 0,0 l/m² 15,6 km/h (3 Bft) S 171 ° 0 min 0 W/m² 3,6 °C -0,1 °C 19,3 km/h (3 Bft)
29.01.2025 02:55 21,1 °C 5,9 °C 49 % 85 % 998,9 hPa 0,0 l/m² 15,3 km/h (3 Bft) S 176 ° 0 min 0 W/m² 3,6 °C 0,0 °C 22,5 km/h (4 Bft)
29.01.2025 02:56 21,1 °C 5,9 °C 49 % 85 % 999,0 hPa 0,0 l/m² 14,8 km/h (3 Bft) S 179 ° 0 min 0 W/m² 3,6 °C 0,3 °C 20,9 km/h (4 Bft)
29.01.2025 02:57 21,1 °C 5,9 °C 49 % 85 % 999,0 hPa 0,0 l/m² 13,9 km/h (3 Bft) S 173 ° 0 min 0 W/m² 3,6 °C 0,7 °C 17,7 km/h (3 Bft)
29.01.2025 02:58 21,1 °C 5,9 °C 49 % 85 % 999,0 hPa 0,0 l/m² 10,3 km/h (2 Bft) S 173 ° 0 min 0 W/m² 3,6 °C 2,9 °C 16,1 km/h (3 Bft)
29.01.2025 02:59 21,1 °C 5,9 °C 49 % 85 % 998,9 hPa 0,0 l/m² 11,4 km/h (2 Bft) S-SO 159 ° 0 min 0 W/m² 3,6 °C 2,2 °C 19,3 km/h (3 Bft)
29.01.2025 03:00 21,1 °C 5,9 °C 49 % 85 % 999,0 hPa 0,0 l/m² 9,7 km/h (2 Bft) S 180 ° 0 min 0 W/m² 3,6 °C 3,3 °C 12,9 km/h (3 Bft)
29.01.2025 03:01 21,1 °C 5,9 °C 49 % 85 % 998,9 hPa 0,0 l/m² 11,3 km/h (2 Bft) S 180 ° 0 min 0 W/m² 3,6 °C 2,2 °C 17,7 km/h (3 Bft)
29.01.2025 03:06 21,1 °C 5,8 °C 49 % 84 % 998,9 hPa 0,0 l/m² 11,4 km/h (2 Bft) S-SO 165 ° 0 min 0 W/m² 3,3 °C 2,0 °C 14,5 km/h (3 Bft)
29.01.2025 03:08 21,1 °C 5,8 °C 49 % 84 % 998,8 hPa 0,0 l/m² 12,0 km/h (2 Bft) S 169 ° 0 min 0 W/m² 3,3 °C 1,7 °C 17,7 km/h (3 Bft)
29.01.2025 03:09 21,1 °C 5,8 °C 49 % 84 % 998,8 hPa 0,0 l/m² 15,3 km/h (3 Bft) S 174 ° 0 min 0 W/m² 3,3 °C -0,1 °C 19,3 km/h (3 Bft)
29.01.2025 03:11 21,1 °C 5,7 °C 49 % 85 % 998,8 hPa 0,0 l/m² 14,1 km/h (3 Bft) S 173 ° 0 min 0 W/m² 3,4 °C 0,4 °C 19,3 km/h (3 Bft)
29.01.2025 03:12 21,1 °C 5,7 °C 49 % 84 % 998,8 hPa 0,0 l/m² 15,6 km/h (3 Bft) S-SO 166 ° 0 min 0 W/m² 3,2 °C -0,4 °C 20,9 km/h (4 Bft)
29.01.2025 03:14 21,1 °C 5,7 °C 49 % 85 % 998,8 hPa 0,0 l/m² 16,1 km/h (3 Bft) S-SO 165 ° 0 min 0 W/m² 3,4 °C -0,6 °C 25,7 km/h (4 Bft)
29.01.2025 03:16 21,1 °C 5,6 °C 49 % 85 % 998,7 hPa 0,0 l/m² 16,6 km/h (3 Bft) S 174 ° 0 min 0 W/m² 3,3 °C -1,0 °C 24,1 km/h (4 Bft)
29.01.2025 03:18 21,1 °C 5,6 °C 49 % 85 % 998,8 hPa 0,0 l/m² 16,2 km/h (3 Bft) S-SO 160 ° 0 min 0 W/m² 3,3 °C -0,8 °C 25,7 km/h (4 Bft)
29.01.2025 03:20 21,1 °C 5,5 °C 49 % 85 % 998,6 hPa 0,0 l/m² 18,4 km/h (3 Bft) S-SO 161 ° 0 min 0 W/m² 3,2 °C -1,9 °C 25,7 km/h (4 Bft)
29.01.2025 03:21 21,1 °C 5,5 °C 49 % 85 % 998,6 hPa 0,0 l/m² 16,8 km/h (3 Bft) S 183 ° 0 min 0 W/m² 3,2 °C -1,2 °C 20,9 km/h (4 Bft)
29.01.2025 03:22 21,1 °C 5,5 °C 49 % 85 % 998,6 hPa 0,0 l/m² 18,1 km/h (3 Bft) S-SO 162 ° 0 min 0 W/m² 3,2 °C -1,8 °C 24,1 km/h (4 Bft)
29.01.2025 03:24 21,1 °C 5,4 °C 49 % 85 % 998,6 hPa 0,0 l/m² 16,5 km/h (3 Bft) S 175 ° 0 min 0 W/m² 3,1 °C -1,2 °C 20,9 km/h (4 Bft)
29.01.2025 03:26 21,1 °C 5,4 °C 49 % 85 % 998,6 hPa 0,0 l/m² 19,5 km/h (3 Bft) S 174 ° 0 min 0 W/m² 3,1 °C -2,5 °C 25,7 km/h (4 Bft)
29.01.2025 03:28 21,1 °C 5,4 °C 49 % 86 % 998,5 hPa 0,0 l/m² 19,9 km/h (4 Bft) S 171 ° 0 min 0 W/m² 3,3 °C -2,6 °C 25,7 km/h (4 Bft)
29.01.2025 03:30 21,1 °C 5,3 °C 49 % 86 % 998,4 hPa 0,0 l/m² 19,0 km/h (3 Bft) S-SO 163 ° 0 min 0 W/m² 3,2 °C -2,4 °C 27,4 km/h (5 Bft)
29.01.2025 03:31 21,1 °C 5,3 °C 49 % 86 % 998,6 hPa 0,0 l/m² 19,0 km/h (3 Bft) S 170 ° 0 min 0 W/m² 3,2 °C -2,4 °C 25,7 km/h (4 Bft)
29.01.2025 03:32 21,1 °C 5,3 °C 49 % 86 % 998,6 hPa 0,0 l/m² 18,4 km/h (3 Bft) S 178 ° 0 min 0 W/m² 3,2 °C -2,1 °C 22,5 km/h (4 Bft)
29.01.2025 03:34 21,1 °C 5,3 °C 49 % 86 % 998,5 hPa 0,0 l/m² 19,2 km/h (3 Bft) S 182 ° 0 min 0 W/m² 3,2 °C -2,5 °C 29,0 km/h (5 Bft)
29.01.2025 03:36 21,1 °C 5,3 °C 49 % 86 % 998,4 hPa 0,0 l/m² 19,3 km/h (3 Bft) S-SO 161 ° 0 min 0 W/m² 3,2 °C -2,5 °C 27,4 km/h (5 Bft)
29.01.2025 03:38 21,0 °C 5,3 °C 49 % 86 % 998,4 hPa 0,0 l/m² 19,3 km/h (3 Bft) S 169 ° 0 min 0 W/m² 3,2 °C -2,5 °C 27,4 km/h (5 Bft)
29.01.2025 03:40 21,0 °C 5,3 °C 49 % 86 % 998,4 hPa 0,0 l/m² 17,9 km/h (3 Bft) S 170 ° 0 min 0 W/m² 3,2 °C -1,9 °C 29,0 km/h (5 Bft)
29.01.2025 03:41 21,1 °C 5,3 °C 49 % 86 % 998,6 hPa 0,0 l/m² 18,9 km/h (3 Bft) S 178 ° 0 min 0 W/m² 3,2 °C -2,3 °C 27,4 km/h (5 Bft)
29.01.2025 03:42 21,1 °C 5,3 °C 49 % 86 % 998,6 hPa 0,0 l/m² 18,3 km/h (3 Bft) S 178 ° 0 min 0 W/m² 3,2 °C -2,1 °C 25,7 km/h (4 Bft)
29.01.2025 03:44 21,1 °C 5,2 °C 49 % 86 % 998,4 hPa 0,0 l/m² 19,5 km/h (3 Bft) S-SO 158 ° 0 min 0 W/m² 3,1 °C -2,7 °C 25,7 km/h (4 Bft)
29.01.2025 03:46 21,1 °C 5,2 °C 49 % 86 % 998,5 hPa 0,0 l/m² 20,0 km/h (4 Bft) S 178 ° 0 min 0 W/m² 3,1 °C -2,9 °C 27,4 km/h (5 Bft)
29.01.2025 03:48 21,0 °C 5,2 °C 49 % 87 % 998,5 hPa 0,0 l/m² 23,6 km/h (4 Bft) S 177 ° 0 min 0 W/m² 3,2 °C -4,2 °C 30,6 km/h (5 Bft)
29.01.2025 03:50 21,1 °C 5,2 °C 49 % 87 % 998,5 hPa 0,0 l/m² 20,6 km/h (4 Bft) S 184 ° 0 min 0 W/m² 3,2 °C -3,1 °C 29,0 km/h (5 Bft)
29.01.2025 03:51 21,0 °C 5,3 °C 49 % 87 % 998,6 hPa 0,0 l/m² 20,0 km/h (4 Bft) S 180 ° 0 min 0 W/m² 3,3 °C -2,8 °C 24,1 km/h (4 Bft)
29.01.2025 03:52 21,1 °C 5,3 °C 49 % 87 % 998,5 hPa 0,0 l/m² 17,3 km/h (3 Bft) S 191 ° 0 min 0 W/m² 3,3 °C -1,7 °C 24,1 km/h (4 Bft)
29.01.2025 03:54 21,1 °C 5,3 °C 49 % 87 % 998,6 hPa 0,0 l/m² 19,9 km/h (4 Bft) S 171 ° 0 min 0 W/m² 3,3 °C -2,7 °C 25,7 km/h (4 Bft)
29.01.2025 03:56 21,1 °C 5,3 °C 49 % 87 % 998,6 hPa 0,0 l/m² 18,4 km/h (3 Bft) S 184 ° 0 min 0 W/m² 3,3 °C -2,1 °C 29,0 km/h (5 Bft)
29.01.2025 03:58 21,1 °C 5,3 °C 49 % 87 % 998,6 hPa 0,0 l/m² 18,2 km/h (3 Bft) S 184 ° 0 min 0 W/m² 3,3 °C -2,0 °C 24,1 km/h (4 Bft)
29.01.2025 04:00 21,1 °C 5,3 °C 49 % 87 % 998,7 hPa 0,0 l/m² 15,5 km/h (3 Bft) S 190 ° 0 min 0 W/m² 3,3 °C -0,8 °C 22,5 km/h (4 Bft)
29.01.2025 04:01 21,1 °C 5,3 °C 49 % 87 % 998,7 hPa 0,0 l/m² 14,7 km/h (3 Bft) S-SW 198 ° 0 min 0 W/m² 3,3 °C -0,4 °C 17,7 km/h (3 Bft)
29.01.2025 04:02 21,1 °C 5,3 °C 49 % 87 % 998,7 hPa 0,0 l/m² 17,2 km/h (3 Bft) S 181 ° 0 min 0 W/m² 3,3 °C -1,6 °C 20,9 km/h (4 Bft)
29.01.2025 04:03 21,1 °C 5,3 °C 49 % 87 % 998,8 hPa 0,0 l/m² 13,0 km/h (3 Bft) S 172 ° 0 min 0 W/m² 3,3 °C 0,5 °C 17,7 km/h (3 Bft)
29.01.2025 04:04 21,1 °C 5,3 °C 49 % 87 % 998,7 hPa 0,0 l/m² 15,0 km/h (3 Bft) S-SW 193 ° 0 min 0 W/m² 3,3 °C -0,6 °C 20,9 km/h (4 Bft)
29.01.2025 04:05 21,1 °C 5,3 °C 49 % 87 % 998,7 hPa 0,0 l/m² 15,0 km/h (3 Bft) S 188 ° 0 min 0 W/m² 3,3 °C -0,6 °C 19,3 km/h (3 Bft)
29.01.2025 04:07 21,1 °C 5,3 °C 49 % 87 % 998,8 hPa 0,0 l/m² 13,2 km/h (3 Bft) S 189 ° 0 min 0 W/m² 3,3 °C 0,4 °C 17,7 km/h (3 Bft)
29.01.2025 04:09 21,1 °C 5,4 °C 49 % 87 % 998,7 hPa 0,0 l/m² 10,5 km/h (2 Bft) S 171 ° 0 min 0 W/m² 3,4 °C 2,2 °C 14,5 km/h (3 Bft)
29.01.2025 04:10 21,1 °C 5,4 °C 49 % 87 % 998,7 hPa 0,0 l/m² 11,9 km/h (2 Bft) S 173 ° 0 min 0 W/m² 3,4 °C 1,3 °C 16,1 km/h (3 Bft)
29.01.2025 04:12 21,1 °C 5,4 °C 49 % 87 % 998,7 hPa 0,0 l/m² 12,9 km/h (3 Bft) S 174 ° 0 min 0 W/m² 3,4 °C 0,7 °C 17,7 km/h (3 Bft)
29.01.2025 04:13 21,1 °C 5,4 °C 49 % 87 % 998,7 hPa 0,0 l/m² 10,9 km/h (2 Bft) S 173 ° 0 min 0 W/m² 3,4 °C 1,9 °C 12,9 km/h (3 Bft)
29.01.2025 04:15 21,1 °C 5,5 °C 49 % 87 % 998,6 hPa 0,0 l/m² 13,7 km/h (3 Bft) S-SO 162 ° 0 min 0 W/m² 3,5 °C 0,4 °C 24,1 km/h (4 Bft)
29.01.2025 04:17 21,1 °C 5,5 °C 49 % 87 % 998,7 hPa 0,0 l/m² 15,4 km/h (3 Bft) S 177 ° 0 min 0 W/m² 3,5 °C -0,5 °C 22,5 km/h (4 Bft)
29.01.2025 04:19 21,1 °C 5,6 °C 49 % 87 % 998,6 hPa 0,0 l/m² 14,1 km/h (3 Bft) S-SW 192 ° 0 min 0 W/m² 3,6 °C 0,3 °C 22,5 km/h (4 Bft)
29.01.2025 04:20 21,1 °C 5,6 °C 49 % 87 % 998,7 hPa 0,0 l/m² 14,2 km/h (3 Bft) S 169 ° 0 min 0 W/m² 3,6 °C 0,2 °C 19,3 km/h (3 Bft)
29.01.2025 04:22 21,1 °C 5,6 °C 49 % 86 % 998,7 hPa 0,0 l/m² 12,1 km/h (2 Bft) S 170 ° 0 min 0 W/m² 3,4 °C 1,4 °C 16,1 km/h (3 Bft)
29.01.2025 04:24 21,1 °C 5,6 °C 49 % 86 % 998,7 hPa 0,0 l/m² 11,7 km/h (2 Bft) S 173 ° 0 min 0 W/m² 3,4 °C 1,6 °C 17,7 km/h (3 Bft)
29.01.2025 04:26 21,1 °C 5,6 °C 49 % 86 % 998,6 hPa 0,0 l/m² 12,6 km/h (3 Bft) S 180 ° 0 min 0 W/m² 3,4 °C 1,1 °C 17,7 km/h (3 Bft)
29.01.2025 04:28 21,1 °C 5,6 °C 49 % 86 % 998,7 hPa 0,0 l/m² 11,2 km/h (2 Bft) S 184 ° 0 min 0 W/m² 3,4 °C 1,9 °C 16,1 km/h (3 Bft)
29.01.2025 04:30 21,1 °C 5,5 °C 49 % 86 % 998,7 hPa 0,0 l/m² 11,4 km/h (2 Bft) S 175 ° 0 min 0 W/m² 3,3 °C 1,7 °C 16,1 km/h (3 Bft)
29.01.2025 04:31 21,1 °C 5,5 °C 49 % 86 % 998,7 hPa 0,0 l/m² 12,5 km/h (2 Bft) S 178 ° 0 min 0 W/m² 3,3 °C 1,0 °C 17,7 km/h (3 Bft)
29.01.2025 04:32 21,1 °C 5,5 °C 49 % 86 % 998,6 hPa 0,0 l/m² 11,5 km/h (2 Bft) S 184 ° 0 min 0 W/m² 3,3 °C 1,6 °C 17,7 km/h (3 Bft)
29.01.2025 04:33 21,1 °C 5,5 °C 49 % 86 % 998,6 hPa 0,0 l/m² 12,0 km/h (2 Bft) S 173 ° 0 min 0 W/m² 3,3 °C 1,3 °C 16,1 km/h (3 Bft)
29.01.2025 04:35 21,1 °C 5,5 °C 49 % 86 % 998,6 hPa 0,0 l/m² 10,9 km/h (2 Bft) S-SO 155 ° 0 min 0 W/m² 3,3 °C 2,0 °C 16,1 km/h (3 Bft)
29.01.2025 04:37 21,1 °C 5,5 °C 49 % 86 % 998,6 hPa 0,0 l/m² 12,3 km/h (2 Bft) S 180 ° 0 min 0 W/m² 3,3 °C 1,2 °C 16,1 km/h (3 Bft)
29.01.2025 04:39 21,1 °C 5,5 °C 49 % 86 % 998,8 hPa 0,0 l/m² 14,3 km/h (3 Bft) S 180 ° 0 min 0 W/m² 3,3 °C 0,0 °C 22,5 km/h (4 Bft)
29.01.2025 04:40 21,1 °C 5,5 °C 49 % 86 % 998,7 hPa 0,0 l/m² 11,8 km/h (2 Bft) S 174 ° 0 min 0 W/m² 3,3 °C 1,5 °C 16,1 km/h (3 Bft)
29.01.2025 04:41 21,1 °C 5,5 °C 49 % 86 % 998,7 hPa 0,0 l/m² 10,0 km/h (2 Bft) S 170 ° 0 min 0 W/m² 3,3 °C 2,6 °C 14,5 km/h (3 Bft)
29.01.2025 04:42 21,1 °C 5,5 °C 49 % 86 % 998,7 hPa 0,0 l/m² 9,7 km/h (2 Bft) S 171 ° 0 min 0 W/m² 3,3 °C 2,8 °C 12,9 km/h (3 Bft)
29.01.2025 04:44 21,1 °C 5,6 °C 49 % 86 % 998,8 hPa 0,0 l/m² 11,7 km/h (2 Bft) S 171 ° 0 min 0 W/m² 3,4 °C 1,6 °C 19,3 km/h (3 Bft)
29.01.2025 04:46 21,1 °C 5,6 °C 49 % 86 % 998,8 hPa 0,0 l/m² 12,1 km/h (2 Bft) S-SO 167 ° 0 min 0 W/m² 3,4 °C 1,4 °C 20,9 km/h (4 Bft)
29.01.2025 04:48 21,1 °C 5,6 °C 49 % 86 % 998,9 hPa 0,0 l/m² 13,4 km/h (3 Bft) S 171 ° 0 min 0 W/m² 3,4 °C 0,6 °C 19,3 km/h (3 Bft)
29.01.2025 04:50 21,1 °C 5,6 °C 49 % 86 % 998,8 hPa 0,0 l/m² 11,9 km/h (2 Bft) S 184 ° 0 min 0 W/m² 3,4 °C 1,5 °C 17,7 km/h (3 Bft)
29.01.2025 04:51 21,1 °C 5,6 °C 49 % 86 % 998,8 hPa 0,0 l/m² 11,5 km/h (2 Bft) S 175 ° 0 min 0 W/m² 3,4 °C 1,8 °C 17,7 km/h (3 Bft)
29.01.2025 04:52 21,1 °C 5,6 °C 49 % 86 % 998,8 hPa 0,0 l/m² 12,7 km/h (3 Bft) S 182 ° 0 min 0 W/m² 3,4 °C 1,0 °C 16,1 km/h (3 Bft)
29.01.2025 04:53 21,1 °C 5,6 °C 49 % 86 % 998,9 hPa 0,0 l/m² 10,2 km/h (2 Bft) S-SO 166 ° 0 min 0 W/m² 3,4 °C 2,6 °C 14,5 km/h (3 Bft)
29.01.2025 04:55 21,1 °C 5,7 °C 49 % 86 % 998,9 hPa 0,0 l/m² 10,3 km/h (2 Bft) S-SO 167 ° 0 min 0 W/m² 3,5 °C 2,6 °C 16,1 km/h (3 Bft)
29.01.2025 04:57 21,1 °C 5,7 °C 49 % 85 % 998,8 hPa 0,0 l/m² 9,3 km/h (2 Bft) S-SW 198 ° 0 min 0 W/m² 3,4 °C 3,3 °C 16,1 km/h (3 Bft)
29.01.2025 04:59 21,1 °C 5,7 °C 49 % 85 % 998,8 hPa 0,0 l/m² 13,9 km/h (3 Bft) S 180 ° 0 min 0 W/m² 3,4 °C 0,5 °C 19,3 km/h (3 Bft)
29.01.2025 05:01 21,1 °C 5,6 °C 49 % 86 % 998,9 hPa 0,0 l/m² 14,7 km/h (3 Bft) S 169 ° 0 min 0 W/m² 3,4 °C -0,0 °C 22,5 km/h (4 Bft)
29.01.2025 05:02 21,1 °C 5,6 °C 49 % 86 % 998,9 hPa 0,0 l/m² 13,4 km/h (3 Bft) S-SO 162 ° 0 min 0 W/m² 3,4 °C 0,6 °C 20,9 km/h (4 Bft)
29.01.2025 05:04 21,1 °C 5,6 °C 49 % 85 % 998,9 hPa 0,0 l/m² 9,7 km/h (2 Bft) S-SO 147 ° 0 min 0 W/m² 3,3 °C 2,9 °C 14,5 km/h (3 Bft)
29.01.2025 05:06 21,1 °C 5,6 °C 49 % 85 % 998,9 hPa 0,0 l/m² 8,4 km/h (2 Bft) S-SO 149 ° 0 min 0 W/m² 3,3 °C 3,9 °C 14,5 km/h (3 Bft)
29.01.2025 05:08 21,1 °C 5,6 °C 49 % 85 % 998,9 hPa 0,0 l/m² 11,5 km/h (2 Bft) S-SO 161 ° 0 min 0 W/m² 3,3 °C 1,8 °C 19,3 km/h (3 Bft)
29.01.2025 05:10 21,1 °C 5,6 °C 49 % 85 % 999,0 hPa 0,0 l/m² 15,6 km/h (3 Bft) S 176 ° 0 min 0 W/m² 3,3 °C -0,5 °C 24,1 km/h (4 Bft)
29.01.2025 05:11 21,1 °C 5,6 °C 49 % 85 % 998,9 hPa 0,0 l/m² 17,0 km/h (3 Bft) S 169 ° 0 min 0 W/m² 3,3 °C -1,1 °C 24,1 km/h (4 Bft)
29.01.2025 05:12 21,1 °C 5,6 °C 49 % 85 % 998,9 hPa 0,0 l/m² 18,0 km/h (3 Bft) S-SO 167 ° 0 min 0 W/m² 3,3 °C -1,6 °C 22,5 km/h (4 Bft)
29.01.2025 05:13 21,1 °C 5,6 °C 49 % 85 % 999,0 hPa 0,0 l/m² 15,1 km/h (3 Bft) S 176 ° 0 min 0 W/m² 3,3 °C -0,2 °C 20,9 km/h (4 Bft)
29.01.2025 05:15 21,1 °C 5,6 °C 49 % 85 % 998,9 hPa 0,0 l/m² 14,0 km/h (3 Bft) S-SO 165 ° 0 min 0 W/m² 3,3 °C 0,3 °C 22,5 km/h (4 Bft)
29.01.2025 05:17 21,1 °C 5,6 °C 49 % 85 % 998,9 hPa 0,0 l/m² 8,9 km/h (2 Bft) S 173 ° 0 min 0 W/m² 3,3 °C 3,5 °C 11,3 km/h (2 Bft)
29.01.2025 05:19 21,1 °C 5,6 °C 49 % 85 % 998,9 hPa 0,0 l/m² 10,1 km/h (2 Bft) S-SO 153 ° 0 min 0 W/m² 3,3 °C 2,7 °C 16,1 km/h (3 Bft)
29.01.2025 05:21 21,1 °C 5,6 °C 49 % 85 % 999,0 hPa 0,0 l/m² 11,9 km/h (2 Bft) S-SO 162 ° 0 min 0 W/m² 3,3 °C 1,5 °C 16,1 km/h (3 Bft)
29.01.2025 05:22 21,1 °C 5,6 °C 49 % 85 % 999,0 hPa 0,0 l/m² 10,8 km/h (2 Bft) S-SO 154 ° 0 min 0 W/m² 3,3 °C 2,2 °C 14,5 km/h (3 Bft)
29.01.2025 05:23 21,1 °C 5,5 °C 49 % 85 % 999,0 hPa 0,0 l/m² 9,7 km/h (2 Bft) SO 137 ° 0 min 0 W/m² 3,2 °C 2,8 °C 12,9 km/h (3 Bft)
29.01.2025 05:24 21,1 °C 5,6 °C 49 % 85 % 999,0 hPa 0,0 l/m² 10,0 km/h (2 Bft) S 171 ° 0 min 0 W/m² 3,3 °C 2,7 °C 14,5 km/h (3 Bft)
29.01.2025 05:26 21,1 °C 5,5 °C 49 % 85 % 999,1 hPa 0,0 l/m² 9,9 km/h (2 Bft) S-SO 161 ° 0 min 0 W/m² 3,2 °C 2,7 °C 14,5 km/h (3 Bft)
29.01.2025 05:28 21,1 °C 5,5 °C 49 % 85 % 999,1 hPa 0,0 l/m² 10,6 km/h (2 Bft) S-SO 159 ° 0 min 0 W/m² 3,2 °C 2,2 °C 16,1 km/h (3 Bft)
29.01.2025 05:30 21,1 °C 5,6 °C 49 % 86 % 999,0 hPa 0,0 l/m² 9,7 km/h (2 Bft) S-SO 157 ° 0 min 0 W/m² 3,4 °C 2,9 °C 12,9 km/h (3 Bft)
29.01.2025 05:31 21,1 °C 5,6 °C 49 % 86 % 999,0 hPa 0,0 l/m² 9,4 km/h (2 Bft) S-SO 151 ° 0 min 0 W/m² 3,4 °C 3,2 °C 12,9 km/h (3 Bft)
29.01.2025 05:32 21,1 °C 5,6 °C 49 % 86 % 999,0 hPa 0,0 l/m² 11,3 km/h (2 Bft) S-SO 152 ° 0 min 0 W/m² 3,4 °C 1,9 °C 14,5 km/h (3 Bft)
29.01.2025 05:33 21,1 °C 5,6 °C 49 % 86 % 999,0 hPa 0,0 l/m² 11,7 km/h (2 Bft) S-SO 166 ° 0 min 0 W/m² 3,4 °C 1,6 °C 16,1 km/h (3 Bft)
29.01.2025 05:35 21,1 °C 5,6 °C 49 % 86 % 999,0 hPa 0,0 l/m² 10,7 km/h (2 Bft) S-SO 160 ° 0 min 0 W/m² 3,4 °C 2,3 °C 14,5 km/h (3 Bft)
29.01.2025 05:37 21,1 °C 5,6 °C 49 % 86 % 999,0 hPa 0,0 l/m² 9,9 km/h (2 Bft) S-SO 163 ° 0 min 0 W/m² 3,4 °C 2,8 °C 14,5 km/h (3 Bft)
29.01.2025 05:39 21,1 °C 5,6 °C 49 % 86 % 999,0 hPa 0,0 l/m² 10,2 km/h (2 Bft) S-SO 150 ° 0 min 0 W/m² 3,4 °C 2,6 °C 16,1 km/h (3 Bft)
29.01.2025 05:41 21,1 °C 5,6 °C 49 % 86 % 999,0 hPa 0,0 l/m² 10,5 km/h (2 Bft) SO 138 ° 0 min 0 W/m² 3,4 °C 2,4 °C 14,5 km/h (3 Bft)
29.01.2025 05:42 21,1 °C 5,6 °C 49 % 86 % 999,0 hPa 0,0 l/m² 9,5 km/h (2 Bft) S-SO 147 ° 0 min 0 W/m² 3,4 °C 3,1 °C 12,9 km/h (3 Bft)
29.01.2025 05:43 21,1 °C 5,6 °C 49 % 86 % 999,0 hPa 0,0 l/m² 9,4 km/h (2 Bft) SO 144 ° 0 min 0 W/m² 3,4 °C 3,2 °C 12,9 km/h (3 Bft)
29.01.2025 05:44 21,1 °C 5,6 °C 49 % 86 % 999,1 hPa 0,0 l/m² 8,4 km/h (2 Bft) SO 127 ° 0 min 0 W/m² 3,4 °C 3,9 °C 11,3 km/h (2 Bft)
29.01.2025 05:46 21,1 °C 5,6 °C 49 % 86 % 999,1 hPa 0,0 l/m² 7,5 km/h (2 Bft) SO 134 ° 0 min 0 W/m² 3,4 °C 4,6 °C 12,9 km/h (3 Bft)
29.01.2025 05:48 21,1 °C 5,6 °C 49 % 86 % 999,1 hPa 0,0 l/m² 7,2 km/h (2 Bft) SO 130 ° 0 min 0 W/m² 3,4 °C 4,9 °C 12,9 km/h (3 Bft)
29.01.2025 05:50 21,1 °C 5,6 °C 49 % 86 % 999,1 hPa 0,0 l/m² 7,9 km/h (2 Bft) SO 130 ° 0 min 0 W/m² 3,4 °C 4,3 °C 12,9 km/h (3 Bft)
29.01.2025 05:51 21,1 °C 5,6 °C 49 % 86 % 999,0 hPa 0,0 l/m² 9,4 km/h (2 Bft) O-SO 120 ° 0 min 0 W/m² 3,4 °C 3,2 °C 12,9 km/h (3 Bft)
29.01.2025 05:52 21,1 °C 5,6 °C 49 % 86 % 999,0 hPa 0,0 l/m² 9,5 km/h (2 Bft) SO 134 ° 0 min 0 W/m² 3,4 °C 3,1 °C 12,9 km/h (3 Bft)
29.01.2025 05:53 21,1 °C 5,6 °C 49 % 86 % 999,0 hPa 0,0 l/m² 10,3 km/h (2 Bft) SO 131 ° 0 min 0 W/m² 3,4 °C 2,5 °C 11,3 km/h (2 Bft)
29.01.2025 05:55 21,1 °C 5,6 °C 49 % 86 % 999,0 hPa 0,0 l/m² 9,8 km/h (2 Bft) SO 130 ° 0 min 0 W/m² 3,4 °C 2,9 °C 14,5 km/h (3 Bft)
29.01.2025 05:57 21,1 °C 5,6 °C 49 % 86 % 999,0 hPa 0,0 l/m² 8,9 km/h (2 Bft) SO 124 ° 0 min 0 W/m² 3,4 °C 3,5 °C 14,5 km/h (3 Bft)
29.01.2025 05:59 21,1 °C 5,6 °C 49 % 86 % 999,0 hPa 0,0 l/m² 10,0 km/h (2 Bft) O-SO 118 ° 0 min 0 W/m² 3,4 °C 2,7 °C 12,9 km/h (3 Bft)
29.01.2025 06:01 21,1 °C 5,6 °C 49 % 86 % 999,0 hPa 0,0 l/m² 10,2 km/h (2 Bft) SO 127 ° 0 min 0 W/m² 3,4 °C 2,6 °C 14,5 km/h (3 Bft)
29.01.2025 06:02 21,1 °C 5,6 °C 49 % 86 % 999,1 hPa 0,0 l/m² 9,2 km/h (2 Bft) O-SO 116 ° 0 min 0 W/m² 3,4 °C 3,3 °C 12,9 km/h (3 Bft)
29.01.2025 06:03 21,1 °C 5,6 °C 49 % 86 % 999,1 hPa 0,0 l/m² 7,6 km/h (2 Bft) O-SO 115 ° 0 min 0 W/m² 3,4 °C 4,6 °C 11,3 km/h (2 Bft)
29.01.2025 06:04 21,1 °C 5,6 °C 49 % 86 % 999,1 hPa 0,0 l/m² 7,4 km/h (2 Bft) S-SO 147 ° 0 min 0 W/m² 3,4 °C 4,7 °C 11,3 km/h (2 Bft)
29.01.2025 06:06 21,1 °C 5,6 °C 49 % 86 % 999,0 hPa 0,0 l/m² 9,6 km/h (2 Bft) O-SO 122 ° 0 min 0 W/m² 3,4 °C 3,0 °C 14,5 km/h (3 Bft)
29.01.2025 06:08 21,1 °C 5,6 °C 49 % 86 % 999,1 hPa 0,0 l/m² 8,6 km/h (2 Bft) SO 126 ° 0 min 0 W/m² 3,4 °C 3,8 °C 12,9 km/h (3 Bft)
29.01.2025 06:10 21,1 °C 5,6 °C 49 % 86 % 999,0 hPa 0,0 l/m² 11,9 km/h (2 Bft) O-SO 123 ° 0 min 0 W/m² 3,4 °C 1,5 °C 17,7 km/h (3 Bft)
29.01.2025 06:11 21,1 °C 5,7 °C 49 % 86 % 999,1 hPa 0,0 l/m² 9,4 km/h (2 Bft) SO 129 ° 0 min 0 W/m² 3,5 °C 3,3 °C 14,5 km/h (3 Bft)
29.01.2025 06:12 21,1 °C 5,7 °C 49 % 86 % 999,0 hPa 0,0 l/m² 10,6 km/h (2 Bft) O-SO 117 ° 0 min 0 W/m² 3,5 °C 2,4 °C 14,5 km/h (3 Bft)
29.01.2025 06:13 21,1 °C 5,7 °C 49 % 86 % 999,0 hPa 0,0 l/m² 6,9 km/h (2 Bft) O-SO 117 ° 0 min 0 W/m² 3,5 °C 5,3 °C 12,9 km/h (3 Bft)
29.01.2025 06:15 21,1 °C 5,7 °C 49 % 86 % 999,0 hPa 0,0 l/m² 8,9 km/h (2 Bft) O-SO 123 ° 0 min 0 W/m² 3,5 °C 3,6 °C 14,5 km/h (3 Bft)
29.01.2025 06:17 21,1 °C 5,7 °C 49 % 86 % 999,0 hPa 0,0 l/m² 8,6 km/h (2 Bft) O-SO 111 ° 0 min 0 W/m² 3,5 °C 3,9 °C 12,9 km/h (3 Bft)
29.01.2025 06:19 21,1 °C 5,7 °C 49 % 86 % 999,0 hPa 0,0 l/m² 5,4 km/h (2 Bft) O-SO 105 ° 0 min 0 W/m² 3,5 °C 5,7 °C 9,7 km/h (2 Bft)
29.01.2025 06:20 21,1 °C 5,7 °C 49 % 86 % 999,0 hPa 0,0 l/m² 3,5 km/h (1 Bft) O-SO 106 ° 0 min 0 W/m² 3,5 °C 5,7 °C 4,8 km/h (1 Bft)
29.01.2025 06:21 21,1 °C 5,7 °C 49 % 86 % 998,9 hPa 0,0 l/m² 4,7 km/h (1 Bft) O 101 ° 0 min 0 W/m² 3,5 °C 5,7 °C 6,4 km/h (2 Bft)
29.01.2025 06:22 21,1 °C 5,7 °C 49 % 86 % 998,9 hPa 0,0 l/m² 5,9 km/h (2 Bft) O-SO 104 ° 0 min 0 W/m² 3,5 °C 5,7 °C 9,7 km/h (2 Bft)
29.01.2025 06:24 21,1 °C 5,7 °C 49 % 86 % 999,0 hPa 0,0 l/m² 5,1 km/h (1 Bft) O 94 ° 0 min 0 W/m² 3,5 °C 5,7 °C 6,4 km/h (2 Bft)
29.01.2025 06:26 21,1 °C 5,7 °C 49 % 86 % 999,1 hPa 0,0 l/m² 5,2 km/h (1 Bft) O 89 ° 0 min 0 W/m² 3,5 °C 5,7 °C 8,0 km/h (2 Bft)
29.01.2025 06:28 21,1 °C 5,7 °C 49 % 86 % 999,1 hPa 0,0 l/m² 4,1 km/h (1 Bft) O 85 ° 0 min 0 W/m² 3,5 °C 5,7 °C 6,4 km/h (2 Bft)
29.01.2025 06:30 21,1 °C 5,7 °C 49 % 86 % 999,2 hPa 0,0 l/m² 3,5 km/h (1 Bft) O 88 ° 0 min 0 W/m² 3,5 °C 5,7 °C 6,4 km/h (2 Bft)
29.01.2025 06:31 21,1 °C 5,7 °C 49 % 86 % 999,2 hPa 0,0 l/m² 4,4 km/h (1 Bft) O 88 ° 0 min 0 W/m² 3,5 °C 5,7 °C 6,4 km/h (2 Bft)
29.01.2025 06:32 21,1 °C 5,7 °C 49 % 86 % 999,2 hPa 0,0 l/m² 2,1 km/h (1 Bft) O 88 ° 0 min 0 W/m² 3,5 °C 5,7 °C 4,8 km/h (1 Bft)
29.01.2025 06:33 21,0 °C 5,7 °C 49 % 86 % 999,2 hPa 0,0 l/m² 2,9 km/h (1 Bft) O 87 ° 0 min 0 W/m² 3,5 °C 5,7 °C 4,8 km/h (1 Bft)
29.01.2025 06:35 21,1 °C 5,7 °C 49 % 86 % 999,3 hPa 0,0 l/m² 0,9 km/h (0 Bft) O 87 ° 0 min 0 W/m² 3,5 °C 5,7 °C 3,2 km/h (1 Bft)
29.01.2025 06:37 21,1 °C 5,7 °C 49 % 86 % 999,3 hPa 0,0 l/m² 0,5 km/h (0 Bft) O 87 ° 0 min 0 W/m² 3,5 °C 5,7 °C 3,2 km/h (1 Bft)
29.01.2025 06:39 21,0 °C 5,7 °C 49 % 86 % 999,2 hPa 0,0 l/m² 2,3 km/h (1 Bft) O 87 ° 0 min 0 W/m² 3,5 °C 5,7 °C 4,8 km/h (1 Bft)
29.01.2025 06:41 21,0 °C 5,7 °C 49 % 86 % 999,3 hPa 0,0 l/m² 2,6 km/h (1 Bft) O 87 ° 0 min 0 W/m² 3,5 °C 5,7 °C 4,8 km/h (1 Bft)
29.01.2025 06:42 21,0 °C 5,7 °C 49 % 86 % 999,2 hPa 0,0 l/m² 3,9 km/h (1 Bft) O-NO 71 ° 0 min 0 W/m² 3,5 °C 5,7 °C 6,4 km/h (2 Bft)
29.01.2025 06:43 21,0 °C 5,7 °C 49 % 86 % 999,2 hPa 0,0 l/m² 4,0 km/h (1 Bft) NO 53 ° 0 min 0 W/m² 3,5 °C 5,7 °C 4,8 km/h (1 Bft)
29.01.2025 06:44 21,0 °C 5,7 °C 49 % 86 % 999,3 hPa 0,0 l/m² 4,1 km/h (1 Bft) NO 48 ° 0 min 0 W/m² 3,5 °C 5,7 °C 4,8 km/h (1 Bft)
29.01.2025 06:46 21,1 °C 5,7 °C 49 % 86 % 999,3 hPa 0,0 l/m² 4,2 km/h (1 Bft) NO 40 ° 0 min 0 W/m² 3,5 °C 5,7 °C 6,4 km/h (2 Bft)
29.01.2025 06:48 21,0 °C 5,7 °C 49 % 86 % 999,3 hPa 0,0 l/m² 3,5 km/h (1 Bft) NO 42 ° 0 min 0 W/m² 3,5 °C 5,7 °C 6,4 km/h (2 Bft)
29.01.2025 06:50 21,0 °C 5,7 °C 49 % 86 % 999,4 hPa 0,0 l/m² 5,0 km/h (1 Bft) NO 53 ° 0 min 0 W/m² 3,5 °C 5,7 °C 8,0 km/h (2 Bft)
29.01.2025 06:51 21,0 °C 5,7 °C 49 % 86 % 999,5 hPa 0,0 l/m² 2,2 km/h (1 Bft) NO 51 ° 0 min 0 W/m² 3,5 °C 5,7 °C 3,2 km/h (1 Bft)
29.01.2025 06:52 21,0 °C 5,7 °C 49 % 86 % 999,5 hPa 0,0 l/m² 3,5 km/h (1 Bft) NO 46 ° 0 min 0 W/m² 3,5 °C 5,7 °C 6,4 km/h (2 Bft)
29.01.2025 06:53 21,0 °C 5,7 °C 49 % 86 % 999,4 hPa 0,0 l/m² 6,0 km/h (2 Bft) NO 55 ° 0 min 0 W/m² 3,5 °C 5,7 °C 9,7 km/h (2 Bft)
29.01.2025 06:55 21,0 °C 5,7 °C 49 % 86 % 999,6 hPa 0,0 l/m² 6,2 km/h (2 Bft) NO 53 ° 0 min 0 W/m² 3,5 °C 5,7 °C 9,7 km/h (2 Bft)
29.01.2025 06:57 21,0 °C 5,6 °C 49 % 86 % 999,6 hPa 0,0 l/m² 4,3 km/h (1 Bft) NO 51 ° 0 min 0 W/m² 3,4 °C 5,6 °C 6,4 km/h (2 Bft)
29.01.2025 06:59 21,0 °C 5,6 °C 49 % 86 % 999,5 hPa 0,0 l/m² 3,4 km/h (1 Bft) NO 46 ° 0 min 0 W/m² 3,4 °C 5,6 °C 6,4 km/h (2 Bft)
29.01.2025 07:01 21,0 °C 5,6 °C 49 % 86 % 999,7 hPa 0,0 l/m² 3,7 km/h (1 Bft) NO 40 ° 0 min 0 W/m² 3,4 °C 5,6 °C 6,4 km/h (2 Bft)
29.01.2025 07:02 21,0 °C 5,6 °C 49 % 86 % 999,6 hPa 0,0 l/m² 3,0 km/h (1 Bft) NO 38 ° 0 min 0 W/m² 3,4 °C 5,6 °C 6,4 km/h (2 Bft)
29.01.2025 07:03 21,0 °C 5,6 °C 49 % 86 % 999,6 hPa 0,0 l/m² 5,1 km/h (1 Bft) NO 41 ° 0 min 0 W/m² 3,4 °C 5,6 °C 8,0 km/h (2 Bft)
29.01.2025 07:04 21,0 °C 5,6 °C 49 % 86 % 999,6 hPa 0,0 l/m² 1,7 km/h (1 Bft) NO 41 ° 0 min 0 W/m² 3,4 °C 5,6 °C 3,2 km/h (1 Bft)
29.01.2025 07:06 21,0 °C 5,6 °C 49 % 86 % 999,6 hPa 0,0 l/m² 3,6 km/h (1 Bft) NO 42 ° 0 min 0 W/m² 3,4 °C 5,6 °C 6,4 km/h (2 Bft)
29.01.2025 07:08 21,0 °C 5,7 °C 49 % 87 % 999,6 hPa 0,0 l/m² 0,9 km/h (0 Bft) NO 42 ° 0 min 0 W/m² 3,7 °C 5,7 °C 3,2 km/h (1 Bft)
29.01.2025 07:10 21,0 °C 5,6 °C 49 % 87 % 999,6 hPa 0,0 l/m² 3,0 km/h (1 Bft) NO 44 ° 0 min 0 W/m² 3,6 °C 5,6 °C 4,8 km/h (1 Bft)
29.01.2025 07:11 21,0 °C 5,6 °C 49 % 87 % 999,6 hPa 0,0 l/m² 3,4 km/h (1 Bft) NO 48 ° 0 min 0 W/m² 3,6 °C 5,6 °C 4,8 km/h (1 Bft)
29.01.2025 07:12 21,0 °C 5,7 °C 49 % 87 % 999,6 hPa 0,0 l/m² 2,9 km/h (1 Bft) NO 48 ° 0 min 0 W/m² 3,7 °C 5,7 °C 3,2 km/h (1 Bft)
29.01.2025 07:13 21,0 °C 5,7 °C 49 % 87 % 999,6 hPa 0,0 l/m² 3,9 km/h (1 Bft) O-NO 57 ° 0 min 0 W/m² 3,7 °C 5,7 °C 6,4 km/h (2 Bft)
29.01.2025 07:15 21,0 °C 5,7 °C 49 % 87 % 999,6 hPa 0,0 l/m² 5,4 km/h (2 Bft) O 98 ° 0 min 0 W/m² 3,7 °C 5,7 °C 8,0 km/h (2 Bft)
29.01.2025 07:17 21,0 °C 5,7 °C 49 % 87 % 999,5 hPa 0,0 l/m² 6,2 km/h (2 Bft) O-SO 115 ° 0 min 0 W/m² 3,7 °C 5,7 °C 9,7 km/h (2 Bft)
29.01.2025 07:19 21,0 °C 5,7 °C 49 % 87 % 999,5 hPa 0,0 l/m² 4,5 km/h (1 Bft) O-SO 117 ° 0 min 0 W/m² 3,7 °C 5,7 °C 6,4 km/h (2 Bft)
29.01.2025 07:21 21,0 °C 5,7 °C 49 % 87 % 999,6 hPa 0,0 l/m² 5,1 km/h (1 Bft) O-SO 115 ° 0 min 0 W/m² 3,7 °C 5,7 °C 6,4 km/h (2 Bft)
29.01.2025 07:22 21,0 °C 5,7 °C 49 % 87 % 999,5 hPa 0,0 l/m² 6,4 km/h (2 Bft) O-SO 123 ° 0 min 0 W/m² 3,7 °C 5,7 °C 9,7 km/h (2 Bft)
29.01.2025 07:23 21,0 °C 5,7 °C 49 % 87 % 999,6 hPa 0,0 l/m² 4,1 km/h (1 Bft) SO 126 ° 0 min 0 W/m² 3,7 °C 5,7 °C 8,0 km/h (2 Bft)
29.01.2025 07:24 21,0 °C 5,7 °C 49 % 87 % 999,6 hPa 0,0 l/m² 6,0 km/h (2 Bft) SO 129 ° 0 min 0 W/m² 3,7 °C 5,7 °C 8,0 km/h (2 Bft)
29.01.2025 07:26 21,0 °C 5,7 °C 49 % 87 % 999,7 hPa 0,0 l/m² 6,3 km/h (2 Bft) SO 128 ° 0 min 0 W/m² 3,7 °C 5,7 °C 8,0 km/h (2 Bft)
29.01.2025 07:28 21,0 °C 5,7 °C 49 % 87 % 999,8 hPa 0,0 l/m² 6,3 km/h (2 Bft) SO 137 ° 0 min 0 W/m² 3,7 °C 5,7 °C 11,3 km/h (2 Bft)
29.01.2025 07:30 21,0 °C 5,7 °C 49 % 87 % 999,7 hPa 0,0 l/m² 5,6 km/h (2 Bft) SO 140 ° 0 min 0 W/m² 3,7 °C 5,7 °C 8,0 km/h (2 Bft)
29.01.2025 07:31 21,0 °C 5,8 °C 49 % 87 % 999,8 hPa 0,0 l/m² 7,3 km/h (2 Bft) S-SO 149 ° 0 min 0 W/m² 3,8 °C 5,0 °C 11,3 km/h (2 Bft)
29.01.2025 07:32 21,0 °C 5,8 °C 49 % 87 % 999,7 hPa 0,0 l/m² 5,9 km/h (2 Bft) S-SO 150 ° 0 min 0 W/m² 3,8 °C 5,8 °C 8,0 km/h (2 Bft)
29.01.2025 07:33 21,0 °C 5,8 °C 49 % 87 % 999,7 hPa 0,0 l/m² 7,0 km/h (2 Bft) S-SO 149 ° 0 min 0 W/m² 3,8 °C 5,3 °C 9,7 km/h (2 Bft)
29.01.2025 07:35 21,0 °C 5,8 °C 49 % 87 % 999,6 hPa 0,0 l/m² 9,5 km/h (2 Bft) S-SO 149 ° 0 min 0 W/m² 3,8 °C 3,3 °C 14,5 km/h (3 Bft)
29.01.2025 07:37 21,0 °C 5,8 °C 49 % 87 % 999,6 hPa 0,0 l/m² 12,7 km/h (3 Bft) S-SO 154 ° 0 min 0 W/m² 3,8 °C 1,3 °C 17,7 km/h (3 Bft)
29.01.2025 07:39 21,0 °C 5,9 °C 49 % 87 % 999,6 hPa 0,0 l/m² 12,0 km/h (2 Bft) S-SO 148 ° 0 min 0 W/m² 3,9 °C 1,8 °C 17,7 km/h (3 Bft)
29.01.2025 07:40 21,0 °C 5,9 °C 49 % 87 % 999,5 hPa 0,0 l/m² 11,2 km/h (2 Bft) S-SO 153 ° 0 min 0 W/m² 3,9 °C 2,3 °C 17,7 km/h (3 Bft)
29.01.2025 07:42 21,0 °C 5,9 °C 49 % 87 % 999,5 hPa 0,0 l/m² 10,0 km/h (2 Bft) SO 142 ° 0 min 0 W/m² 3,9 °C 3,1 °C 14,5 km/h (3 Bft)
29.01.2025 07:44 21,0 °C 5,9 °C 49 % 87 % 999,5 hPa 0,0 l/m² 11,4 km/h (2 Bft) S-SO 152 ° 0 min 0 W/m² 3,9 °C 2,2 °C 16,1 km/h (3 Bft)
29.01.2025 07:46 21,0 °C 6,1 °C 49 % 87 % 999,5 hPa 0,0 l/m² 11,1 km/h (2 Bft) S-SO 166 ° 0 min 0 W/m² 4,1 °C 2,6 °C 16,1 km/h (3 Bft)
29.01.2025 07:48 21,1 °C 6,1 °C 49 % 87 % 999,5 hPa 0,0 l/m² 11,0 km/h (2 Bft) S-SO 151 ° 0 min 0 W/m² 4,1 °C 2,6 °C 16,1 km/h (3 Bft)
29.01.2025 07:49 21,0 °C 6,1 °C 49 % 87 % 999,5 hPa 0,0 l/m² 12,1 km/h (2 Bft) SO 140 ° 0 min 0 W/m² 4,1 °C 2,0 °C 16,1 km/h (3 Bft)
29.01.2025 07:50 21,0 °C 6,1 °C 49 % 87 % 999,5 hPa 0,0 l/m² 11,1 km/h (2 Bft) SO 139 ° 0 min 0 W/m² 4,1 °C 2,6 °C 14,5 km/h (3 Bft)
29.01.2025 07:52 21,0 °C 6,2 °C 49 % 87 % 999,6 hPa 0,0 l/m² 10,7 km/h (2 Bft) SO 146 ° 0 min 0 W/m² 4,2 °C 2,9 °C 14,5 km/h (3 Bft)
29.01.2025 07:54 21,0 °C 6,2 °C 49 % 86 % 999,6 hPa 0,0 l/m² 11,2 km/h (2 Bft) SO 144 ° 0 min 5 W/m² 4,0 °C 2,6 °C 16,1 km/h (3 Bft)
29.01.2025 07:56 21,1 °C 6,2 °C 49 % 86 % 999,6 hPa 0,0 l/m² 11,5 km/h (2 Bft) SO 134 ° 0 min 7 W/m² 4,0 °C 2,4 °C 16,1 km/h (3 Bft)
29.01.2025 07:58 21,0 °C 6,2 °C 49 % 86 % 999,6 hPa 0,0 l/m² 11,7 km/h (2 Bft) S-SO 148 ° 0 min 7 W/m² 4,0 °C 2,3 °C 14,5 km/h (3 Bft)
29.01.2025 08:00 21,0 °C 6,2 °C 49 % 86 % 999,6 hPa 0,0 l/m² 11,5 km/h (2 Bft) S-SO 148 ° 0 min 9 W/m² 4,0 °C 2,4 °C 14,5 km/h (3 Bft)
29.01.2025 08:01 21,1 °C 6,2 °C 49 % 86 % 999,7 hPa 0,0 l/m² 11,6 km/h (2 Bft) S-SO 155 ° 0 min 11 W/m² 4,0 °C 2,4 °C 14,5 km/h (3 Bft)
29.01.2025 08:02 21,1 °C 6,2 °C 49 % 86 % 999,7 hPa 0,0 l/m² 11,0 km/h (2 Bft) S 171 ° 0 min 12 W/m² 4,0 °C 2,7 °C 14,5 km/h (3 Bft)
29.01.2025 08:03 21,1 °C 6,2 °C 49 % 86 % 999,7 hPa 0,0 l/m² 9,5 km/h (2 Bft) S 174 ° 0 min 14 W/m² 4,0 °C 3,7 °C 11,3 km/h (2 Bft)
29.01.2025 08:04 21,1 °C 6,2 °C 49 % 86 % 999,7 hPa 0,0 l/m² 8,9 km/h (2 Bft) S-SO 158 ° 0 min 14 W/m² 4,0 °C 4,2 °C 11,3 km/h (2 Bft)
29.01.2025 08:06 21,1 °C 6,2 °C 49 % 86 % 999,8 hPa 0,0 l/m² 11,0 km/h (2 Bft) S 178 ° 0 min 11 W/m² 4,0 °C 2,7 °C 14,5 km/h (3 Bft)
29.01.2025 08:08 21,1 °C 6,2 °C 49 % 86 % 999,8 hPa 0,0 l/m² 13,7 km/h (3 Bft) S 171 ° 0 min 11 W/m² 4,0 °C 1,2 °C 17,7 km/h (3 Bft)
29.01.2025 08:10 21,1 °C 6,2 °C 49 % 86 % 999,9 hPa 0,2 l/m² 12,5 km/h (2 Bft) S 175 ° 0 min 11 W/m² 4,0 °C 1,8 °C 17,7 km/h (3 Bft)
29.01.2025 08:11 21,1 °C 6,2 °C 49 % 86 % 999,8 hPa 0,0 l/m² 13,5 km/h (3 Bft) S 169 ° 0 min 11 W/m² 4,0 °C 1,3 °C 19,3 km/h (3 Bft)
29.01.2025 08:12 21,1 °C 6,2 °C 49 % 86 % 999,8 hPa 0,0 l/m² 16,0 km/h (3 Bft) S 173 ° 0 min 12 W/m² 4,0 °C 0,1 °C 20,9 km/h (4 Bft)
29.01.2025 08:13 21,1 °C 6,2 °C 49 % 86 % 999,9 hPa 0,0 l/m² 15,1 km/h (3 Bft) S 175 ° 0 min 12 W/m² 4,0 °C 0,5 °C 19,3 km/h (3 Bft)
29.01.2025 08:15 21,1 °C 6,2 °C 49 % 87 % 999,9 hPa 0,0 l/m² 15,3 km/h (3 Bft) S-SO 159 ° 0 min 14 W/m² 4,2 °C 0,4 °C 22,5 km/h (4 Bft)
29.01.2025 08:17 21,1 °C 6,2 °C 49 % 87 % 999,9 hPa 0,0 l/m² 13,0 km/h (3 Bft) S 175 ° 0 min 18 W/m² 4,2 °C 1,6 °C 20,9 km/h (4 Bft)
29.01.2025 08:19 21,1 °C 6,2 °C 49 % 87 % 999,9 hPa 0,0 l/m² 16,1 km/h (3 Bft) S-SO 161 ° 0 min 19 W/m² 4,2 °C 0,0 °C 24,1 km/h (4 Bft)
29.01.2025 08:20 21,1 °C 6,3 °C 49 % 87 % 1000,0 hPa 0,0 l/m² 16,5 km/h (3 Bft) S 176 ° 0 min 19 W/m² 4,3 °C -0,1 °C 24,1 km/h (4 Bft)
29.01.2025 08:22 21,1 °C 6,3 °C 49 % 87 % 999,9 hPa 0,0 l/m² 16,8 km/h (3 Bft) S 181 ° 0 min 21 W/m² 4,3 °C -0,2 °C 20,9 km/h (4 Bft)
29.01.2025 08:24 21,1 °C 6,3 °C 49 % 87 % 999,9 hPa 0,0 l/m² 16,0 km/h (3 Bft) S 177 ° 0 min 21 W/m² 4,3 °C 0,2 °C 22,5 km/h (4 Bft)
29.01.2025 08:26 21,1 °C 6,4 °C 49 % 87 % 1000,0 hPa 0,0 l/m² 17,3 km/h (3 Bft) S 174 ° 0 min 25 W/m² 4,4 °C -0,3 °C 24,1 km/h (4 Bft)
29.01.2025 08:28 21,1 °C 6,4 °C 49 % 87 % 1000,1 hPa 0,0 l/m² 17,7 km/h (3 Bft) S-SW 207 ° 0 min 26 W/m² 4,4 °C -0,4 °C 27,4 km/h (5 Bft)
29.01.2025 08:30 21,1 °C 6,5 °C 49 % 87 % 1000,0 hPa 0,0 l/m² 17,9 km/h (3 Bft) S-SW 195 ° 0 min 28 W/m² 4,5 °C -0,4 °C 27,4 km/h (5 Bft)
29.01.2025 08:31 21,1 °C 6,5 °C 49 % 87 % 1000,0 hPa 0,0 l/m² 24,6 km/h (4 Bft) S 182 ° 0 min 32 W/m² 4,5 °C -2,8 °C 29,0 km/h (5 Bft)
29.01.2025 08:33 21,1 °C 6,6 °C 49 % 87 % 1000,1 hPa 0,0 l/m² 19,7 km/h (3 Bft) S 190 ° 0 min 35 W/m² 4,6 °C -1,0 °C 25,7 km/h (4 Bft)
29.01.2025 08:35 21,1 °C 6,6 °C 49 % 86 % 1000,1 hPa 0,0 l/m² 21,6 km/h (4 Bft) S 187 ° 0 min 40 W/m² 4,4 °C -1,7 °C 32,2 km/h (5 Bft)
29.01.2025 08:37 21,1 °C 6,7 °C 49 % 86 % 1000,1 hPa 0,0 l/m² 19,2 km/h (3 Bft) S 188 ° 0 min 42 W/m² 4,5 °C -0,7 °C 29,0 km/h (5 Bft)
29.01.2025 08:39 21,1 °C 6,7 °C 49 % 86 % 1000,2 hPa 0,0 l/m² 21,6 km/h (4 Bft) S-SW 194 ° 0 min 40 W/m² 4,5 °C -1,5 °C 27,4 km/h (5 Bft)
29.01.2025 08:40 21,1 °C 6,8 °C 49 % 86 % 1000,2 hPa 0,0 l/m² 22,0 km/h (4 Bft) S-SW 192 ° 0 min 42 W/m² 4,6 °C -1,6 °C 29,0 km/h (5 Bft)
29.01.2025 08:42 21,1 °C 6,8 °C 49 % 86 % 1000,2 hPa 0,0 l/m² 17,2 km/h (3 Bft) S-SW 194 ° 0 min 40 W/m² 4,6 °C 0,3 °C 20,9 km/h (4 Bft)
29.01.2025 08:44 21,1 °C 6,9 °C 49 % 86 % 1000,2 hPa 0,0 l/m² 15,6 km/h (3 Bft) S 170 ° 0 min 35 W/m² 4,7 °C 1,1 °C 25,7 km/h (4 Bft)
29.01.2025 08:46 21,1 °C 6,9 °C 49 % 86 % 1000,3 hPa 0,0 l/m² 19,8 km/h (3 Bft) S 173 ° 0 min 28 W/m² 4,7 °C -0,6 °C 25,7 km/h (4 Bft)
29.01.2025 08:48 21,1 °C 6,9 °C 49 % 86 % 1000,3 hPa 0,0 l/m² 19,3 km/h (3 Bft) S 191 ° 0 min 23 W/m² 4,7 °C -0,5 °C 27,4 km/h (5 Bft)
29.01.2025 08:50 21,1 °C 6,9 °C 49 % 86 % 1000,3 hPa 0,0 l/m² 16,6 km/h (3 Bft) S 187 ° 0 min 23 W/m² 4,7 °C 0,6 °C 24,1 km/h (4 Bft)
29.01.2025 08:51 21,1 °C 6,9 °C 49 % 86 % 1000,3 hPa 0,0 l/m² 17,4 km/h (3 Bft) S 183 ° 0 min 23 W/m² 4,7 °C 0,3 °C 20,9 km/h (4 Bft)
29.01.2025 08:53 21,1 °C 6,9 °C 49 % 86 % 1000,3 hPa 0,0 l/m² 16,9 km/h (3 Bft) S 179 ° 0 min 23 W/m² 4,7 °C 0,5 °C 22,5 km/h (4 Bft)
29.01.2025 08:55 21,1 °C 6,9 °C 49 % 86 % 1000,4 hPa 0,0 l/m² 15,6 km/h (3 Bft) S 175 ° 0 min 25 W/m² 4,7 °C 1,1 °C 22,5 km/h (4 Bft)
29.01.2025 08:57 21,1 °C 6,9 °C 49 % 86 % 1000,4 hPa 0,0 l/m² 17,3 km/h (3 Bft) S-SW 196 ° 0 min 26 W/m² 4,7 °C 0,3 °C 24,1 km/h (4 Bft)
29.01.2025 08:59 21,1 °C 6,9 °C 49 % 86 % 1000,5 hPa 0,0 l/m² 15,3 km/h (3 Bft) S 185 ° 0 min 26 W/m² 4,7 °C 1,2 °C 19,3 km/h (3 Bft)
29.01.2025 09:01 21,1 °C 6,9 °C 49 % 86 % 1000,5 hPa 0,0 l/m² 16,1 km/h (3 Bft) S 189 ° 0 min 25 W/m² 4,7 °C 0,9 °C 20,9 km/h (4 Bft)
29.01.2025 09:02 21,1 °C 6,9 °C 49 % 86 % 1000,6 hPa 0,0 l/m² 17,0 km/h (3 Bft) S-SW 192 ° 0 min 26 W/m² 4,7 °C 0,5 °C 22,5 km/h (4 Bft)
29.01.2025 09:04 21,1 °C 6,9 °C 49 % 86 % 1000,7 hPa 0,0 l/m² 15,8 km/h (3 Bft) S-SW 202 ° 0 min 28 W/m² 4,7 °C 1,0 °C 19,3 km/h (3 Bft)
29.01.2025 09:06 21,1 °C 6,9 °C 49 % 86 % 1000,7 hPa 0,0 l/m² 14,9 km/h (3 Bft) S-SW 196 ° 0 min 30 W/m² 4,7 °C 1,4 °C 20,9 km/h (4 Bft)
29.01.2025 09:08 21,1 °C 6,9 °C 49 % 86 % 1000,7 hPa 0,0 l/m² 14,1 km/h (3 Bft) S 190 ° 0 min 35 W/m² 4,7 °C 1,8 °C 16,1 km/h (3 Bft)
29.01.2025 09:10 21,1 °C 6,8 °C 49 % 86 % 1000,8 hPa 0,0 l/m² 15,2 km/h (3 Bft) S 184 ° 0 min 40 W/m² 4,6 °C 1,2 °C 19,3 km/h (3 Bft)
29.01.2025 09:11 21,1 °C 6,9 °C 49 % 86 % 1000,7 hPa 0,0 l/m² 15,1 km/h (3 Bft) S 185 ° 0 min 42 W/m² 4,7 °C 1,3 °C 19,3 km/h (3 Bft)
29.01.2025 09:13 21,1 °C 6,9 °C 49 % 86 % 1000,7 hPa 0,0 l/m² 12,9 km/h (3 Bft) S-SW 196 ° 0 min 46 W/m² 4,7 °C 2,4 °C 16,1 km/h (3 Bft)
29.01.2025 09:15 21,1 °C 6,9 °C 49 % 86 % 1000,8 hPa 0,0 l/m² 11,8 km/h (2 Bft) S-SW 206 ° 0 min 51 W/m² 4,7 °C 3,1 °C 17,7 km/h (3 Bft)
29.01.2025 09:17 21,1 °C 6,9 °C 49 % 86 % 1000,8 hPa 0,0 l/m² 12,5 km/h (2 Bft) S 190 ° 2 min 69 W/m² 4,7 °C 2,7 °C 17,7 km/h (3 Bft)
29.01.2025 09:19 21,1 °C 6,9 °C 49 % 86 % 1000,7 hPa 0,0 l/m² 12,1 km/h (2 Bft) S-SW 196 ° 2 min 70 W/m² 4,7 °C 2,9 °C 17,7 km/h (3 Bft)
29.01.2025 09:20 21,1 °C 7,0 °C 49 % 86 % 1000,7 hPa 0,0 l/m² 11,5 km/h (2 Bft) S-SW 192 ° 1 min 77 W/m² 4,8 °C 3,3 °C 16,1 km/h (3 Bft)
29.01.2025 09:22 21,1 °C 7,0 °C 49 % 86 % 1000,8 hPa 0,0 l/m² 13,9 km/h (3 Bft) S-SW 205 ° 2 min 77 W/m² 4,8 °C 2,0 °C 20,9 km/h (4 Bft)
29.01.2025 09:24 21,1 °C 7,1 °C 49 % 87 % 1000,8 hPa 0,0 l/m² 13,5 km/h (3 Bft) S 191 ° 2 min 83 W/m² 5,1 °C 2,4 °C 20,9 km/h (4 Bft)
29.01.2025 09:26 21,1 °C 7,1 °C 49 % 87 % 1000,8 hPa 0,0 l/m² 12,5 km/h (2 Bft) S 188 ° 2 min 86 W/m² 5,1 °C 2,9 °C 17,7 km/h (3 Bft)
29.01.2025 09:28 21,1 °C 7,1 °C 49 % 87 % 1000,9 hPa 0,0 l/m² 15,0 km/h (3 Bft) S-SW 194 ° 2 min 76 W/m² 5,1 °C 1,6 °C 20,9 km/h (4 Bft)
29.01.2025 09:30 21,1 °C 7,1 °C 49 % 87 % 1001,0 hPa 0,0 l/m² 14,0 km/h (3 Bft) S 182 ° 2 min 69 W/m² 5,1 °C 2,1 °C 20,9 km/h (4 Bft)
29.01.2025 09:31 21,1 °C 7,1 °C 49 % 87 % 1001,1 hPa 0,0 l/m² 15,9 km/h (3 Bft) SW 220 ° 1 min 65 W/m² 5,1 °C 1,2 °C 19,3 km/h (3 Bft)
29.01.2025 09:32 21,1 °C 7,1 °C 49 % 87 % 1001,0 hPa 0,0 l/m² 13,3 km/h (3 Bft) S-SW 203 ° 1 min 62 W/m² 5,1 °C 2,5 °C 14,5 km/h (3 Bft)
29.01.2025 09:33 21,1 °C 7,1 °C 49 % 87 % 1001,0 hPa 0,0 l/m² 14,9 km/h (3 Bft) S 184 ° 1 min 65 W/m² 5,1 °C 1,7 °C 17,7 km/h (3 Bft)
29.01.2025 09:34 21,1 °C 7,1 °C 49 % 87 % 1001,0 hPa 0,0 l/m² 13,8 km/h (3 Bft) S-SW 193 ° 1 min 62 W/m² 5,1 °C 2,2 °C 19,3 km/h (3 Bft)
29.01.2025 09:36 21,1 °C 7,1 °C 49 % 87 % 1001,1 hPa 0,0 l/m² 14,3 km/h (3 Bft) S-SW 193 ° 2 min 69 W/m² 5,1 °C 2,0 °C 20,9 km/h (4 Bft)
29.01.2025 09:38 21,1 °C 7,2 °C 49 % 87 % 1001,1 hPa 0,0 l/m² 13,4 km/h (3 Bft) S 184 ° 2 min 81 W/m² 5,2 °C 2,5 °C 17,7 km/h (3 Bft)
29.01.2025 09:40 21,1 °C 7,2 °C 49 % 87 % 1001,2 hPa 0,0 l/m² 13,1 km/h (3 Bft) S 185 ° 2 min 118 W/m² 5,2 °C 2,7 °C 16,1 km/h (3 Bft)
29.01.2025 09:41 21,1 °C 7,3 °C 49 % 87 % 1001,1 hPa 0,0 l/m² 12,4 km/h (2 Bft) S-SW 194 ° 1 min 120 W/m² 5,3 °C 3,2 °C 17,7 km/h (3 Bft)
29.01.2025 09:42 21,1 °C 7,3 °C 49 % 87 % 1001,2 hPa 0,0 l/m² 15,1 km/h (3 Bft) S 190 ° 1 min 121 W/m² 5,3 °C 1,8 °C 19,3 km/h (3 Bft)
29.01.2025 09:43 21,1 °C 7,3 °C 49 % 87 % 1001,2 hPa 0,0 l/m² 17,3 km/h (3 Bft) S 188 ° 1 min 130 W/m² 5,3 °C 0,8 °C 19,3 km/h (3 Bft)
29.01.2025 09:45 21,1 °C 7,4 °C 49 % 87 % 1001,3 hPa 0,0 l/m² 14,2 km/h (3 Bft) S 190 ° 2 min 104 W/m² 5,4 °C 2,4 °C 17,7 km/h (3 Bft)
29.01.2025 09:46 21,1 °C 7,4 °C 49 % 87 % 1001,3 hPa 0,0 l/m² 16,1 km/h (3 Bft) S 174 ° 1 min 98 W/m² 5,4 °C 1,5 °C 22,5 km/h (4 Bft)
29.01.2025 09:47 21,1 °C 7,6 °C 49 % 86 % 1001,2 hPa 0,0 l/m² 17,1 km/h (3 Bft) S-SW 196 ° 1 min 81 W/m² 5,4 °C 1,3 °C 22,5 km/h (4 Bft)
29.01.2025 09:48 21,1 °C 7,6 °C 49 % 86 % 1001,2 hPa 0,0 l/m² 11,8 km/h (2 Bft) S-SW 202 ° 1 min 90 W/m² 5,4 °C 3,9 °C 14,5 km/h (3 Bft)
29.01.2025 09:50 21,1 °C 7,6 °C 49 % 86 % 1001,2 hPa 0,0 l/m² 13,5 km/h (3 Bft) S 186 ° 2 min 83 W/m² 5,4 °C 3,0 °C 17,7 km/h (3 Bft)
29.01.2025 09:51 21,1 °C 7,7 °C 49 % 86 % 1001,2 hPa 0,0 l/m² 14,5 km/h (3 Bft) S 186 ° 1 min 118 W/m² 5,5 °C 2,6 °C 17,7 km/h (3 Bft)
29.01.2025 09:52 21,1 °C 7,7 °C 49 % 86 % 1001,2 hPa 0,0 l/m² 13,3 km/h (3 Bft) S 171 ° 1 min 148 W/m² 5,5 °C 3,2 °C 17,7 km/h (3 Bft)
29.01.2025 09:53 21,1 °C 7,7 °C 49 % 86 % 1001,2 hPa 0,0 l/m² 12,4 km/h (2 Bft) S-SW 194 ° 1 min 146 W/m² 5,5 °C 3,6 °C 16,1 km/h (3 Bft)
29.01.2025 09:55 21,1 °C 7,8 °C 49 % 86 % 1001,3 hPa 0,0 l/m² 13,0 km/h (3 Bft) S-SW 192 ° 2 min 128 W/m² 5,6 °C 3,4 °C 19,3 km/h (3 Bft)
29.01.2025 09:57 21,1 °C 7,9 °C 49 % 86 % 1001,2 hPa 0,0 l/m² 16,4 km/h (3 Bft) S-SW 193 ° 2 min 141 W/m² 5,7 °C 2,0 °C 22,5 km/h (4 Bft)
29.01.2025 09:59 21,1 °C 7,9 °C 49 % 86 % 1001,3 hPa 0,0 l/m² 15,7 km/h (3 Bft) S-SW 195 ° 2 min 144 W/m² 5,7 °C 2,3 °C 19,3 km/h (3 Bft)
29.01.2025 10:01 21,0 °C 8,0 °C 49 % 85 % 1001,2 hPa 0,0 l/m² 14,0 km/h (3 Bft) S-SW 192 ° 2 min 113 W/m² 5,6 °C 3,2 °C 17,7 km/h (3 Bft)
29.01.2025 10:02 21,1 °C 8,0 °C 49 % 85 % 1001,3 hPa 0,0 l/m² 11,4 km/h (2 Bft) S-SW 199 ° 1 min 102 W/m² 5,6 °C 4,5 °C 16,1 km/h (3 Bft)
29.01.2025 10:04 21,1 °C 8,0 °C 49 % 85 % 1001,3 hPa 0,0 l/m² 9,7 km/h (2 Bft) S-SW 206 ° 2 min 100 W/m² 5,6 °C 5,6 °C 14,5 km/h (3 Bft)
29.01.2025 10:06 21,1 °C 8,0 °C 49 % 85 % 1001,4 hPa 0,0 l/m² 10,4 km/h (2 Bft) S 186 ° 2 min 97 W/m² 5,6 °C 5,1 °C 19,3 km/h (3 Bft)
29.01.2025 10:08 21,1 °C 8,0 °C 49 % 85 % 1001,4 hPa 0,0 l/m² 13,2 km/h (3 Bft) S-SW 211 ° 2 min 109 W/m² 5,6 °C 3,6 °C 16,1 km/h (3 Bft)
29.01.2025 10:10 21,1 °C 8,1 °C 49 % 85 % 1001,4 hPa 0,0 l/m² 11,7 km/h (2 Bft) S-SW 211 ° 2 min 137 W/m² 5,7 °C 4,5 °C 17,7 km/h (3 Bft)
29.01.2025 10:11 21,0 °C 8,1 °C 49 % 85 % 1001,4 hPa 0,0 l/m² 12,2 km/h (2 Bft) S-SW 200 ° 1 min 137 W/m² 5,7 °C 4,2 °C 16,1 km/h (3 Bft)
29.01.2025 10:13 21,1 °C 8,2 °C 49 % 85 % 1001,4 hPa 0,0 l/m² 13,3 km/h (3 Bft) S-SW 212 ° 2 min 146 W/m² 5,8 °C 3,8 °C 20,9 km/h (4 Bft)
29.01.2025 10:15 21,0 °C 8,2 °C 49 % 85 % 1001,5 hPa 0,0 l/m² 14,9 km/h (3 Bft) S-SW 201 ° 2 min 183 W/m² 5,8 °C 3,0 °C 17,7 km/h (3 Bft)
29.01.2025 10:17 21,0 °C 8,3 °C 49 % 85 % 1001,5 hPa 0,0 l/m² 14,8 km/h (3 Bft) S-SW 208 ° 2 min 241 W/m² 5,9 °C 3,2 °C 19,3 km/h (3 Bft)
29.01.2025 10:19 21,0 °C 8,5 °C 49 % 85 % 1001,5 hPa 0,0 l/m² 11,3 km/h (2 Bft) S-SW 194 ° 2 min 302 W/m² 6,1 °C 5,2 °C 19,3 km/h (3 Bft)
29.01.2025 10:20 21,1 °C 8,6 °C 49 % 85 % 1001,6 hPa 0,0 l/m² 13,7 km/h (3 Bft) S-SW 192 ° 1 min 188 W/m² 6,2 °C 4,0 °C 16,1 km/h (3 Bft)
29.01.2025 10:22 21,1 °C 8,7 °C 49 % 84 % 1001,6 hPa 0,0 l/m² 18,4 km/h (3 Bft) S-SW 202 ° 2 min 151 W/m² 6,2 °C 2,2 °C 24,1 km/h (4 Bft)
29.01.2025 10:24 21,0 °C 8,7 °C 49 % 84 % 1001,7 hPa 0,0 l/m² 16,5 km/h (3 Bft) S-SW 200 ° 2 min 116 W/m² 6,2 °C 2,9 °C 20,9 km/h (4 Bft)
29.01.2025 10:26 21,1 °C 8,7 °C 49 % 84 % 1001,7 hPa 0,0 l/m² 15,7 km/h (3 Bft) SW 214 ° 2 min 118 W/m² 6,2 °C 3,3 °C 20,9 km/h (4 Bft)
29.01.2025 10:28 21,0 °C 8,7 °C 49 % 84 % 1001,7 hPa 0,0 l/m² 18,1 km/h (3 Bft) S-SW 207 ° 2 min 104 W/m² 6,2 °C 2,3 °C 24,1 km/h (4 Bft)
29.01.2025 10:30 21,0 °C 8,7 °C 49 % 84 % 1001,7 hPa 0,0 l/m² 18,0 km/h (3 Bft) S-SW 211 ° 2 min 95 W/m² 6,2 °C 2,3 °C 22,5 km/h (4 Bft)
29.01.2025 10:31 21,1 °C 8,7 °C 49 % 84 % 1001,7 hPa 0,0 l/m² 15,7 km/h (3 Bft) SW 223 ° 1 min 102 W/m² 6,2 °C 3,3 °C 19,3 km/h (3 Bft)
29.01.2025 10:33 21,0 °C 8,7 °C 49 % 84 % 1001,7 hPa 0,0 l/m² 12,4 km/h (2 Bft) SW 219 ° 2 min 113 W/m² 6,2 °C 4,8 °C 19,3 km/h (3 Bft)
29.01.2025 10:35 21,0 °C 8,7 °C 49 % 84 % 1001,8 hPa 0,0 l/m² 13,7 km/h (3 Bft) SW 216 ° 2 min 111 W/m² 6,2 °C 4,2 °C 17,7 km/h (3 Bft)
29.01.2025 10:37 21,0 °C 8,7 °C 49 % 84 % 1001,8 hPa 0,0 l/m² 16,0 km/h (3 Bft) S-SW 203 ° 2 min 127 W/m² 6,2 °C 3,1 °C 20,9 km/h (4 Bft)
29.01.2025 10:39 21,0 °C 8,7 °C 49 % 84 % 1001,8 hPa 0,0 l/m² 14,8 km/h (3 Bft) S-SW 200 ° 2 min 111 W/m² 6,2 °C 3,6 °C 20,9 km/h (4 Bft)
29.01.2025 10:41 21,0 °C 8,8 °C 49 % 84 % 1001,9 hPa 0,0 l/m² 18,3 km/h (3 Bft) S-SW 210 ° 2 min 107 W/m² 6,2 °C 2,3 °C 24,1 km/h (4 Bft)
29.01.2025 10:42 21,0 °C 8,8 °C 49 % 84 % 1002,0 hPa 0,0 l/m² 20,0 km/h (4 Bft) SW 231 ° 1 min 105 W/m² 6,2 °C 1,7 °C 25,7 km/h (4 Bft)
29.01.2025 10:43 21,0 °C 8,8 °C 49 % 84 % 1002,0 hPa 0,0 l/m² 21,0 km/h (4 Bft) SW 217 ° 1 min 102 W/m² 6,2 °C 1,4 °C 27,4 km/h (5 Bft)
29.01.2025 10:44 21,0 °C 8,8 °C 49 % 84 % 1002,0 hPa 0,0 l/m² 20,7 km/h (4 Bft) S-SW 210 ° 1 min 93 W/m² 6,2 °C 1,5 °C 25,7 km/h (4 Bft)
29.01.2025 10:46 21,0 °C 8,8 °C 49 % 83 % 1001,9 hPa 0,0 l/m² 18,2 km/h (3 Bft) S-SW 200 ° 2 min 86 W/m² 6,1 °C 2,4 °C 25,7 km/h (4 Bft)
29.01.2025 10:48 21,0 °C 8,8 °C 49 % 83 % 1001,9 hPa 0,0 l/m² 19,4 km/h (3 Bft) SW 223 ° 2 min 77 W/m² 6,1 °C 1,9 °C 27,4 km/h (5 Bft)
29.01.2025 10:50 21,0 °C 8,8 °C 49 % 83 % 1002,0 hPa 0,0 l/m² 14,9 km/h (3 Bft) S-SW 210 ° 2 min 90 W/m² 6,1 °C 3,7 °C 20,9 km/h (4 Bft)
29.01.2025 10:51 21,0 °C 8,8 °C 49 % 83 % 1002,1 hPa 0,0 l/m² 11,8 km/h (2 Bft) SW 216 ° 1 min 91 W/m² 6,1 °C 5,2 °C 17,7 km/h (3 Bft)
29.01.2025 10:52 21,0 °C 8,7 °C 49 % 84 % 1002,1 hPa 0,0 l/m² 15,0 km/h (3 Bft) S-SW 194 ° 1 min 98 W/m² 6,2 °C 3,6 °C 22,5 km/h (4 Bft)
29.01.2025 10:53 21,0 °C 8,7 °C 49 % 83 % 1002,1 hPa 0,0 l/m² 16,9 km/h (3 Bft) S-SW 213 ° 1 min 114 W/m² 6,0 °C 2,8 °C 22,5 km/h (4 Bft)
29.01.2025 10:55 21,0 °C 8,7 °C 49 % 84 % 1002,1 hPa 0,0 l/m² 17,1 km/h (3 Bft) S-SW 196 ° 2 min 142 W/m² 6,2 °C 2,7 °C 27,4 km/h (5 Bft)
29.01.2025 10:57 21,0 °C 8,9 °C 49 % 84 % 1002,1 hPa 0,0 l/m² 21,2 km/h (4 Bft) S-SW 207 ° 2 min 329 W/m² 6,3 °C 1,5 °C 29,0 km/h (5 Bft)
29.01.2025 10:59 21,0 °C 9,1 °C 49 % 84 % 1002,1 hPa 0,0 l/m² 12,9 km/h (3 Bft) S-SW 207 ° 2 min 250 W/m² 6,5 °C 5,0 °C 17,7 km/h (3 Bft)
29.01.2025 11:01 21,0 °C 9,2 °C 49 % 83 % 1002,0 hPa 0,0 l/m² 15,8 km/h (3 Bft) SW 232 ° 2 min 176 W/m² 6,5 °C 3,8 °C 24,1 km/h (4 Bft)
29.01.2025 11:02 21,0 °C 9,2 °C 49 % 83 % 1002,1 hPa 0,0 l/m² 20,1 km/h (4 Bft) S-SW 209 ° 1 min 144 W/m² 6,5 °C 2,2 °C 25,7 km/h (4 Bft)
29.01.2025 11:04 21,0 °C 9,2 °C 49 % 83 % 1002,1 hPa 0,0 l/m² 20,4 km/h (4 Bft) W-SW 240 ° 2 min 181 W/m² 6,5 °C 2,1 °C 30,6 km/h (5 Bft)
29.01.2025 11:06 21,0 °C 9,3 °C 49 % 83 % 1002,1 hPa 0,0 l/m² 20,8 km/h (4 Bft) SW 219 ° 2 min 162 W/m² 6,6 °C 2,1 °C 32,2 km/h (5 Bft)
29.01.2025 11:08 21,0 °C 9,4 °C 49 % 83 % 1002,2 hPa 0,0 l/m² 15,6 km/h (3 Bft) S-SW 212 ° 2 min 288 W/m² 6,7 °C 4,2 °C 22,5 km/h (4 Bft)
29.01.2025 11:10 21,0 °C 9,7 °C 49 % 82 % 1002,2 hPa 0,0 l/m² 22,8 km/h (4 Bft) W-SW 240 ° 2 min 315 W/m² 6,8 °C 2,0 °C 33,8 km/h (5 Bft)
29.01.2025 11:11 21,0 °C 9,7 °C 49 % 81 % 1002,3 hPa 0,0 l/m² 21,4 km/h (4 Bft) SW 225 ° 1 min 285 W/m² 6,6 °C 2,5 °C 30,6 km/h (5 Bft)
29.01.2025 11:13 21,0 °C 9,8 °C 49 % 81 % 1002,2 hPa 0,0 l/m² 19,6 km/h (3 Bft) W-SW 246 ° 2 min 336 W/m² 6,7 °C 3,2 °C 29,0 km/h (5 Bft)
29.01.2025 11:15 21,0 °C 9,9 °C 49 % 81 % 1002,3 hPa 0,0 l/m² 23,5 km/h (4 Bft) W-SW 245 ° 2 min 144 W/m² 6,8 °C 2,1 °C 32,2 km/h (5 Bft)
29.01.2025 11:16 21,0 °C 9,9 °C 49 % 80 % 1002,3 hPa 0,0 l/m² 24,7 km/h (4 Bft) W-SW 245 ° 1 min 149 W/m² 6,6 °C 1,8 °C 32,2 km/h (5 Bft)
29.01.2025 11:17 21,0 °C 9,8 °C 49 % 79 % 1002,3 hPa 0,0 l/m² 19,9 km/h (4 Bft) W-SW 253 ° 1 min 151 W/m² 6,3 °C 3,1 °C 27,4 km/h (5 Bft)
29.01.2025 11:18 21,1 °C 9,8 °C 49 % 80 % 1002,4 hPa 0,0 l/m² 18,5 km/h (3 Bft) W-SW 239 ° 1 min 125 W/m² 6,5 °C 3,5 °C 22,5 km/h (4 Bft)
29.01.2025 11:19 21,1 °C 9,8 °C 49 % 80 % 1002,3 hPa 0,0 l/m² 21,0 km/h (4 Bft) SW 219 ° 1 min 95 W/m² 6,5 °C 2,7 °C 29,0 km/h (5 Bft)
29.01.2025 11:20 21,0 °C 9,8 °C 49 % 80 % 1002,3 hPa 0,0 l/m² 20,0 km/h (4 Bft) W-SW 238 ° 1 min 113 W/m² 6,5 °C 3,0 °C 27,4 km/h (5 Bft)
29.01.2025 11:22 21,0 °C 9,7 °C 49 % 80 % 1002,4 hPa 0,0 l/m² 24,1 km/h (4 Bft) W-SW 246 ° 2 min 290 W/m² 6,4 °C 1,7 °C 38,6 km/h (6 Bft)
29.01.2025 11:24 21,1 °C 9,8 °C 49 % 80 % 1002,3 hPa 0,0 l/m² 27,5 km/h (5 Bft) W-SW 237 ° 2 min 388 W/m² 6,5 °C 0,9 °C 40,2 km/h (6 Bft)
29.01.2025 11:25 21,1 °C 9,8 °C 49 % 80 % 1002,4 hPa 0,0 l/m² 25,0 km/h (4 Bft) SW 224 ° 1 min 388 W/m² 6,5 °C 1,6 °C 32,2 km/h (5 Bft)
29.01.2025 11:26 21,1 °C 9,8 °C 49 % 80 % 1002,4 hPa 0,0 l/m² 20,3 km/h (4 Bft) W-SW 251 ° 1 min 169 W/m² 6,5 °C 2,9 °C 25,7 km/h (4 Bft)
29.01.2025 11:27 21,1 °C 9,8 °C 49 % 80 % 1002,4 hPa 0,0 l/m² 26,5 km/h (4 Bft) S-SW 211 ° 1 min 169 W/m² 6,5 °C 1,2 °C 37,0 km/h (5 Bft)
29.01.2025 11:28 21,1 °C 9,9 °C 49 % 80 % 1002,4 hPa 0,0 l/m² 22,5 km/h (4 Bft) SW 225 ° 1 min 443 W/m² 6,6 °C 2,4 °C 33,8 km/h (5 Bft)
29.01.2025 11:29 21,1 °C 9,9 °C 49 % 80 % 1002,3 hPa 0,0 l/m² 23,5 km/h (4 Bft) SW 220 ° 1 min 420 W/m² 6,6 °C 2,1 °C 30,6 km/h (5 Bft)
29.01.2025 11:30 21,1 °C 10,1 °C 49 % 80 % 1002,4 hPa 0,0 l/m² 24,0 km/h (4 Bft) SW 234 ° 1 min 418 W/m² 6,8 °C 2,2 °C 29,0 km/h (5 Bft)
29.01.2025 11:32 21,1 °C 10,2 °C 49 % 80 % 1002,3 hPa 0,0 l/m² 23,5 km/h (4 Bft) SW 230 ° 2 min 378 W/m² 6,9 °C 2,5 °C 32,2 km/h (5 Bft)
29.01.2025 11:34 21,1 °C 10,3 °C 49 % 79 % 1002,2 hPa 0,0 l/m² 20,1 km/h (4 Bft) W-SW 246 ° 2 min 345 W/m² 6,8 °C 3,6 °C 29,0 km/h (5 Bft)
29.01.2025 11:35 21,1 °C 10,4 °C 49 % 79 % 1002,3 hPa 0,0 l/m² 22,2 km/h (4 Bft) S-SW 200 ° 1 min 369 W/m² 6,9 °C 3,1 °C 33,8 km/h (5 Bft)
29.01.2025 11:36 21,1 °C 10,4 °C 49 % 79 % 1002,4 hPa 0,0 l/m² 24,5 km/h (4 Bft) W-SW 240 ° 1 min 301 W/m² 6,9 °C 2,5 °C 32,2 km/h (5 Bft)
29.01.2025 11:37 21,1 °C 10,4 °C 49 % 79 % 1002,4 hPa 0,0 l/m² 28,4 km/h (5 Bft) SW 225 ° 1 min 301 W/m² 6,9 °C 1,6 °C 35,4 km/h (5 Bft)
29.01.2025 11:38 21,1 °C 10,4 °C 49 % 78 % 1002,4 hPa 0,0 l/m² 20,0 km/h (4 Bft) W-SW 248 ° 1 min 232 W/m² 6,7 °C 3,8 °C 25,7 km/h (4 Bft)
29.01.2025 11:39 21,1 °C 10,4 °C 49 % 78 % 1002,4 hPa 0,0 l/m² 29,9 km/h (5 Bft) SW 230 ° 1 min 232 W/m² 6,7 °C 1,2 °C 37,0 km/h (5 Bft)
29.01.2025 11:40 21,1 °C 10,3 °C 49 % 78 % 1002,4 hPa 0,0 l/m² 25,9 km/h (4 Bft) SW 229 ° 1 min 188 W/m² 6,6 °C 2,0 °C 32,2 km/h (5 Bft)
29.01.2025 11:42 21,1 °C 10,2 °C 49 % 79 % 1002,5 hPa 0,0 l/m² 16,5 km/h (3 Bft) SW 223 ° 2 min 214 W/m² 6,7 °C 4,8 °C 24,1 km/h (4 Bft)
29.01.2025 11:44 21,1 °C 10,1 °C 49 % 80 % 1002,6 hPa 0,0 l/m² 19,5 km/h (3 Bft) W 262 ° 2 min 318 W/m² 6,8 °C 3,6 °C 27,4 km/h (5 Bft)
29.01.2025 11:45 21,1 °C 10,2 °C 49 % 79 % 1002,6 hPa 0,0 l/m² 19,4 km/h (3 Bft) W-SW 241 ° 1 min 318 W/m² 6,7 °C 3,7 °C 27,4 km/h (5 Bft)
29.01.2025 11:46 21,1 °C 10,2 °C 49 % 80 % 1002,6 hPa 0,0 l/m² 17,7 km/h (3 Bft) SW 229 ° 1 min 397 W/m² 6,9 °C 4,3 °C 24,1 km/h (4 Bft)
29.01.2025 11:47 21,1 °C 10,3 °C 49 % 80 % 1002,6 hPa 0,0 l/m² 19,2 km/h (3 Bft) S-SW 212 ° 1 min 396 W/m² 7,0 °C 3,9 °C 25,7 km/h (4 Bft)
29.01.2025 11:48 21,1 °C 10,4 °C 49 % 79 % 1002,6 hPa 0,0 l/m² 17,3 km/h (3 Bft) SW 229 ° 1 min 387 W/m² 6,9 °C 4,7 °C 22,5 km/h (4 Bft)
29.01.2025 11:49 21,1 °C 10,6 °C 49 % 79 % 1002,7 hPa 0,0 l/m² 20,2 km/h (4 Bft) SW 218 ° 1 min 392 W/m² 7,1 °C 4,0 °C 25,7 km/h (4 Bft)
29.01.2025 11:50 21,1 °C 10,6 °C 49 % 79 % 1002,6 hPa 0,0 l/m² 21,9 km/h (4 Bft) W-SW 237 ° 1 min 441 W/m² 7,1 °C 3,5 °C 25,7 km/h (4 Bft)
29.01.2025 11:52 21,1 °C 10,4 °C 49 % 78 % 1002,6 hPa 0,0 l/m² 23,6 km/h (4 Bft) SW 227 ° 2 min 123 W/m² 6,7 °C 2,7 °C 32,2 km/h (5 Bft)
29.01.2025 11:54 21,1 °C 10,2 °C 49 % 78 % 1002,7 hPa 0,0 l/m² 20,4 km/h (4 Bft) W-SW 242 ° 2 min 105 W/m² 6,5 °C 3,4 °C 25,7 km/h (4 Bft)
29.01.2025 11:55 21,1 °C 10,1 °C 49 % 78 % 1002,6 hPa 0,0 l/m² 18,0 km/h (3 Bft) W-SW 240 ° 1 min 105 W/m² 6,4 °C 4,1 °C 25,7 km/h (4 Bft)
29.01.2025 11:56 21,1 °C 9,9 °C 49 % 78 % 1002,6 hPa 0,0 l/m² 18,0 km/h (3 Bft) W-SW 237 ° 1 min 105 W/m² 6,2 °C 3,8 °C 29,0 km/h (5 Bft)
29.01.2025 11:57 21,1 °C 9,8 °C 49 % 78 % 1002,7 hPa 0,0 l/m² 17,8 km/h (3 Bft) W-SW 237 ° 1 min 105 W/m² 6,1 °C 3,8 °C 24,1 km/h (4 Bft)
29.01.2025 11:58 21,1 °C 9,8 °C 49 % 79 % 1002,7 hPa 0,0 l/m² 17,1 km/h (3 Bft) SW 227 ° 1 min 109 W/m² 6,3 °C 4,1 °C 24,1 km/h (4 Bft)
29.01.2025 11:59 21,1 °C 9,7 °C 49 % 80 % 1002,7 hPa 0,0 l/m² 21,5 km/h (4 Bft) S-SW 213 ° 1 min 90 W/m² 6,4 °C 2,4 °C 29,0 km/h (5 Bft)
29.01.2025 12:00 21,1 °C 9,6 °C 49 % 79 % 1002,7 hPa 0,0 l/m² 19,6 km/h (3 Bft) SW 225 ° 1 min 67 W/m² 6,1 °C 2,9 °C 25,7 km/h (4 Bft)
29.01.2025 12:01 21,1 °C 9,6 °C 49 % 79 % 1002,8 hPa 0,0 l/m² 18,2 km/h (3 Bft) W-SW 248 ° 1 min 60 W/m² 6,1 °C 3,4 °C 25,7 km/h (4 Bft)
29.01.2025 12:02 21,1 °C 9,5 °C 49 % 79 % 1002,8 hPa 0,0 l/m² 20,1 km/h (4 Bft) S-SW 213 ° 1 min 54 W/m² 6,0 °C 2,6 °C 24,1 km/h (4 Bft)
29.01.2025 12:03 21,1 °C 9,5 °C 49 % 79 % 1002,8 hPa 0,0 l/m² 21,3 km/h (4 Bft) SW 220 ° 1 min 60 W/m² 6,0 °C 2,2 °C 27,4 km/h (5 Bft)
29.01.2025 12:04 21,1 °C 9,5 °C 49 % 79 % 1002,8 hPa 0,0 l/m² 22,9 km/h (4 Bft) SW 215 ° 1 min 67 W/m² 6,0 °C 1,7 °C 29,0 km/h (5 Bft)
29.01.2025 12:05 21,1 °C 9,4 °C 49 % 80 % 1002,9 hPa 0,0 l/m² 25,4 km/h (4 Bft) SW 219 ° 1 min 62 W/m² 6,1 °C 0,9 °C 33,8 km/h (5 Bft)
29.01.2025 12:06 21,1 °C 9,4 °C 49 % 79 % 1002,8 hPa 0,0 l/m² 23,8 km/h (4 Bft) SW 220 ° 1 min 54 W/m² 5,9 °C 1,3 °C 29,0 km/h (5 Bft)
29.01.2025 12:07 21,1 °C 9,4 °C 49 % 79 % 1002,9 hPa 0,0 l/m² 17,8 km/h (3 Bft) W-SW 240 ° 1 min 58 W/m² 5,9 °C 3,3 °C 24,1 km/h (4 Bft)
29.01.2025 12:08 21,1 °C 9,3 °C 49 % 80 % 1002,9 hPa 0,0 l/m² 19,0 km/h (3 Bft) SW 219 ° 1 min 63 W/m² 6,0 °C 2,7 °C 25,7 km/h (4 Bft)
29.01.2025 12:09 21,1 °C 9,3 °C 49 % 80 % 1002,9 hPa 0,0 l/m² 18,2 km/h (3 Bft) W-SW 241 ° 1 min 63 W/m² 6,0 °C 3,0 °C 27,4 km/h (5 Bft)
29.01.2025 12:10 21,1 °C 9,3 °C 49 % 80 % 1002,9 hPa 0,0 l/m² 24,8 km/h (4 Bft) S-SW 207 ° 1 min 62 W/m² 6,0 °C 0,9 °C 32,2 km/h (5 Bft)
29.01.2025 12:11 21,1 °C 9,3 °C 49 % 79 % 1002,9 hPa 0,0 l/m² 29,1 km/h (5 Bft) SW 220 ° 1 min 60 W/m² 5,8 °C -0,1 °C 33,8 km/h (5 Bft)
29.01.2025 12:12 21,1 °C 9,3 °C 49 % 79 % 1002,9 hPa 0,0 l/m² 24,2 km/h (4 Bft) SW 218 ° 1 min 53 W/m² 5,8 °C 1,1 °C 29,0 km/h (5 Bft)
29.01.2025 12:13 21,1 °C 9,3 °C 49 % 79 % 1002,9 hPa 0,0 l/m² 28,1 km/h (5 Bft) SW 223 ° 0 min 47 W/m² 5,8 °C 0,1 °C 38,6 km/h (6 Bft)
29.01.2025 12:14 21,1 °C 9,3 °C 49 % 79 % 1003,0 hPa 0,0 l/m² 21,9 km/h (4 Bft) SW 219 ° 0 min 42 W/m² 5,8 °C 1,8 °C 27,4 km/h (5 Bft)
29.01.2025 12:15 21,1 °C 9,4 °C 49 % 79 % 1003,0 hPa 0,0 l/m² 17,1 km/h (3 Bft) SW 223 ° 0 min 39 W/m² 5,9 °C 3,6 °C 22,5 km/h (4 Bft)
29.01.2025 12:16 21,1 °C 9,4 °C 49 % 79 % 1003,1 hPa 0,0 l/m² 15,6 km/h (3 Bft) W-SW 257 ° 0 min 37 W/m² 5,9 °C 4,2 °C 20,9 km/h (4 Bft)
29.01.2025 12:17 21,1 °C 9,4 °C 49 % 79 % 1003,1 hPa 0,0 l/m² 18,8 km/h (3 Bft) SW 225 ° 0 min 35 W/m² 5,9 °C 2,9 °C 29,0 km/h (5 Bft)
29.01.2025 12:18 21,1 °C 9,4 °C 49 % 79 % 1003,1 hPa 0,0 l/m² 24,2 km/h (4 Bft) SW 228 ° 0 min 28 W/m² 5,9 °C 1,2 °C 30,6 km/h (5 Bft)
29.01.2025 12:19 21,1 °C 9,4 °C 49 % 79 % 1003,1 hPa 0,0 l/m² 20,0 km/h (4 Bft) SW 220 ° 0 min 26 W/m² 5,9 °C 2,5 °C 25,7 km/h (4 Bft)
29.01.2025 12:20 21,1 °C 9,4 °C 49 % 79 % 1003,1 hPa 0,0 l/m² 23,3 km/h (4 Bft) SW 234 ° 0 min 26 W/m² 5,9 °C 1,5 °C 37,0 km/h (5 Bft)
29.01.2025 12:21 21,1 °C 9,4 °C 49 % 79 % 1003,2 hPa 0,0 l/m² 17,2 km/h (3 Bft) SW 227 ° 0 min 30 W/m² 5,9 °C 3,5 °C 27,4 km/h (5 Bft)
29.01.2025 12:22 21,1 °C 9,4 °C 49 % 79 % 1003,2 hPa 0,0 l/m² 17,3 km/h (3 Bft) SW 229 ° 0 min 32 W/m² 5,9 °C 3,5 °C 24,1 km/h (4 Bft)
29.01.2025 12:23 21,1 °C 9,4 °C 49 % 79 % 1003,1 hPa 0,0 l/m² 24,9 km/h (4 Bft) SW 221 ° 0 min 35 W/m² 5,9 °C 1,0 °C 32,2 km/h (5 Bft)
29.01.2025 12:24 21,1 °C 9,4 °C 49 % 79 % 1003,1 hPa 0,0 l/m² 21,1 km/h (4 Bft) SW 228 ° 0 min 39 W/m² 5,9 °C 2,2 °C 27,4 km/h (5 Bft)
29.01.2025 12:25 21,1 °C 9,4 °C 49 % 79 % 1003,2 hPa 0,0 l/m² 20,8 km/h (4 Bft) SW 231 ° 0 min 39 W/m² 5,9 °C 2,2 °C 25,7 km/h (4 Bft)
29.01.2025 12:26 21,1 °C 9,4 °C 49 % 79 % 1003,1 hPa 0,0 l/m² 17,2 km/h (3 Bft) SW 227 ° 0 min 40 W/m² 5,9 °C 3,5 °C 24,1 km/h (4 Bft)
29.01.2025 12:27 21,1 °C 9,4 °C 49 % 79 % 1003,2 hPa 0,0 l/m² 21,5 km/h (4 Bft) SW 223 ° 0 min 44 W/m² 5,9 °C 2,0 °C 27,4 km/h (5 Bft)
29.01.2025 12:28 21,1 °C 9,4 °C 49 % 79 % 1003,3 hPa 0,0 l/m² 21,3 km/h (4 Bft) S-SW 209 ° 0 min 44 W/m² 5,9 °C 2,1 °C 27,4 km/h (5 Bft)
29.01.2025 12:29 21,1 °C 9,4 °C 49 % 78 % 1003,1 hPa 0,0 l/m² 26,0 km/h (4 Bft) SW 216 ° 0 min 44 W/m² 5,8 °C 0,8 °C 33,8 km/h (5 Bft)
29.01.2025 12:30 21,1 °C 9,4 °C 49 % 79 % 1003,3 hPa 0,0 l/m² 20,4 km/h (4 Bft) SW 228 ° 0 min 47 W/m² 5,9 °C 2,4 °C 24,1 km/h (4 Bft)
29.01.2025 12:31 21,1 °C 9,4 °C 49 % 78 % 1003,3 hPa 0,0 l/m² 27,3 km/h (5 Bft) SW 223 ° 1 min 53 W/m² 5,8 °C 0,4 °C 33,8 km/h (5 Bft)
29.01.2025 12:32 21,1 °C 9,4 °C 49 % 78 % 1003,2 hPa 0,0 l/m² 23,3 km/h (4 Bft) SW 229 ° 1 min 58 W/m² 5,8 °C 1,5 °C 35,4 km/h (5 Bft)
29.01.2025 12:33 21,1 °C 9,4 °C 49 % 78 % 1003,2 hPa 0,0 l/m² 27,9 km/h (5 Bft) W-SW 240 ° 1 min 63 W/m² 5,8 °C 0,3 °C 37,0 km/h (5 Bft)
29.01.2025 12:34 21,1 °C 9,5 °C 49 % 78 % 1003,2 hPa 0,0 l/m² 26,0 km/h (4 Bft) SW 232 ° 1 min 67 W/m² 5,9 °C 0,9 °C 32,2 km/h (5 Bft)
29.01.2025 12:35 21,1 °C 9,5 °C 49 % 78 % 1003,2 hPa 0,0 l/m² 13,6 km/h (3 Bft) SW 225 ° 1 min 79 W/m² 5,9 °C 5,2 °C 19,3 km/h (3 Bft)
29.01.2025 12:36 21,1 °C 9,5 °C 49 % 78 % 1003,3 hPa 0,0 l/m² 17,5 km/h (3 Bft) SW 234 ° 1 min 88 W/m² 5,9 °C 3,5 °C 22,5 km/h (4 Bft)
29.01.2025 12:37 21,1 °C 9,6 °C 49 % 79 % 1003,3 hPa 0,0 l/m² 21,5 km/h (4 Bft) S-SW 204 ° 1 min 95 W/m² 6,1 °C 2,3 °C 32,2 km/h (5 Bft)
29.01.2025 12:38 21,1 °C 9,6 °C 49 % 79 % 1003,3 hPa 0,0 l/m² 28,4 km/h (5 Bft) SW 215 ° 1 min 98 W/m² 6,1 °C 0,5 °C 35,4 km/h (5 Bft)
29.01.2025 12:39 21,1 °C 9,6 °C 49 % 78 % 1003,3 hPa 0,0 l/m² 27,0 km/h (5 Bft) SW 228 ° 1 min 100 W/m² 6,0 °C 0,8 °C 32,2 km/h (5 Bft)
29.01.2025 12:40 21,1 °C 9,7 °C 49 % 78 % 1003,4 hPa 0,0 l/m² 28,5 km/h (5 Bft) S-SW 213 ° 1 min 104 W/m² 6,1 °C 0,6 °C 38,6 km/h (6 Bft)
29.01.2025 12:41 21,1 °C 9,7 °C 49 % 78 % 1003,4 hPa 0,0 l/m² 28,1 km/h (5 Bft) S-SW 213 ° 1 min 104 W/m² 6,1 °C 0,7 °C 37,0 km/h (5 Bft)
29.01.2025 12:42 21,1 °C 9,7 °C 49 % 78 % 1003,4 hPa 0,0 l/m² 29,6 km/h (5 Bft) SW 217 ° 1 min 102 W/m² 6,1 °C 0,3 °C 38,6 km/h (6 Bft)
29.01.2025 12:43 21,1 °C 9,7 °C 49 % 77 % 1003,4 hPa 0,0 l/m² 25,7 km/h (4 Bft) SW 219 ° 1 min 91 W/m² 5,9 °C 1,2 °C 33,8 km/h (5 Bft)
29.01.2025 12:44 21,1 °C 9,7 °C 49 % 77 % 1003,5 hPa 0,0 l/m² 32,8 km/h (5 Bft) SW 221 ° 1 min 79 W/m² 5,9 °C -0,3 °C 43,5 km/h (6 Bft)
29.01.2025 12:45 21,1 °C 9,7 °C 49 % 77 % 1003,6 hPa 0,0 l/m² 29,0 km/h (5 Bft) S-SW 212 ° 1 min 74 W/m² 5,9 °C 0,5 °C 38,6 km/h (6 Bft)
29.01.2025 12:46 21,1 °C 9,7 °C 49 % 77 % 1003,6 hPa 0,0 l/m² 27,4 km/h (5 Bft) SW 216 ° 1 min 76 W/m² 5,9 °C 0,8 °C 38,6 km/h (6 Bft)
29.01.2025 12:47 21,1 °C 9,6 °C 49 % 76 % 1003,6 hPa 0,0 l/m² 30,4 km/h (5 Bft) SW 215 ° 1 min 76 W/m² 5,6 °C 0,0 °C 37,0 km/h (5 Bft)
29.01.2025 12:48 21,1 °C 9,6 °C 49 % 76 % 1003,6 hPa 0,0 l/m² 26,6 km/h (4 Bft) S-SW 210 ° 1 min 79 W/m² 5,6 °C 0,9 °C 38,6 km/h (6 Bft)
29.01.2025 12:49 21,1 °C 9,6 °C 49 % 76 % 1003,7 hPa 0,0 l/m² 30,3 km/h (5 Bft) W-SW 246 ° 1 min 83 W/m² 5,6 °C 0,0 °C 40,2 km/h (6 Bft)
29.01.2025 12:50 21,1 °C 9,6 °C 49 % 77 % 1003,6 hPa 0,0 l/m² 26,7 km/h (4 Bft) SW 224 ° 1 min 77 W/m² 5,8 °C 0,9 °C 38,6 km/h (6 Bft)
29.01.2025 12:52 21,1 °C 9,6 °C 49 % 77 % 1003,7 hPa 0,0 l/m² 19,7 km/h (3 Bft) SW 235 ° 2 min 63 W/m² 5,8 °C 2,9 °C 32,2 km/h (5 Bft)
29.01.2025 12:53 21,1 °C 9,6 °C 49 % 76 % 1003,7 hPa 0,0 l/m² 29,7 km/h (5 Bft) SW 214 ° 1 min 60 W/m² 5,6 °C 0,2 °C 38,6 km/h (6 Bft)
29.01.2025 12:54 21,1 °C 9,6 °C 49 % 76 % 1003,7 hPa 0,0 l/m² 21,6 km/h (4 Bft) W-SW 238 ° 1 min 53 W/m² 5,6 °C 2,3 °C 29,0 km/h (5 Bft)
29.01.2025 12:55 21,1 °C 9,6 °C 49 % 76 % 1003,8 hPa 0,0 l/m² 26,1 km/h (4 Bft) S-SW 213 ° 1 min 53 W/m² 5,6 °C 1,0 °C 32,2 km/h (5 Bft)
29.01.2025 12:56 21,1 °C 9,6 °C 49 % 76 % 1003,8 hPa 0,0 l/m² 24,5 km/h (4 Bft) SW 236 ° 1 min 54 W/m² 5,6 °C 1,4 °C 33,8 km/h (5 Bft)
29.01.2025 12:57 21,1 °C 9,5 °C 49 % 76 % 1003,9 hPa 0,0 l/m² 20,0 km/h (4 Bft) SW 223 ° 1 min 54 W/m² 5,5 °C 2,6 °C 27,4 km/h (5 Bft)
29.01.2025 12:58 21,1 °C 9,5 °C 49 % 76 % 1003,8 hPa 0,0 l/m² 30,6 km/h (5 Bft) SW 232 ° 0 min 47 W/m² 5,5 °C -0,2 °C 38,6 km/h (6 Bft)
29.01.2025 12:59 21,1 °C 9,5 °C 49 % 75 % 1003,9 hPa 0,0 l/m² 24,6 km/h (4 Bft) S-SW 212 ° 0 min 42 W/m² 5,3 °C 1,3 °C 35,4 km/h (5 Bft)
29.01.2025 13:00 21,1 °C 9,5 °C 49 % 75 % 1003,9 hPa 0,0 l/m² 25,0 km/h (4 Bft) SW 219 ° 0 min 40 W/m² 5,3 °C 1,2 °C 30,6 km/h (5 Bft)
29.01.2025 13:02 21,1 °C 9,4 °C 49 % 75 % 1003,9 hPa 0,0 l/m² 26,0 km/h (4 Bft) SW 219 ° 0 min 47 W/m² 5,2 °C 0,8 °C 40,2 km/h (6 Bft)
29.01.2025 13:03 21,1 °C 9,4 °C 49 % 76 % 1003,9 hPa 0,0 l/m² 29,0 km/h (5 Bft) SW 219 ° 0 min 51 W/m² 5,4 °C 0,0 °C 35,4 km/h (5 Bft)
29.01.2025 13:04 21,1 °C 9,4 °C 49 % 76 % 1004,0 hPa 0,0 l/m² 27,3 km/h (5 Bft) SW 227 ° 1 min 65 W/m² 5,4 °C 0,4 °C 37,0 km/h (5 Bft)
29.01.2025 13:05 21,1 °C 9,4 °C 49 % 76 % 1003,9 hPa 0,0 l/m² 23,3 km/h (4 Bft) SW 224 ° 1 min 69 W/m² 5,4 °C 1,5 °C 30,6 km/h (5 Bft)
29.01.2025 13:07 21,1 °C 9,4 °C 49 % 76 % 1003,9 hPa 0,0 l/m² 26,2 km/h (4 Bft) S-SW 205 ° 2 min 79 W/m² 5,4 °C 0,7 °C 33,8 km/h (5 Bft)
29.01.2025 13:08 21,1 °C 9,4 °C 49 % 76 % 1003,9 hPa 0,0 l/m² 25,7 km/h (4 Bft) SW 234 ° 1 min 95 W/m² 5,4 °C 0,8 °C 37,0 km/h (5 Bft)
29.01.2025 13:09 21,1 °C 9,4 °C 49 % 76 % 1003,9 hPa 0,0 l/m² 30,4 km/h (5 Bft) SW 220 ° 1 min 114 W/m² 5,4 °C -0,3 °C 40,2 km/h (6 Bft)
29.01.2025 13:10 21,1 °C 9,4 °C 49 % 75 % 1003,9 hPa 0,0 l/m² 31,2 km/h (5 Bft) SW 221 ° 1 min 165 W/m² 5,2 °C -0,4 °C 41,8 km/h (6 Bft)
29.01.2025 13:11 21,1 °C 9,4 °C 49 % 75 % 1004,0 hPa 0,0 l/m² 29,2 km/h (5 Bft) S-SW 201 ° 1 min 172 W/m² 5,2 °C -0,0 °C 37,0 km/h (5 Bft)
29.01.2025 13:12 21,1 °C 9,4 °C 49 % 75 % 1004,0 hPa 0,0 l/m² 23,8 km/h (4 Bft) SW 231 ° 1 min 190 W/m² 5,2 °C 1,3 °C 33,8 km/h (5 Bft)
29.01.2025 13:13 21,1 °C 9,5 °C 49 % 75 % 1004,0 hPa 0,0 l/m² 26,2 km/h (4 Bft) SW 223 ° 1 min 190 W/m² 5,3 °C 0,8 °C 32,2 km/h (5 Bft)
29.01.2025 13:14 21,1 °C 9,6 °C 49 % 76 % 1004,0 hPa 0,0 l/m² 25,5 km/h (4 Bft) W-SW 244 ° 1 min 236 W/m² 5,6 °C 1,2 °C 35,4 km/h (5 Bft)
29.01.2025 13:15 21,1 °C 9,7 °C 49 % 76 % 1004,0 hPa 0,0 l/m² 23,3 km/h (4 Bft) W-SW 239 ° 1 min 221 W/m² 5,7 °C 1,9 °C 29,0 km/h (5 Bft)
29.01.2025 13:16 21,1 °C 9,8 °C 49 % 76 % 1004,1 hPa 0,0 l/m² 29,0 km/h (5 Bft) S-SW 213 ° 1 min 239 W/m² 5,8 °C 0,6 °C 37,0 km/h (5 Bft)
29.01.2025 13:17 21,1 °C 9,8 °C 49 % 75 % 1004,0 hPa 0,0 l/m² 23,6 km/h (4 Bft) W-SW 239 ° 1 min 251 W/m² 5,6 °C 1,9 °C 32,2 km/h (5 Bft)
29.01.2025 13:18 21,1 °C 9,9 °C 49 % 75 % 1004,1 hPa 0,0 l/m² 19,6 km/h (3 Bft) SW 227 ° 1 min 251 W/m² 5,7 °C 3,3 °C 30,6 km/h (5 Bft)
29.01.2025 13:19 21,1 °C 10,1 °C 49 % 75 % 1004,1 hPa 0,0 l/m² 21,5 km/h (4 Bft) W-SW 244 ° 1 min 251 W/m² 5,9 °C 2,9 °C 27,4 km/h (5 Bft)
29.01.2025 13:20 21,1 °C 10,1 °C 49 % 75 % 1004,2 hPa 0,0 l/m² 22,1 km/h (4 Bft) W-SW 251 ° 1 min 230 W/m² 5,9 °C 2,8 °C 30,6 km/h (5 Bft)
29.01.2025 13:21 21,1 °C 10,1 °C 49 % 74 % 1004,2 hPa 0,0 l/m² 21,7 km/h (4 Bft) SW 231 ° 1 min 206 W/m² 5,7 °C 2,9 °C 25,7 km/h (4 Bft)
29.01.2025 13:22 21,0 °C 10,1 °C 49 % 73 % 1004,1 hPa 0,0 l/m² 29,0 km/h (5 Bft) W-SW 240 ° 1 min 167 W/m² 5,5 °C 1,0 °C 35,4 km/h (5 Bft)
29.01.2025 13:23 21,1 °C 10,1 °C 49 % 73 % 1004,2 hPa 0,0 l/m² 23,5 km/h (4 Bft) SW 217 ° 1 min 165 W/m² 5,5 °C 2,4 °C 29,0 km/h (5 Bft)
29.01.2025 13:24 21,1 °C 10,1 °C 49 % 74 % 1004,2 hPa 0,0 l/m² 21,9 km/h (4 Bft) SW 231 ° 1 min 171 W/m² 5,7 °C 2,8 °C 27,4 km/h (5 Bft)
29.01.2025 13:25 21,1 °C 10,1 °C 49 % 74 % 1004,1 hPa 0,0 l/m² 19,9 km/h (4 Bft) SW 223 ° 1 min 169 W/m² 5,7 °C 3,4 °C 25,7 km/h (4 Bft)
29.01.2025 13:26 21,1 °C 10,0 °C 49 % 74 % 1004,2 hPa 0,0 l/m² 31,7 km/h (5 Bft) S-SW 200 ° 1 min 169 W/m² 5,6 °C 0,3 °C 38,6 km/h (6 Bft)
29.01.2025 13:27 21,1 °C 9,9 °C 49 % 75 % 1004,2 hPa 0,0 l/m² 29,8 km/h (5 Bft) SW 217 ° 1 min 171 W/m² 5,7 °C 0,6 °C 37,0 km/h (5 Bft)
29.01.2025 13:28 21,1 °C 9,9 °C 49 % 74 % 1004,1 hPa 0,0 l/m² 28,0 km/h (5 Bft) SW 219 ° 1 min 190 W/m² 5,5 °C 1,0 °C 37,0 km/h (5 Bft)
29.01.2025 13:29 21,1 °C 9,9 °C 49 % 74 % 1004,2 hPa 0,0 l/m² 25,3 km/h (4 Bft) SW 215 ° 1 min 190 W/m² 5,5 °C 1,6 °C 33,8 km/h (5 Bft)
29.01.2025 13:30 21,1 °C 9,8 °C 49 % 75 % 1004,2 hPa 0,0 l/m² 24,1 km/h (4 Bft) SW 221 ° 1 min 199 W/m² 5,6 °C 1,8 °C 33,8 km/h (5 Bft)
29.01.2025 13:31 21,1 °C 9,9 °C 49 % 74 % 1004,2 hPa 0,0 l/m² 32,4 km/h (5 Bft) SW 230 ° 1 min 199 W/m² 5,5 °C 0,0 °C 40,2 km/h (6 Bft)
29.01.2025 13:32 21,1 °C 10,0 °C 49 % 74 % 1004,2 hPa 0,0 l/m² 29,7 km/h (5 Bft) SW 225 ° 1 min 199 W/m² 5,6 °C 0,7 °C 35,4 km/h (5 Bft)
29.01.2025 13:33 21,1 °C 10,1 °C 49 % 74 % 1004,2 hPa 0,0 l/m² 34,3 km/h (5 Bft) W-SW 243 ° 1 min 304 W/m² 5,7 °C -0,0 °C 46,7 km/h (6 Bft)
29.01.2025 13:34 21,1 °C 10,2 °C 49 % 73 % 1004,3 hPa 0,0 l/m² 29,0 km/h (5 Bft) SW 223 ° 1 min 304 W/m² 5,6 °C 1,2 °C 40,2 km/h (6 Bft)
29.01.2025 13:35 21,1 °C 10,2 °C 49 % 73 % 1004,2 hPa 0,0 l/m² 27,3 km/h (5 Bft) SW 236 ° 1 min 246 W/m² 5,6 °C 1,5 °C 33,8 km/h (5 Bft)
29.01.2025 13:36 21,1 °C 10,3 °C 49 % 73 % 1004,2 hPa 0,0 l/m² 32,9 km/h (5 Bft) SW 222 ° 1 min 299 W/m² 5,7 °C 0,5 °C 41,8 km/h (6 Bft)
29.01.2025 13:37 21,1 °C 10,3 °C 49 % 72 % 1004,2 hPa 0,0 l/m² 28,6 km/h (5 Bft) S-SW 207 ° 1 min 218 W/m² 5,5 °C 1,4 °C 35,4 km/h (5 Bft)
29.01.2025 13:38 21,1 °C 10,3 °C 49 % 73 % 1004,3 hPa 0,0 l/m² 33,0 km/h (5 Bft) S-SW 205 ° 1 min 218 W/m² 5,7 °C 0,5 °C 45,1 km/h (6 Bft)
29.01.2025 13:39 21,1 °C 10,4 °C 49 % 73 % 1004,3 hPa 0,0 l/m² 27,8 km/h (5 Bft) SW 230 ° 1 min 336 W/m² 5,8 °C 1,7 °C 38,6 km/h (6 Bft)
29.01.2025 13:40 21,1 °C 10,6 °C 49 % 73 % 1004,4 hPa 0,0 l/m² 31,9 km/h (5 Bft) S-SW 205 ° 1 min 335 W/m² 6,0 °C 1,1 °C 40,2 km/h (6 Bft)
29.01.2025 13:41 21,1 °C 10,6 °C 49 % 72 % 1004,4 hPa 0,0 l/m² 31,6 km/h (5 Bft) SW 225 ° 1 min 334 W/m² 5,8 °C 1,2 °C 41,8 km/h (6 Bft)
29.01.2025 13:42 21,1 °C 10,7 °C 49 % 71 % 1004,4 hPa 0,0 l/m² 29,1 km/h (5 Bft) N 360 ° 1 min 333 W/m² 5,7 °C 1,8 °C 41,8 km/h (6 Bft)
29.01.2025 13:43 21,0 °C 10,7 °C 49 % 72 % 1004,5 hPa 0,0 l/m² 38,2 km/h (6 Bft) S-SW 210 ° 1 min 333 W/m² 5,9 °C 0,2 °C 48,3 km/h (6 Bft)
29.01.2025 13:44 21,1 °C 10,6 °C 49 % 72 % 1004,5 hPa 0,0 l/m² 33,7 km/h (5 Bft) W-SW 244 ° 1 min 332 W/m² 5,8 °C 0,8 °C 41,8 km/h (6 Bft)
29.01.2025 13:45 21,1 °C 10,6 °C 49 % 71 % 1004,6 hPa 0,0 l/m² 25,3 km/h (4 Bft) SW 234 ° 1 min 237 W/m² 5,6 °C 2,6 °C 33,8 km/h (5 Bft)
29.01.2025 13:46 21,0 °C 10,6 °C 49 % 72 % 1004,6 hPa 0,0 l/m² 28,3 km/h (5 Bft) SW 220 ° 1 min 330 W/m² 5,8 °C 1,9 °C 37,0 km/h (5 Bft)
29.01.2025 13:47 21,1 °C 10,7 °C 49 % 72 % 1004,6 hPa 0,0 l/m² 31,8 km/h (5 Bft) W-SW 240 ° 1 min 329 W/m² 5,9 °C 1,3 °C 45,1 km/h (6 Bft)
29.01.2025 13:48 21,0 °C 10,7 °C 49 % 71 % 1004,6 hPa 0,0 l/m² 30,8 km/h (5 Bft) W-SW 249 ° 1 min 234 W/m² 5,7 °C 1,5 °C 37,0 km/h (5 Bft)
29.01.2025 13:49 21,0 °C 10,6 °C 49 % 71 % 1004,6 hPa 0,0 l/m² 33,9 km/h (5 Bft) SW 223 ° 1 min 269 W/m² 5,6 °C 0,8 °C 41,8 km/h (6 Bft)
29.01.2025 13:50 21,0 °C 10,5 °C 49 % 70 % 1004,7 hPa 0,0 l/m² 32,1 km/h (5 Bft) SW 230 ° 1 min 269 W/m² 5,3 °C 0,9 °C 45,1 km/h (6 Bft)
29.01.2025 13:51 21,0 °C 10,4 °C 49 % 71 % 1004,7 hPa 0,0 l/m² 39,0 km/h (6 Bft) W-SW 241 ° 1 min 348 W/m² 5,4 °C -0,4 °C 49,9 km/h (7 Bft)
29.01.2025 13:52 21,1 °C 10,4 °C 49 % 71 % 1004,6 hPa 0,0 l/m² 35,3 km/h (5 Bft) SW 226 ° 1 min 171 W/m² 5,4 °C 0,2 °C 45,1 km/h (6 Bft)
29.01.2025 13:53 21,0 °C 10,3 °C 49 % 71 % 1004,6 hPa 0,0 l/m² 32,6 km/h (5 Bft) SW 234 ° 1 min 135 W/m² 5,3 °C 0,6 °C 48,3 km/h (6 Bft)
29.01.2025 13:54 21,1 °C 10,2 °C 49 % 71 % 1004,6 hPa 0,0 l/m² 32,0 km/h (5 Bft) SW 230 ° 1 min 114 W/m² 5,2 °C 0,5 °C 41,8 km/h (6 Bft)
29.01.2025 13:55 21,0 °C 10,1 °C 49 % 72 % 1004,8 hPa 0,0 l/m² 32,7 km/h (5 Bft) SW 222 ° 1 min 105 W/m² 5,3 °C 0,3 °C 48,3 km/h (6 Bft)
29.01.2025 13:56 21,1 °C 10,0 °C 49 % 73 % 1004,9 hPa 0,0 l/m² 29,5 km/h (5 Bft) W-SW 240 ° 1 min 95 W/m² 5,4 °C 0,8 °C 37,0 km/h (5 Bft)
29.01.2025 13:57 21,1 °C 9,9 °C 49 % 73 % 1004,9 hPa 0,0 l/m² 38,8 km/h (6 Bft) W-SW 238 ° 1 min 63 W/m² 5,3 °C -1,1 °C 49,9 km/h (7 Bft)
29.01.2025 13:58 21,0 °C 9,8 °C 49 % 74 % 1005,1 hPa 0,0 l/m² 39,5 km/h (6 Bft) W-SW 252 ° 1 min 63 W/m² 5,4 °C -1,3 °C 51,5 km/h (7 Bft)
29.01.2025 13:59 21,1 °C 9,6 °C 49 % 74 % 1005,2 hPa 0,0 l/m² 33,9 km/h (5 Bft) W-SW 247 ° 1 min 67 W/m² 5,2 °C -0,7 °C 43,5 km/h (6 Bft)
29.01.2025 14:00 21,0 °C 9,4 °C 49 % 74 % 1005,2 hPa 0,0 l/m² 33,8 km/h (5 Bft) W 267 ° 1 min 63 W/m² 5,0 °C -1,0 °C 43,5 km/h (6 Bft)
29.01.2025 14:01 21,1 °C 9,3 °C 49 % 74 % 1005,2 hPa 0,0 l/m² 27,9 km/h (5 Bft) SW 231 ° 1 min 67 W/m² 4,9 °C 0,2 °C 35,4 km/h (5 Bft)
29.01.2025 14:02 21,1 °C 9,1 °C 49 % 74 % 1005,3 hPa 0,0 l/m² 35,3 km/h (5 Bft) SW 235 ° 1 min 79 W/m² 4,7 °C -1,7 °C 45,1 km/h (6 Bft)
29.01.2025 14:03 21,1 °C 8,9 °C 49 % 74 % 1005,2 hPa 0,0 l/m² 31,0 km/h (5 Bft) W 260 ° 1 min 109 W/m² 4,5 °C -1,1 °C 38,6 km/h (6 Bft)
29.01.2025 14:04 21,1 °C 8,8 °C 49 % 75 % 1005,2 hPa 0,0 l/m² 25,4 km/h (4 Bft) W 259 ° 1 min 113 W/m² 4,6 °C 0,1 °C 29,0 km/h (5 Bft)
29.01.2025 14:05 21,0 °C 8,7 °C 49 % 75 % 1005,2 hPa 0,0 l/m² 24,3 km/h (4 Bft) W-SW 249 ° 1 min 114 W/m² 4,5 °C 0,3 °C 29,0 km/h (5 Bft)
29.01.2025 14:06 21,1 °C 8,6 °C 49 % 76 % 1005,3 hPa 0,0 l/m² 23,6 km/h (4 Bft) W-SW 242 ° 1 min 118 W/m² 4,6 °C 0,3 °C 32,2 km/h (5 Bft)
29.01.2025 14:07 21,0 °C 8,6 °C 49 % 77 % 1005,4 hPa 0,0 l/m² 19,8 km/h (3 Bft) W-SW 255 ° 1 min 118 W/m² 4,8 °C 1,5 °C 27,4 km/h (5 Bft)
29.01.2025 14:08 21,0 °C 8,4 °C 49 % 77 % 1005,5 hPa 0,0 l/m² 20,9 km/h (4 Bft) W-SW 238 ° 1 min 120 W/m² 4,6 °C 0,9 °C 27,4 km/h (5 Bft)
29.01.2025 14:09 21,0 °C 8,4 °C 49 % 77 % 1005,4 hPa 0,0 l/m² 22,7 km/h (4 Bft) W-SW 241 ° 1 min 123 W/m² 4,6 °C 0,3 °C 30,6 km/h (5 Bft)
29.01.2025 14:10 21,0 °C 8,4 °C 49 % 78 % 1005,4 hPa 0,0 l/m² 23,2 km/h (4 Bft) W-SW 238 ° 1 min 128 W/m² 4,8 °C 0,2 °C 32,2 km/h (5 Bft)
29.01.2025 14:11 21,0 °C 8,4 °C 49 % 78 % 1005,4 hPa 0,0 l/m² 19,6 km/h (3 Bft) SW 229 ° 1 min 137 W/m² 4,8 °C 1,4 °C 24,1 km/h (4 Bft)
29.01.2025 14:12 21,0 °C 8,3 °C 49 % 78 % 1005,4 hPa 0,0 l/m² 17,1 km/h (3 Bft) W-SW 237 ° 1 min 148 W/m² 4,7 °C 2,2 °C 22,5 km/h (4 Bft)
29.01.2025 14:13 21,0 °C 8,3 °C 49 % 79 % 1005,4 hPa 0,0 l/m² 15,2 km/h (3 Bft) SW 236 ° 1 min 148 W/m² 4,9 °C 3,0 °C 17,7 km/h (3 Bft)
29.01.2025 14:14 21,0 °C 8,3 °C 49 % 79 % 1005,4 hPa 0,0 l/m² 18,8 km/h (3 Bft) W-SW 238 ° 1 min 137 W/m² 4,9 °C 1,5 °C 25,7 km/h (4 Bft)
29.01.2025 14:15 21,0 °C 8,3 °C 49 % 78 % 1005,3 hPa 0,0 l/m² 23,1 km/h (4 Bft) SW 234 ° 1 min 111 W/m² 4,7 °C 0,1 °C 30,6 km/h (5 Bft)
29.01.2025 14:16 21,0 °C 8,3 °C 49 % 78 % 1005,4 hPa 0,0 l/m² 16,5 km/h (3 Bft) SW 236 ° 1 min 128 W/m² 4,7 °C 2,4 °C 24,1 km/h (4 Bft)
29.01.2025 14:17 21,0 °C 8,3 °C 49 % 79 % 1005,3 hPa 0,0 l/m² 13,9 km/h (3 Bft) SW 225 ° 1 min 128 W/m² 4,9 °C 3,6 °C 19,3 km/h (3 Bft)
29.01.2025 14:18 21,0 °C 8,4 °C 49 % 79 % 1005,3 hPa 0,0 l/m² 18,1 km/h (3 Bft) SW 229 ° 1 min 330 W/m² 5,0 °C 1,9 °C 24,1 km/h (4 Bft)
29.01.2025 14:19 21,0 °C 8,5 °C 49 % 79 % 1005,4 hPa 0,0 l/m² 17,9 km/h (3 Bft) W 259 ° 1 min 330 W/m² 5,1 °C 2,1 °C 25,7 km/h (4 Bft)
29.01.2025 14:20 21,0 °C 8,6 °C 49 % 78 % 1005,4 hPa 0,0 l/m² 18,7 km/h (3 Bft) SW 229 ° 1 min 125 W/m² 5,0 °C 1,9 °C 24,1 km/h (4 Bft)
29.01.2025 14:21 21,0 °C 8,6 °C 49 % 79 % 1005,4 hPa 0,0 l/m² 13,7 km/h (3 Bft) SW 220 ° 1 min 84 W/m² 5,2 °C 4,0 °C 19,3 km/h (3 Bft)
29.01.2025 14:22 21,0 °C 8,6 °C 49 % 79 % 1005,4 hPa 0,0 l/m² 13,8 km/h (3 Bft) W-SW 256 ° 1 min 84 W/m² 5,2 °C 4,0 °C 20,9 km/h (4 Bft)
29.01.2025 14:23 21,0 °C 8,6 °C 49 % 79 % 1005,3 hPa 0,0 l/m² 17,7 km/h (3 Bft) SW 236 ° 1 min 313 W/m² 5,2 °C 2,3 °C 22,5 km/h (4 Bft)
29.01.2025 14:24 21,0 °C 8,7 °C 49 % 79 % 1005,4 hPa 0,0 l/m² 16,0 km/h (3 Bft) SW 222 ° 1 min 313 W/m² 5,3 °C 3,1 °C 24,1 km/h (4 Bft)
29.01.2025 14:25 21,0 °C 8,7 °C 49 % 79 % 1005,2 hPa 0,0 l/m² 14,1 km/h (3 Bft) W 277 ° 1 min 313 W/m² 5,3 °C 4,0 °C 17,7 km/h (3 Bft)
29.01.2025 14:26 21,0 °C 8,8 °C 49 % 78 % 1005,3 hPa 0,0 l/m² 19,6 km/h (3 Bft) SW 232 ° 1 min 258 W/m² 5,2 °C 1,9 °C 27,4 km/h (5 Bft)
29.01.2025 14:27 21,0 °C 8,8 °C 49 % 78 % 1005,3 hPa 0,0 l/m² 24,5 km/h (4 Bft) W-SW 246 ° 1 min 269 W/m² 5,2 °C 0,3 °C 29,0 km/h (5 Bft)
29.01.2025 14:28 21,0 °C 8,9 °C 49 % 78 % 1005,4 hPa 0,0 l/m² 21,3 km/h (4 Bft) W-SW 245 ° 1 min 269 W/m² 5,3 °C 1,4 °C 29,0 km/h (5 Bft)
29.01.2025 14:29 21,0 °C 9,0 °C 49 % 77 % 1005,3 hPa 0,0 l/m² 24,8 km/h (4 Bft) SW 230 ° 1 min 271 W/m² 5,2 °C 0,5 °C 32,2 km/h (5 Bft)
29.01.2025 14:30 21,0 °C 9,1 °C 49 % 77 % 1005,4 hPa 0,0 l/m² 19,5 km/h (3 Bft) SW 234 ° 1 min 271 W/m² 5,3 °C 2,3 °C 30,6 km/h (5 Bft)
29.01.2025 14:31 21,0 °C 9,2 °C 49 % 77 % 1005,5 hPa 0,0 l/m² 17,0 km/h (3 Bft) W 271 ° 1 min 267 W/m² 5,4 °C 3,3 °C 24,1 km/h (4 Bft)
29.01.2025 14:32 21,0 °C 9,2 °C 49 % 77 % 1005,4 hPa 0,0 l/m² 25,1 km/h (4 Bft) W-SW 237 ° 1 min 267 W/m² 5,4 °C 0,7 °C 30,6 km/h (5 Bft)
29.01.2025 14:33 21,0 °C 9,2 °C 49 % 76 % 1005,4 hPa 0,0 l/m² 26,5 km/h (4 Bft) SW 232 ° 1 min 223 W/m² 5,2 °C 0,4 °C 33,8 km/h (5 Bft)
29.01.2025 14:34 20,9 °C 9,2 °C 49 % 76 % 1005,5 hPa 0,0 l/m² 21,9 km/h (4 Bft) SW 234 ° 1 min 267 W/m² 5,2 °C 1,6 °C 25,7 km/h (4 Bft)
29.01.2025 14:35 20,9 °C 9,2 °C 49 % 76 % 1005,4 hPa 0,0 l/m² 19,8 km/h (3 Bft) W-SW 256 ° 1 min 257 W/m² 5,2 °C 2,3 °C 24,1 km/h (4 Bft)
29.01.2025 14:36 21,0 °C 9,2 °C 49 % 76 % 1005,4 hPa 0,0 l/m² 18,8 km/h (3 Bft) SW 234 ° 1 min 251 W/m² 5,2 °C 2,7 °C 25,7 km/h (4 Bft)
29.01.2025 14:37 21,0 °C 9,3 °C 49 % 75 % 1005,3 hPa 0,0 l/m² 23,4 km/h (4 Bft) W-SW 247 ° 1 min 251 W/m² 5,1 °C 1,3 °C 29,0 km/h (5 Bft)
29.01.2025 14:38 21,0 °C 9,3 °C 49 % 75 % 1005,4 hPa 0,0 l/m² 19,8 km/h (3 Bft) W-SW 254 ° 1 min 248 W/m² 5,1 °C 2,5 °C 29,0 km/h (5 Bft)
29.01.2025 14:39 21,0 °C 9,3 °C 49 % 75 % 1005,4 hPa 0,0 l/m² 24,6 km/h (4 Bft) SW 227 ° 1 min 244 W/m² 5,1 °C 1,0 °C 33,8 km/h (5 Bft)
29.01.2025 14:40 21,0 °C 9,3 °C 49 % 75 % 1005,5 hPa 0,0 l/m² 26,4 km/h (4 Bft) W-SW 247 ° 1 min 243 W/m² 5,1 °C 0,5 °C 30,6 km/h (5 Bft)
29.01.2025 14:41 20,9 °C 9,3 °C 49 % 74 % 1005,5 hPa 0,0 l/m² 19,8 km/h (3 Bft) W-SW 240 ° 1 min 239 W/m² 4,9 °C 2,5 °C 27,4 km/h (5 Bft)
29.01.2025 14:42 21,0 °C 9,3 °C 49 % 74 % 1005,5 hPa 0,0 l/m² 25,8 km/h (4 Bft) SW 236 ° 1 min 239 W/m² 4,9 °C 0,7 °C 29,0 km/h (5 Bft)
29.01.2025 14:43 21,0 °C 9,3 °C 49 % 74 % 1005,5 hPa 0,0 l/m² 18,4 km/h (3 Bft) W-SW 248 ° 1 min 237 W/m² 4,9 °C 2,9 °C 25,7 km/h (4 Bft)
29.01.2025 14:44 21,0 °C 9,3 °C 49 % 74 % 1005,5 hPa 0,0 l/m² 22,8 km/h (4 Bft) SW 232 ° 1 min 234 W/m² 4,9 °C 1,5 °C 27,4 km/h (5 Bft)
29.01.2025 14:45 21,0 °C 9,3 °C 49 % 74 % 1005,5 hPa 0,0 l/m² 18,0 km/h (3 Bft) SW 231 ° 1 min 230 W/m² 4,9 °C 3,1 °C 22,5 km/h (4 Bft)
29.01.2025 14:46 21,0 °C 9,3 °C 49 % 75 % 1005,6 hPa 0,0 l/m² 21,1 km/h (4 Bft) SW 231 ° 1 min 230 W/m² 5,1 °C 2,0 °C 25,7 km/h (4 Bft)
29.01.2025 14:47 21,0 °C 9,3 °C 49 % 75 % 1005,6 hPa 0,0 l/m² 17,1 km/h (3 Bft) W-SW 238 ° 1 min 230 W/m² 5,1 °C 3,4 °C 20,9 km/h (4 Bft)
29.01.2025 14:48 21,0 °C 9,3 °C 49 % 75 % 1005,7 hPa 0,0 l/m² 19,6 km/h (3 Bft) W-SW 249 ° 1 min 234 W/m² 5,1 °C 2,5 °C 24,1 km/h (4 Bft)
29.01.2025 14:49 21,0 °C 9,3 °C 49 % 74 % 1005,6 hPa 0,0 l/m² 20,1 km/h (4 Bft) SW 236 ° 1 min 213 W/m² 4,9 °C 2,3 °C 24,1 km/h (4 Bft)
29.01.2025 14:50 21,0 °C 9,4 °C 49 % 74 % 1005,7 hPa 0,0 l/m² 22,1 km/h (4 Bft) W-SW 252 ° 1 min 90 W/m² 5,0 °C 1,8 °C 25,7 km/h (4 Bft)
29.01.2025 14:51 21,0 °C 9,3 °C 49 % 74 % 1005,7 hPa 0,0 l/m² 21,2 km/h (4 Bft) SW 234 ° 1 min 69 W/m² 4,9 °C 2,0 °C 27,4 km/h (5 Bft)
29.01.2025 14:52 21,0 °C 9,2 °C 49 % 74 % 1005,7 hPa 0,0 l/m² 18,7 km/h (3 Bft) SW 229 ° 1 min 53 W/m² 4,8 °C 2,7 °C 22,5 km/h (4 Bft)
29.01.2025 14:53 21,0 °C 9,2 °C 49 % 74 % 1005,7 hPa 0,0 l/m² 16,8 km/h (3 Bft) SW 232 ° 0 min 46 W/m² 4,8 °C 3,4 °C 20,9 km/h (4 Bft)
29.01.2025 14:54 21,0 °C 9,0 °C 49 % 74 % 1005,7 hPa 0,0 l/m² 17,1 km/h (3 Bft) SW 225 ° 0 min 42 W/m² 4,6 °C 3,1 °C 22,5 km/h (4 Bft)
29.01.2025 14:55 21,0 °C 8,9 °C 49 % 74 % 1005,8 hPa 0,0 l/m² 21,1 km/h (4 Bft) W-SW 238 ° 0 min 47 W/m² 4,5 °C 1,5 °C 27,4 km/h (5 Bft)
29.01.2025 14:56 21,0 °C 8,8 °C 49 % 74 % 1005,8 hPa 0,0 l/m² 16,7 km/h (3 Bft) SW 229 ° 1 min 54 W/m² 4,4 °C 3,0 °C 20,9 km/h (4 Bft)
29.01.2025 14:57 21,0 °C 8,8 °C 49 % 75 % 1005,8 hPa 0,0 l/m² 14,9 km/h (3 Bft) SW 236 ° 1 min 54 W/m² 4,6 °C 3,7 °C 17,7 km/h (3 Bft)
29.01.2025 14:58 21,0 °C 8,8 °C 49 % 75 % 1005,9 hPa 0,0 l/m² 14,1 km/h (3 Bft) W-SW 238 ° 1 min 209 W/m² 4,6 °C 4,1 °C 20,9 km/h (4 Bft)
29.01.2025 14:59 20,9 °C 8,8 °C 49 % 76 % 1005,9 hPa 0,0 l/m² 10,6 km/h (2 Bft) SW 234 ° 1 min 193 W/m² 4,8 °C 5,9 °C 14,5 km/h (3 Bft)
29.01.2025 15:00 21,0 °C 8,9 °C 49 % 76 % 1005,9 hPa 0,0 l/m² 11,2 km/h (2 Bft) SW 221 ° 1 min 193 W/m² 4,9 °C 5,7 °C 17,7 km/h (3 Bft)
29.01.2025 15:01 20,9 °C 8,9 °C 49 % 76 % 1006,0 hPa 0,0 l/m² 20,1 km/h (4 Bft) SW 221 ° 1 min 193 W/m² 4,9 °C 1,8 °C 24,1 km/h (4 Bft)
29.01.2025 15:02 20,9 °C 8,9 °C 49 % 76 % 1005,9 hPa 0,0 l/m² 14,9 km/h (3 Bft) W-SW 240 ° 1 min 193 W/m² 4,9 °C 3,8 °C 20,9 km/h (4 Bft)
29.01.2025 15:03 20,9 °C 8,9 °C 49 % 75 % 1005,9 hPa 0,0 l/m² 13,7 km/h (3 Bft) SW 236 ° 1 min 188 W/m² 4,7 °C 4,4 °C 19,3 km/h (3 Bft)
29.01.2025 15:04 21,0 °C 8,9 °C 49 % 75 % 1006,0 hPa 0,0 l/m² 16,3 km/h (3 Bft) SW 229 ° 1 min 188 W/m² 4,7 °C 3,2 °C 24,1 km/h (4 Bft)
29.01.2025 15:05 20,9 °C 8,9 °C 49 % 75 % 1006,0 hPa 0,0 l/m² 14,4 km/h (3 Bft) SW 221 ° 1 min 188 W/m² 4,7 °C 4,1 °C 19,3 km/h (3 Bft)
29.01.2025 15:06 20,9 °C 8,9 °C 49 % 75 % 1006,1 hPa 0,0 l/m² 11,5 km/h (2 Bft) SW 214 ° 0 min 35 W/m² 4,7 °C 5,5 °C 16,1 km/h (3 Bft)
29.01.2025 15:07 20,9 °C 8,8 °C 49 % 75 % 1006,0 hPa 0,0 l/m² 13,6 km/h (3 Bft) SW 230 ° 0 min 37 W/m² 4,6 °C 4,3 °C 20,9 km/h (4 Bft)
29.01.2025 15:08 20,9 °C 8,7 °C 49 % 75 % 1006,1 hPa 0,0 l/m² 12,9 km/h (3 Bft) SW 228 ° 1 min 84 W/m² 4,5 °C 4,6 °C 17,7 km/h (3 Bft)
29.01.2025 15:09 20,9 °C 8,6 °C 49 % 76 % 1006,1 hPa 0,0 l/m² 11,3 km/h (2 Bft) W-SW 247 ° 1 min 155 W/m² 4,6 °C 5,3 °C 14,5 km/h (3 Bft)
29.01.2025 15:10 20,9 °C 8,6 °C 49 % 76 % 1006,2 hPa 0,0 l/m² 11,3 km/h (2 Bft) SW 236 ° 1 min 67 W/m² 4,6 °C 5,3 °C 16,1 km/h (3 Bft)
29.01.2025 15:11 20,9 °C 8,6 °C 49 % 76 % 1006,2 hPa 0,0 l/m² 15,0 km/h (3 Bft) SW 229 ° 1 min 77 W/m² 4,6 °C 3,4 °C 19,3 km/h (3 Bft)
29.01.2025 15:12 20,9 °C 8,5 °C 49 % 76 % 1006,2 hPa 0,0 l/m² 10,7 km/h (2 Bft) SW 234 ° 1 min 62 W/m² 4,5 °C 5,5 °C 14,5 km/h (3 Bft)
29.01.2025 15:13 20,9 °C 8,4 °C 49 % 77 % 1006,2 hPa 0,0 l/m² 10,7 km/h (2 Bft) SW 232 ° 1 min 74 W/m² 4,6 °C 5,4 °C 14,5 km/h (3 Bft)
29.01.2025 15:14 20,9 °C 8,4 °C 49 % 77 % 1006,3 hPa 0,0 l/m² 11,2 km/h (2 Bft) SW 229 ° 1 min 81 W/m² 4,6 °C 5,1 °C 17,7 km/h (3 Bft)
29.01.2025 15:15 20,9 °C 8,4 °C 49 % 77 % 1006,1 hPa 0,0 l/m² 16,2 km/h (3 Bft) SW 234 ° 1 min 90 W/m² 4,6 °C 2,7 °C 20,9 km/h (4 Bft)
29.01.2025 15:16 20,9 °C 8,3 °C 49 % 77 % 1006,3 hPa 0,0 l/m² 14,3 km/h (3 Bft) W-SW 240 ° 1 min 160 W/m² 4,5 °C 3,4 °C 19,3 km/h (3 Bft)
29.01.2025 15:17 20,9 °C 8,3 °C 49 % 77 % 1006,2 hPa 0,0 l/m² 12,0 km/h (2 Bft) SW 229 ° 1 min 109 W/m² 4,5 °C 4,6 °C 16,1 km/h (3 Bft)
29.01.2025 15:18 21,0 °C 8,4 °C 49 % 77 % 1006,2 hPa 0,0 l/m² 11,1 km/h (2 Bft) SW 214 ° 1 min 102 W/m² 4,6 °C 5,2 °C 14,5 km/h (3 Bft)
29.01.2025 15:19 20,9 °C 8,4 °C 49 % 78 % 1006,2 hPa 0,0 l/m² 12,5 km/h (2 Bft) W-SW 248 ° 1 min 98 W/m² 4,8 °C 4,4 °C 16,1 km/h (3 Bft)
29.01.2025 15:20 20,9 °C 8,4 °C 49 % 77 % 1006,2 hPa 0,0 l/m² 11,5 km/h (2 Bft) W-SW 239 ° 1 min 95 W/m² 4,6 °C 4,9 °C 17,7 km/h (3 Bft)
29.01.2025 15:21 20,9 °C 8,4 °C 49 % 77 % 1006,3 hPa 0,0 l/m² 10,5 km/h (2 Bft) W-SW 240 ° 1 min 160 W/m² 4,6 °C 5,5 °C 14,5 km/h (3 Bft)
29.01.2025 15:22 20,9 °C 8,4 °C 49 % 77 % 1006,2 hPa 0,0 l/m² 11,0 km/h (2 Bft) W-SW 240 ° 1 min 98 W/m² 4,6 °C 5,2 °C 14,5 km/h (3 Bft)
29.01.2025 15:23 21,0 °C 8,5 °C 49 % 77 % 1006,3 hPa 0,0 l/m² 11,0 km/h (2 Bft) SW 219 ° 1 min 98 W/m² 4,7 °C 5,3 °C 14,5 km/h (3 Bft)
29.01.2025 15:24 20,9 °C 8,5 °C 49 % 77 % 1006,2 hPa 0,0 l/m² 16,2 km/h (3 Bft) W-SW 240 ° 1 min 90 W/m² 4,7 °C 2,8 °C 20,9 km/h (4 Bft)
29.01.2025 15:25 20,9 °C 8,6 °C 49 % 77 % 1006,3 hPa 0,0 l/m² 14,8 km/h (3 Bft) SW 234 ° 1 min 95 W/m² 4,8 °C 3,5 °C 19,3 km/h (3 Bft)
29.01.2025 15:26 20,9 °C 8,6 °C 49 % 77 % 1006,3 hPa 0,0 l/m² 11,7 km/h (2 Bft) SW 230 ° 1 min 88 W/m² 4,8 °C 5,1 °C 16,1 km/h (3 Bft)
29.01.2025 15:27 20,9 °C 8,6 °C 49 % 77 % 1006,3 hPa 0,0 l/m² 16,2 km/h (3 Bft) SW 226 ° 1 min 86 W/m² 4,8 °C 2,9 °C 19,3 km/h (3 Bft)
29.01.2025 15:28 20,9 °C 8,6 °C 49 % 77 % 1006,3 hPa 0,0 l/m² 14,5 km/h (3 Bft) SW 224 ° 1 min 83 W/m² 4,8 °C 3,7 °C 17,7 km/h (3 Bft)
29.01.2025 15:29 20,9 °C 8,6 °C 49 % 77 % 1006,4 hPa 0,0 l/m² 14,3 km/h (3 Bft) SW 230 ° 1 min 148 W/m² 4,8 °C 3,8 °C 19,3 km/h (3 Bft)
29.01.2025 15:30 20,9 °C 8,6 °C 49 % 77 % 1006,3 hPa 0,0 l/m² 15,4 km/h (3 Bft) SW 229 ° 1 min 127 W/m² 4,8 °C 3,3 °C 19,3 km/h (3 Bft)
29.01.2025 15:31 20,9 °C 8,7 °C 49 % 77 % 1006,3 hPa 0,0 l/m² 14,4 km/h (3 Bft) SW 217 ° 1 min 125 W/m² 4,9 °C 3,8 °C 20,9 km/h (4 Bft)
29.01.2025 15:32 20,9 °C 8,7 °C 49 % 77 % 1006,4 hPa 0,0 l/m² 9,5 km/h (2 Bft) W-SW 246 ° 1 min 81 W/m² 4,9 °C 6,5 °C 12,9 km/h (3 Bft)
29.01.2025 15:33 20,9 °C 8,7 °C 49 % 77 % 1006,4 hPa 0,0 l/m² 14,5 km/h (3 Bft) S-SW 213 ° 1 min 79 W/m² 4,9 °C 3,8 °C 20,9 km/h (4 Bft)
29.01.2025 15:34 20,9 °C 8,7 °C 49 % 76 % 1006,3 hPa 0,0 l/m² 14,8 km/h (3 Bft) SW 223 ° 1 min 83 W/m² 4,7 °C 3,6 °C 19,3 km/h (3 Bft)
29.01.2025 15:35 20,9 °C 8,7 °C 49 % 76 % 1006,4 hPa 0,0 l/m² 17,4 km/h (3 Bft) SW 219 ° 1 min 79 W/m² 4,7 °C 2,6 °C 20,9 km/h (4 Bft)
29.01.2025 15:36 20,9 °C 8,7 °C 49 % 76 % 1006,4 hPa 0,0 l/m² 18,4 km/h (3 Bft) SW 217 ° 1 min 79 W/m² 4,7 °C 2,2 °C 27,4 km/h (5 Bft)
29.01.2025 15:37 20,9 °C 8,7 °C 49 % 76 % 1006,5 hPa 0,0 l/m² 15,9 km/h (3 Bft) SW 234 ° 1 min 74 W/m² 4,7 °C 3,2 °C 27,4 km/h (5 Bft)
29.01.2025 15:38 20,9 °C 8,6 °C 49 % 76 % 1006,4 hPa 0,0 l/m² 24,9 km/h (4 Bft) SW 218 ° 1 min 72 W/m² 4,6 °C -0,0 °C 32,2 km/h (5 Bft)
29.01.2025 15:39 20,9 °C 8,6 °C 49 % 76 % 1006,5 hPa 0,0 l/m² 18,4 km/h (3 Bft) W-SW 244 ° 1 min 69 W/m² 4,6 °C 2,1 °C 24,1 km/h (4 Bft)
29.01.2025 15:40 20,9 °C 8,6 °C 49 % 76 % 1006,6 hPa 0,0 l/m² 21,1 km/h (4 Bft) W-SW 247 ° 1 min 69 W/m² 4,6 °C 1,1 °C 27,4 km/h (5 Bft)
29.01.2025 15:41 20,9 °C 8,6 °C 49 % 76 % 1006,5 hPa 0,0 l/m² 20,3 km/h (4 Bft) W-SW 241 ° 1 min 70 W/m² 4,6 °C 1,4 °C 25,7 km/h (4 Bft)
29.01.2025 15:42 20,9 °C 8,7 °C 49 % 76 % 1006,6 hPa 0,0 l/m² 15,1 km/h (3 Bft) SW 229 ° 1 min 76 W/m² 4,7 °C 3,5 °C 20,9 km/h (4 Bft)
29.01.2025 15:43 20,9 °C 8,6 °C 49 % 76 % 1006,6 hPa 0,0 l/m² 18,7 km/h (3 Bft) SW 228 ° 1 min 77 W/m² 4,6 °C 1,9 °C 24,1 km/h (4 Bft)
29.01.2025 15:44 20,9 °C 8,6 °C 49 % 76 % 1006,6 hPa 0,0 l/m² 20,0 km/h (4 Bft) SW 226 ° 1 min 76 W/m² 4,6 °C 1,5 °C 27,4 km/h (5 Bft)
29.01.2025 15:45 20,9 °C 8,6 °C 49 % 76 % 1006,6 hPa 0,0 l/m² 16,1 km/h (3 Bft) W-SW 244 ° 1 min 77 W/m² 4,6 °C 3,0 °C 17,7 km/h (3 Bft)
29.01.2025 15:46 20,9 °C 8,6 °C 49 % 76 % 1006,6 hPa 0,0 l/m² 13,1 km/h (3 Bft) W 261 ° 1 min 63 W/m² 4,6 °C 4,3 °C 17,7 km/h (3 Bft)
29.01.2025 15:47 20,9 °C 8,6 °C 49 % 76 % 1006,6 hPa 0,0 l/m² 16,7 km/h (3 Bft) W-SW 242 ° 1 min 62 W/m² 4,6 °C 2,7 °C 24,1 km/h (4 Bft)
29.01.2025 15:48 20,9 °C 8,5 °C 49 % 76 % 1006,6 hPa 0,0 l/m² 13,0 km/h (3 Bft) SW 232 ° 1 min 60 W/m² 4,5 °C 4,3 °C 17,7 km/h (3 Bft)
29.01.2025 15:49 20,9 °C 8,5 °C 49 % 76 % 1006,6 hPa 0,0 l/m² 14,7 km/h (3 Bft) SW 219 ° 1 min 58 W/m² 4,5 °C 3,5 °C 19,3 km/h (3 Bft)
29.01.2025 15:50 20,9 °C 8,4 °C 49 % 76 % 1006,5 hPa 0,0 l/m² 16,7 km/h (3 Bft) SW 221 ° 1 min 56 W/m² 4,4 °C 2,5 °C 20,9 km/h (4 Bft)
29.01.2025 15:51 20,9 °C 8,4 °C 49 % 76 % 1006,7 hPa 0,0 l/m² 16,3 km/h (3 Bft) SW 216 ° 1 min 58 W/m² 4,4 °C 2,6 °C 24,1 km/h (4 Bft)
29.01.2025 15:52 20,9 °C 8,3 °C 49 % 76 % 1006,7 hPa 0,0 l/m² 20,7 km/h (4 Bft) SW 218 ° 1 min 60 W/m² 4,3 °C 0,9 °C 25,7 km/h (4 Bft)
29.01.2025 15:53 20,9 °C 8,3 °C 49 % 76 % 1006,7 hPa 0,0 l/m² 16,2 km/h (3 Bft) SW 225 ° 1 min 60 W/m² 4,3 °C 2,6 °C 20,9 km/h (4 Bft)
29.01.2025 15:54 20,9 °C 8,3 °C 49 % 77 % 1006,7 hPa 0,0 l/m² 14,1 km/h (3 Bft) S-SW 210 ° 1 min 60 W/m² 4,5 °C 3,5 °C 17,7 km/h (3 Bft)
29.01.2025 15:55 20,9 °C 8,3 °C 49 % 77 % 1006,7 hPa 0,0 l/m² 20,0 km/h (4 Bft) SW 226 ° 1 min 58 W/m² 4,5 °C 1,1 °C 24,1 km/h (4 Bft)
29.01.2025 15:56 20,9 °C 8,2 °C 49 % 77 % 1006,8 hPa 0,0 l/m² 16,8 km/h (3 Bft) W-SW 247 ° 1 min 56 W/m² 4,4 °C 2,2 °C 24,1 km/h (4 Bft)
29.01.2025 15:57 20,9 °C 8,2 °C 49 % 77 % 1006,7 hPa 0,0 l/m² 15,1 km/h (3 Bft) SW 219 ° 1 min 56 W/m² 4,4 °C 2,9 °C 19,3 km/h (3 Bft)
29.01.2025 15:58 20,9 °C 8,2 °C 49 % 78 % 1006,8 hPa 0,0 l/m² 14,3 km/h (3 Bft) SW 221 ° 1 min 81 W/m² 4,6 °C 3,3 °C 19,3 km/h (3 Bft)
29.01.2025 15:59 20,9 °C 8,2 °C 49 % 78 % 1006,8 hPa 0,0 l/m² 18,9 km/h (3 Bft) SW 216 ° 0 min 51 W/m² 4,6 °C 1,4 °C 22,5 km/h (4 Bft)
29.01.2025 16:00 20,9 °C 8,2 °C 49 % 77 % 1006,8 hPa 0,0 l/m² 16,0 km/h (3 Bft) SW 225 ° 0 min 44 W/m² 4,4 °C 2,5 °C 22,5 km/h (4 Bft)
29.01.2025 16:01 20,9 °C 8,2 °C 49 % 77 % 1006,8 hPa 0,0 l/m² 20,7 km/h (4 Bft) SW 215 ° 0 min 44 W/m² 4,4 °C 0,7 °C 25,7 km/h (4 Bft)
29.01.2025 16:02 20,9 °C 8,1 °C 49 % 77 % 1006,8 hPa 0,0 l/m² 18,3 km/h (3 Bft) S-SW 213 ° 0 min 46 W/m² 4,3 °C 1,5 °C 22,5 km/h (4 Bft)
29.01.2025 16:03 20,9 °C 8,1 °C 49 % 77 % 1006,8 hPa 0,0 l/m² 15,0 km/h (3 Bft) SW 218 ° 0 min 46 W/m² 4,3 °C 2,8 °C 19,3 km/h (3 Bft)
29.01.2025 16:04 20,9 °C 8,1 °C 49 % 77 % 1006,9 hPa 0,0 l/m² 15,0 km/h (3 Bft) SW 217 ° 0 min 46 W/m² 4,3 °C 2,8 °C 19,3 km/h (3 Bft)
29.01.2025 16:05 20,9 °C 8,1 °C 49 % 77 % 1006,8 hPa 0,0 l/m² 17,2 km/h (3 Bft) SW 227 ° 0 min 44 W/m² 4,3 °C 1,9 °C 22,5 km/h (4 Bft)
29.01.2025 16:06 20,9 °C 8,1 °C 49 % 78 % 1006,8 hPa 0,0 l/m² 13,8 km/h (3 Bft) SW 216 ° 0 min 39 W/m² 4,5 °C 3,4 °C 16,1 km/h (3 Bft)
29.01.2025 16:07 20,9 °C 8,1 °C 49 % 78 % 1006,8 hPa 0,0 l/m² 13,8 km/h (3 Bft) SW 222 ° 0 min 39 W/m² 4,5 °C 3,4 °C 16,1 km/h (3 Bft)
29.01.2025 16:08 20,9 °C 8,1 °C 49 % 78 % 1006,9 hPa 0,0 l/m² 14,0 km/h (3 Bft) SW 221 ° 0 min 39 W/m² 4,5 °C 3,3 °C 19,3 km/h (3 Bft)
29.01.2025 16:09 20,9 °C 8,1 °C 49 % 78 % 1006,9 hPa 0,0 l/m² 13,8 km/h (3 Bft) SW 232 ° 0 min 40 W/m² 4,5 °C 3,4 °C 16,1 km/h (3 Bft)
29.01.2025 16:10 20,9 °C 8,0 °C 49 % 78 % 1006,9 hPa 0,0 l/m² 18,5 km/h (3 Bft) SW 219 ° 0 min 42 W/m² 4,4 °C 1,3 °C 22,5 km/h (4 Bft)
29.01.2025 16:11 20,9 °C 8,0 °C 49 % 78 % 1006,9 hPa 0,0 l/m² 20,2 km/h (4 Bft) SW 225 ° 0 min 42 W/m² 4,4 °C 0,6 °C 24,1 km/h (4 Bft)
29.01.2025 16:12 20,8 °C 8,1 °C 49 % 78 % 1007,0 hPa 0,0 l/m² 13,7 km/h (3 Bft) SW 229 ° 0 min 46 W/m² 4,5 °C 3,4 °C 22,5 km/h (4 Bft)
29.01.2025 16:13 20,9 °C 8,0 °C 49 % 78 % 1006,9 hPa 0,0 l/m² 16,4 km/h (3 Bft) SW 223 ° 0 min 46 W/m² 4,4 °C 2,1 °C 20,9 km/h (4 Bft)
29.01.2025 16:14 20,9 °C 8,0 °C 49 % 78 % 1006,9 hPa 0,0 l/m² 15,8 km/h (3 Bft) SW 222 ° 0 min 44 W/m² 4,4 °C 2,4 °C 19,3 km/h (3 Bft)
29.01.2025 16:15 20,9 °C 7,9 °C 49 % 78 % 1007,0 hPa 0,0 l/m² 13,8 km/h (3 Bft) SW 225 ° 0 min 44 W/m² 4,3 °C 3,2 °C 22,5 km/h (4 Bft)
29.01.2025 16:16 20,9 °C 7,9 °C 49 % 78 % 1007,1 hPa 0,0 l/m² 14,3 km/h (3 Bft) W-SW 241 ° 0 min 44 W/m² 4,3 °C 2,9 °C 20,9 km/h (4 Bft)
29.01.2025 16:17 20,9 °C 7,9 °C 49 % 78 % 1007,0 hPa 0,0 l/m² 21,1 km/h (4 Bft) S-SW 211 ° 0 min 46 W/m² 4,3 °C 0,2 °C 27,4 km/h (5 Bft)
29.01.2025 16:18 20,9 °C 7,9 °C 49 % 78 % 1007,0 hPa 0,0 l/m² 19,5 km/h (3 Bft) SW 229 ° 0 min 35 W/m² 4,3 °C 0,8 °C 22,5 km/h (4 Bft)
29.01.2025 16:19 20,9 °C 7,9 °C 49 % 78 % 1007,1 hPa 0,0 l/m² 16,5 km/h (3 Bft) SW 221 ° 0 min 32 W/m² 4,3 °C 1,9 °C 22,5 km/h (4 Bft)
29.01.2025 16:20 20,9 °C 7,9 °C 49 % 78 % 1007,1 hPa 0,0 l/m² 19,0 km/h (3 Bft) SW 233 ° 0 min 26 W/m² 4,3 °C 0,9 °C 25,7 km/h (4 Bft)
29.01.2025 16:21 20,9 °C 7,9 °C 49 % 78 % 1007,1 hPa 0,0 l/m² 19,1 km/h (3 Bft) SW 217 ° 0 min 26 W/m² 4,3 °C 0,9 °C 27,4 km/h (5 Bft)
29.01.2025 16:22 20,9 °C 7,9 °C 49 % 78 % 1007,1 hPa 0,0 l/m² 19,9 km/h (4 Bft) SW 221 ° 0 min 26 W/m² 4,3 °C 0,6 °C 25,7 km/h (4 Bft)
29.01.2025 16:23 20,9 °C 7,9 °C 49 % 78 % 1007,2 hPa 0,0 l/m² 16,6 km/h (3 Bft) SW 222 ° 0 min 30 W/m² 4,3 °C 1,9 °C 24,1 km/h (4 Bft)
29.01.2025 16:24 20,9 °C 7,8 °C 49 % 78 % 1007,1 hPa 0,0 l/m² 17,0 km/h (3 Bft) W-SW 246 ° 0 min 35 W/m² 4,2 °C 1,6 °C 22,5 km/h (4 Bft)
29.01.2025 16:25 20,9 °C 7,8 °C 49 % 78 % 1007,2 hPa 0,0 l/m² 16,3 km/h (3 Bft) SW 228 ° 0 min 33 W/m² 4,2 °C 1,9 °C 20,9 km/h (4 Bft)
29.01.2025 16:26 20,9 °C 7,9 °C 49 % 78 % 1007,1 hPa 0,0 l/m² 10,8 km/h (2 Bft) SW 219 ° 0 min 33 W/m² 4,3 °C 4,8 °C 17,7 km/h (3 Bft)
29.01.2025 16:27 20,9 °C 7,8 °C 49 % 78 % 1007,2 hPa 0,0 l/m² 16,9 km/h (3 Bft) SW 234 ° 0 min 32 W/m² 4,2 °C 1,6 °C 22,5 km/h (4 Bft)
29.01.2025 16:28 20,8 °C 7,8 °C 49 % 78 % 1007,3 hPa 0,0 l/m² 13,3 km/h (3 Bft) SW 228 ° 0 min 28 W/m² 4,2 °C 3,3 °C 19,3 km/h (3 Bft)
29.01.2025 16:29 20,9 °C 7,8 °C 49 % 78 % 1007,3 hPa 0,0 l/m² 16,3 km/h (3 Bft) SW 220 ° 0 min 26 W/m² 4,2 °C 1,9 °C 20,9 km/h (4 Bft)
29.01.2025 16:30 20,9 °C 7,8 °C 49 % 78 % 1007,3 hPa 0,0 l/m² 21,7 km/h (4 Bft) SW 227 ° 0 min 21 W/m² 4,2 °C -0,1 °C 30,6 km/h (5 Bft)
29.01.2025 16:31 20,8 °C 7,8 °C 49 % 78 % 1007,3 hPa 0,0 l/m² 19,8 km/h (3 Bft) SW 225 ° 0 min 18 W/m² 4,2 °C 0,5 °C 30,6 km/h (5 Bft)
29.01.2025 16:32 20,9 °C 7,7 °C 49 % 77 % 1007,3 hPa 0,0 l/m² 13,0 km/h (3 Bft) SW 227 ° 0 min 18 W/m² 3,9 °C 3,3 °C 16,1 km/h (3 Bft)
29.01.2025 16:33 20,9 °C 7,7 °C 49 % 78 % 1007,3 hPa 0,0 l/m² 19,4 km/h (3 Bft) W-SW 241 ° 0 min 19 W/m² 4,1 °C 0,5 °C 27,4 km/h (5 Bft)
29.01.2025 16:34 20,9 °C 7,7 °C 49 % 77 % 1007,2 hPa 0,0 l/m² 16,6 km/h (3 Bft) SW 227 ° 0 min 18 W/m² 3,9 °C 1,6 °C 24,1 km/h (4 Bft)
29.01.2025 16:35 20,9 °C 7,7 °C 49 % 77 % 1007,3 hPa 0,0 l/m² 14,9 km/h (3 Bft) SW 229 ° 0 min 16 W/m² 3,9 °C 2,4 °C 19,3 km/h (3 Bft)
29.01.2025 16:36 20,9 °C 7,7 °C 49 % 78 % 1007,2 hPa 0,0 l/m² 14,4 km/h (3 Bft) SW 228 ° 0 min 14 W/m² 4,1 °C 2,6 °C 19,3 km/h (3 Bft)
29.01.2025 16:37 20,9 °C 7,6 °C 49 % 78 % 1007,2 hPa 0,0 l/m² 11,3 km/h (2 Bft) SW 219 ° 0 min 14 W/m² 4,0 °C 4,1 °C 14,5 km/h (3 Bft)
29.01.2025 16:38 20,9 °C 7,6 °C 49 % 78 % 1007,3 hPa 0,0 l/m² 15,0 km/h (3 Bft) SW 222 ° 0 min 14 W/m² 4,0 °C 2,2 °C 17,7 km/h (3 Bft)
29.01.2025 16:39 20,9 °C 7,5 °C 49 % 78 % 1007,3 hPa 0,0 l/m² 15,4 km/h (3 Bft) SW 232 ° 0 min 12 W/m² 3,9 °C 1,9 °C 19,3 km/h (3 Bft)
29.01.2025 16:40 20,9 °C 7,4 °C 49 % 78 % 1007,2 hPa 0,0 l/m² 16,3 km/h (3 Bft) SW 218 ° 0 min 12 W/m² 3,8 °C 1,4 °C 17,7 km/h (3 Bft)
29.01.2025 16:41 20,9 °C 7,4 °C 49 % 78 % 1007,3 hPa 0,0 l/m² 16,0 km/h (3 Bft) S-SW 210 ° 0 min 11 W/m² 3,8 °C 1,5 °C 20,9 km/h (4 Bft)
29.01.2025 16:42 20,9 °C 7,4 °C 49 % 78 % 1007,3 hPa 0,0 l/m² 17,2 km/h (3 Bft) SW 219 ° 0 min 11 W/m² 3,8 °C 1,0 °C 22,5 km/h (4 Bft)
29.01.2025 16:43 20,9 °C 7,3 °C 49 % 78 % 1007,1 hPa 0,0 l/m² 15,8 km/h (3 Bft) SW 218 ° 0 min 11 W/m² 3,7 °C 1,5 °C 17,7 km/h (3 Bft)
29.01.2025 16:44 20,9 °C 7,3 °C 49 % 79 % 1007,2 hPa 0,0 l/m² 16,7 km/h (3 Bft) SW 219 ° 0 min 9 W/m² 3,9 °C 1,1 °C 19,3 km/h (3 Bft)
29.01.2025 16:45 20,9 °C 7,3 °C 49 % 79 % 1007,2 hPa 0,0 l/m² 16,6 km/h (3 Bft) SW 216 ° 0 min 9 W/m² 3,9 °C 1,1 °C 19,3 km/h (3 Bft)
29.01.2025 16:46 20,9 °C 7,3 °C 49 % 79 % 1007,3 hPa 0,0 l/m² 14,4 km/h (3 Bft) SW 223 ° 0 min 9 W/m² 3,9 °C 2,1 °C 19,3 km/h (3 Bft)
29.01.2025 16:47 20,9 °C 7,2 °C 49 % 79 % 1007,2 hPa 0,0 l/m² 16,2 km/h (3 Bft) SW 221 ° 0 min 7 W/m² 3,8 °C 1,2 °C 19,3 km/h (3 Bft)
29.01.2025 16:48 20,9 °C 7,2 °C 49 % 79 % 1007,3 hPa 0,0 l/m² 15,2 km/h (3 Bft) SW 233 ° 0 min 7 W/m² 3,8 °C 1,6 °C 19,3 km/h (3 Bft)
29.01.2025 16:49 20,9 °C 7,1 °C 49 % 79 % 1007,4 hPa 0,0 l/m² 14,6 km/h (3 Bft) SW 228 ° 0 min 7 W/m² 3,7 °C 1,8 °C 19,3 km/h (3 Bft)
29.01.2025 16:50 20,9 °C 7,1 °C 49 % 79 % 1007,5 hPa 0,0 l/m² 16,4 km/h (3 Bft) W-SW 254 ° 0 min 7 W/m² 3,7 °C 1,0 °C 19,3 km/h (3 Bft)
29.01.2025 16:51 20,9 °C 7,1 °C 49 % 79 % 1007,5 hPa 0,0 l/m² 13,1 km/h (3 Bft) SW 221 ° 0 min 7 W/m² 3,7 °C 2,6 °C 19,3 km/h (3 Bft)
29.01.2025 16:52 20,9 °C 7,1 °C 49 % 79 % 1007,6 hPa 0,0 l/m² 12,9 km/h (3 Bft) SW 217 ° 0 min 5 W/m² 3,7 °C 2,7 °C 16,1 km/h (3 Bft)
29.01.2025 16:53 20,9 °C 6,9 °C 49 % 79 % 1007,5 hPa 0,0 l/m² 14,1 km/h (3 Bft) SW 215 ° 0 min 5 W/m² 3,5 °C 1,8 °C 17,7 km/h (3 Bft)
29.01.2025 16:54 20,9 °C 6,9 °C 49 % 80 % 1007,5 hPa 0,0 l/m² 11,6 km/h (2 Bft) SW 220 ° 0 min 5 W/m² 3,7 °C 3,2 °C 14,5 km/h (3 Bft)
29.01.2025 16:55 20,9 °C 6,9 °C 49 % 79 % 1007,5 hPa 0,0 l/m² 11,8 km/h (2 Bft) SW 224 ° 0 min 5 W/m² 3,5 °C 3,1 °C 16,1 km/h (3 Bft)
29.01.2025 16:56 20,9 °C 6,8 °C 49 % 80 % 1007,6 hPa 0,0 l/m² 11,5 km/h (2 Bft) W-SW 239 ° 0 min 5 W/m² 3,6 °C 3,1 °C 12,9 km/h (3 Bft)
29.01.2025 16:57 20,9 °C 6,8 °C 49 % 80 % 1007,6 hPa 0,0 l/m² 12,2 km/h (2 Bft) SW 223 ° 0 min 0 W/m² 3,6 °C 2,7 °C 16,1 km/h (3 Bft)
29.01.2025 16:58 20,9 °C 6,7 °C 49 % 80 % 1007,6 hPa 0,0 l/m² 11,3 km/h (2 Bft) SW 215 ° 0 min 0 W/m² 3,5 °C 3,1 °C 14,5 km/h (3 Bft)
29.01.2025 16:59 20,9 °C 6,7 °C 49 % 80 % 1007,7 hPa 0,0 l/m² 10,8 km/h (2 Bft) SW 230 ° 0 min 0 W/m² 3,5 °C 3,4 °C 14,5 km/h (3 Bft)
29.01.2025 17:00 20,9 °C 6,7 °C 49 % 80 % 1007,7 hPa 0,0 l/m² 8,4 km/h (2 Bft) SW 225 ° 0 min 0 W/m² 3,5 °C 5,1 °C 11,3 km/h (2 Bft)
29.01.2025 17:01 20,9 °C 6,6 °C 49 % 80 % 1007,7 hPa 0,0 l/m² 11,0 km/h (2 Bft) SW 221 ° 0 min 0 W/m² 3,4 °C 3,2 °C 12,9 km/h (3 Bft)
29.01.2025 17:02 20,9 °C 6,6 °C 49 % 80 % 1007,7 hPa 0,0 l/m² 8,7 km/h (2 Bft) SW 224 ° 0 min 0 W/m² 3,4 °C 4,8 °C 11,3 km/h (2 Bft)
29.01.2025 17:03 20,9 °C 6,5 °C 49 % 81 % 1007,6 hPa 0,0 l/m² 9,1 km/h (2 Bft) SW 223 ° 0 min 0 W/m² 3,5 °C 4,4 °C 11,3 km/h (2 Bft)
29.01.2025 17:04 20,9 °C 6,4 °C 49 % 81 % 1007,7 hPa 0,0 l/m² 8,9 km/h (2 Bft) SW 228 ° 0 min 0 W/m² 3,4 °C 4,4 °C 11,3 km/h (2 Bft)
29.01.2025 17:05 20,9 °C 6,4 °C 49 % 81 % 1007,6 hPa 0,0 l/m² 7,4 km/h (2 Bft) SW 228 ° 0 min 0 W/m² 3,4 °C 5,6 °C 8,0 km/h (2 Bft)
29.01.2025 17:06 20,9 °C 6,4 °C 49 % 81 % 1007,7 hPa 0,0 l/m² 7,0 km/h (2 Bft) SW 229 ° 0 min 0 W/m² 3,4 °C 5,9 °C 8,0 km/h (2 Bft)
29.01.2025 17:07 20,9 °C 6,3 °C 49 % 81 % 1007,7 hPa 0,0 l/m² 5,8 km/h (2 Bft) SW 227 ° 0 min 0 W/m² 3,3 °C 6,3 °C 6,4 km/h (2 Bft)
29.01.2025 17:08 20,9 °C 6,3 °C 49 % 81 % 1007,7 hPa 0,0 l/m² 6,3 km/h (2 Bft) SW 231 ° 0 min 0 W/m² 3,3 °C 6,3 °C 8,0 km/h (2 Bft)
29.01.2025 17:09 20,9 °C 6,3 °C 49 % 81 % 1007,6 hPa 0,0 l/m² 6,5 km/h (2 Bft) SW 230 ° 0 min 0 W/m² 3,3 °C 6,2 °C 8,0 km/h (2 Bft)
29.01.2025 17:10 20,9 °C 6,3 °C 49 % 82 % 1007,7 hPa 0,0 l/m² 7,4 km/h (2 Bft) SW 232 ° 0 min 0 W/m² 3,5 °C 5,5 °C 9,7 km/h (2 Bft)
29.01.2025 17:11 20,9 °C 6,3 °C 49 % 82 % 1007,8 hPa 0,0 l/m² 6,7 km/h (2 Bft) SW 236 ° 0 min 0 W/m² 3,5 °C 6,1 °C 9,7 km/h (2 Bft)
29.01.2025 17:12 20,9 °C 6,3 °C 49 % 82 % 1007,7 hPa 0,0 l/m² 6,4 km/h (2 Bft) W-SW 241 ° 0 min 0 W/m² 3,5 °C 6,3 °C 8,0 km/h (2 Bft)
29.01.2025 17:13 20,9 °C 6,3 °C 49 % 82 % 1007,7 hPa 0,0 l/m² 7,1 km/h (2 Bft) W-SW 242 ° 0 min 0 W/m² 3,5 °C 5,7 °C 9,7 km/h (2 Bft)
29.01.2025 17:14 20,9 °C 6,3 °C 49 % 82 % 1007,7 hPa 0,0 l/m² 8,3 km/h (2 Bft) SW 236 ° 0 min 0 W/m² 3,5 °C 4,7 °C 9,7 km/h (2 Bft)
29.01.2025 17:15 20,9 °C 6,3 °C 49 % 82 % 1007,7 hPa 0,0 l/m² 9,8 km/h (2 Bft) SW 234 ° 0 min 0 W/m² 3,5 °C 3,6 °C 12,9 km/h (3 Bft)
29.01.2025 17:16 20,9 °C 6,3 °C 49 % 82 % 1007,7 hPa 0,0 l/m² 7,2 km/h (2 Bft) SW 233 ° 0 min 0 W/m² 3,5 °C 5,6 °C 8,0 km/h (2 Bft)
29.01.2025 17:17 20,9 °C 6,2 °C 49 % 82 % 1007,7 hPa 0,0 l/m² 7,3 km/h (2 Bft) W-SW 242 ° 0 min 0 W/m² 3,4 °C 5,4 °C 9,7 km/h (2 Bft)
29.01.2025 17:18 20,9 °C 6,2 °C 49 % 81 % 1007,8 hPa 0,0 l/m² 8,2 km/h (2 Bft) W-SW 242 ° 0 min 0 W/m² 3,2 °C 4,7 °C 11,3 km/h (2 Bft)
29.01.2025 17:19 20,9 °C 6,1 °C 49 % 82 % 1007,8 hPa 0,0 l/m² 8,9 km/h (2 Bft) W-SW 237 ° 0 min 0 W/m² 3,3 °C 4,1 °C 12,9 km/h (3 Bft)
29.01.2025 17:20 20,9 °C 6,1 °C 49 % 82 % 1007,9 hPa 0,0 l/m² 8,0 km/h (2 Bft) W-SW 241 ° 0 min 0 W/m² 3,3 °C 4,8 °C 9,7 km/h (2 Bft)
29.01.2025 17:21 20,9 °C 6,1 °C 49 % 82 % 1007,9 hPa 0,0 l/m² 8,4 km/h (2 Bft) W-SW 239 ° 0 min 0 W/m² 3,3 °C 4,4 °C 12,9 km/h (3 Bft)
29.01.2025 17:22 20,9 °C 6,1 °C 49 % 82 % 1007,9 hPa 0,0 l/m² 8,7 km/h (2 Bft) SW 236 ° 0 min 0 W/m² 3,3 °C 4,2 °C 9,7 km/h (2 Bft)
29.01.2025 17:23 20,9 °C 6,0 °C 49 % 82 % 1007,9 hPa 0,0 l/m² 7,6 km/h (2 Bft) W-SW 240 ° 0 min 0 W/m² 3,2 °C 5,0 °C 9,7 km/h (2 Bft)
29.01.2025 17:24 20,9 °C 6,0 °C 49 % 82 % 1008,0 hPa 0,0 l/m² 7,4 km/h (2 Bft) SW 235 ° 0 min 0 W/m² 3,2 °C 5,1 °C 9,7 km/h (2 Bft)
29.01.2025 17:25 20,9 °C 5,9 °C 49 % 82 % 1008,0 hPa 0,0 l/m² 8,2 km/h (2 Bft) SW 234 ° 0 min 0 W/m² 3,1 °C 4,4 °C 11,3 km/h (2 Bft)
29.01.2025 17:26 20,9 °C 5,9 °C 49 % 82 % 1007,9 hPa 0,0 l/m² 7,2 km/h (2 Bft) SW 234 ° 0 min 0 W/m² 3,1 °C 5,2 °C 8,0 km/h (2 Bft)
29.01.2025 17:27 20,9 °C 5,9 °C 49 % 82 % 1008,0 hPa 0,0 l/m² 7,8 km/h (2 Bft) SW 236 ° 0 min 0 W/m² 3,1 °C 4,7 °C 9,7 km/h (2 Bft)
29.01.2025 17:28 20,9 °C 5,8 °C 49 % 82 % 1008,0 hPa 0,0 l/m² 6,4 km/h (2 Bft) SW 235 ° 0 min 0 W/m² 3,0 °C 5,8 °C 8,0 km/h (2 Bft)
29.01.2025 17:29 20,9 °C 5,8 °C 49 % 82 % 1008,0 hPa 0,0 l/m² 7,8 km/h (2 Bft) SW 232 ° 0 min 0 W/m² 3,0 °C 4,6 °C 9,7 km/h (2 Bft)
29.01.2025 17:30 20,9 °C 5,8 °C 49 % 82 % 1008,0 hPa 0,0 l/m² 7,3 km/h (2 Bft) SW 232 ° 0 min 0 W/m² 3,0 °C 5,0 °C 9,7 km/h (2 Bft)
29.01.2025 17:31 20,9 °C 5,8 °C 49 % 82 % 1008,0 hPa 0,0 l/m² 6,0 km/h (2 Bft) SW 233 ° 0 min 0 W/m² 3,0 °C 5,8 °C 6,4 km/h (2 Bft)
29.01.2025 17:32 20,9 °C 5,7 °C 49 % 82 % 1008,1 hPa 0,0 l/m² 6,0 km/h (2 Bft) SW 232 ° 0 min 0 W/m² 2,9 °C 5,7 °C 8,0 km/h (2 Bft)
29.01.2025 17:33 20,9 °C 5,7 °C 49 % 82 % 1008,1 hPa 0,0 l/m² 6,1 km/h (2 Bft) SW 232 ° 0 min 0 W/m² 2,9 °C 5,7 °C 8,0 km/h (2 Bft)
29.01.2025 17:34 20,9 °C 5,7 °C 49 % 83 % 1008,0 hPa 0,0 l/m² 7,1 km/h (2 Bft) SW 229 ° 0 min 0 W/m² 3,0 °C 5,1 °C 8,0 km/h (2 Bft)
29.01.2025 17:35 20,9 °C 5,7 °C 49 % 83 % 1008,1 hPa 0,0 l/m² 6,7 km/h (2 Bft) SW 227 ° 0 min 0 W/m² 3,0 °C 5,5 °C 8,0 km/h (2 Bft)
29.01.2025 17:36 20,9 °C 5,6 °C 49 % 83 % 1008,0 hPa 0,0 l/m² 5,5 km/h (2 Bft) SW 227 ° 0 min 0 W/m² 2,9 °C 5,6 °C 6,4 km/h (2 Bft)
29.01.2025 17:37 20,9 °C 5,6 °C 49 % 83 % 1008,0 hPa 0,0 l/m² 5,0 km/h (1 Bft) SW 227 ° 0 min 0 W/m² 2,9 °C 5,6 °C 6,4 km/h (2 Bft)
29.01.2025 17:38 20,9 °C 5,6 °C 49 % 83 % 1008,1 hPa 0,0 l/m² 5,1 km/h (1 Bft) SW 229 ° 0 min 0 W/m² 2,9 °C 5,6 °C 6,4 km/h (2 Bft)
29.01.2025 17:39 20,9 °C 5,5 °C 49 % 83 % 1008,1 hPa 0,0 l/m² 6,8 km/h (2 Bft) SW 225 ° 0 min 0 W/m² 2,8 °C 5,2 °C 9,7 km/h (2 Bft)
29.01.2025 17:40 20,9 °C 5,5 °C 49 % 83 % 1008,0 hPa 0,0 l/m² 8,0 km/h (2 Bft) SW 215 ° 0 min 0 W/m² 2,8 °C 4,1 °C 9,7 km/h (2 Bft)
29.01.2025 17:41 20,9 °C 5,5 °C 49 % 83 % 1008,0 hPa 0,0 l/m² 6,0 km/h (2 Bft) SW 215 ° 0 min 0 W/m² 2,8 °C 5,5 °C 8,0 km/h (2 Bft)
29.01.2025 17:42 20,9 °C 5,4 °C 49 % 83 % 1008,0 hPa 0,0 l/m² 5,8 km/h (2 Bft) SW 215 ° 0 min 0 W/m² 2,7 °C 5,4 °C 6,4 km/h (2 Bft)
29.01.2025 17:43 20,9 °C 5,4 °C 49 % 83 % 1008,0 hPa 0,0 l/m² 6,6 km/h (2 Bft) SW 215 ° 0 min 0 W/m² 2,7 °C 5,2 °C 8,0 km/h (2 Bft)
29.01.2025 17:44 20,9 °C 5,3 °C 49 % 83 % 1008,1 hPa 0,0 l/m² 7,2 km/h (2 Bft) S-SW 205 ° 0 min 0 W/m² 2,7 °C 4,6 °C 8,0 km/h (2 Bft)
29.01.2025 17:45 20,9 °C 5,3 °C 49 % 83 % 1008,0 hPa 0,0 l/m² 6,2 km/h (2 Bft) S-SW 202 ° 0 min 0 W/m² 2,7 °C 5,3 °C 8,0 km/h (2 Bft)
29.01.2025 17:46 20,9 °C 5,2 °C 49 % 83 % 1008,0 hPa 0,0 l/m² 6,3 km/h (2 Bft) S-SW 202 ° 0 min 0 W/m² 2,6 °C 5,2 °C 8,0 km/h (2 Bft)
29.01.2025 17:47 20,9 °C 5,2 °C 49 % 83 % 1008,0 hPa 0,0 l/m² 7,5 km/h (2 Bft) S-SW 198 ° 0 min 0 W/m² 2,6 °C 4,2 °C 9,7 km/h (2 Bft)
29.01.2025 17:48 20,9 °C 5,2 °C 49 % 84 % 1008,1 hPa 0,0 l/m² 6,9 km/h (2 Bft) S-SW 199 ° 0 min 0 W/m² 2,7 °C 4,8 °C 8,0 km/h (2 Bft)
29.01.2025 17:49 20,9 °C 5,1 °C 49 % 84 % 1008,0 hPa 0,0 l/m² 5,7 km/h (2 Bft) S-SW 199 ° 0 min 0 W/m² 2,6 °C 5,1 °C 8,0 km/h (2 Bft)
29.01.2025 17:50 20,9 °C 5,1 °C 49 % 84 % 1008,1 hPa 0,0 l/m² 6,5 km/h (2 Bft) S-SW 197 ° 0 min 0 W/m² 2,6 °C 5,0 °C 8,0 km/h (2 Bft)
29.01.2025 17:51 20,9 °C 5,1 °C 49 % 84 % 1008,1 hPa 0,0 l/m² 6,6 km/h (2 Bft) S-SW 197 ° 0 min 0 W/m² 2,6 °C 4,9 °C 8,0 km/h (2 Bft)
29.01.2025 17:52 21,0 °C 5,1 °C 49 % 84 % 1008,1 hPa 0,0 l/m² 6,8 km/h (2 Bft) S-SW 197 ° 0 min 0 W/m² 2,6 °C 4,8 °C 8,0 km/h (2 Bft)
29.01.2025 17:53 20,9 °C 5,0 °C 49 % 84 % 1008,2 hPa 0,0 l/m² 6,1 km/h (2 Bft) S-SW 197 ° 0 min 0 W/m² 2,5 °C 5,0 °C 6,4 km/h (2 Bft)
29.01.2025 17:54 20,9 °C 5,0 °C 49 % 84 % 1008,2 hPa 0,0 l/m² 5,8 km/h (2 Bft) S-SW 197 ° 0 min 0 W/m² 2,5 °C 5,0 °C 6,4 km/h (2 Bft)
29.01.2025 17:55 20,9 °C 5,1 °C 49 % 84 % 1008,2 hPa 0,0 l/m² 5,9 km/h (2 Bft) S-SW 197 ° 0 min 0 W/m² 2,6 °C 5,1 °C 8,0 km/h (2 Bft)
29.01.2025 17:56 20,9 °C 5,1 °C 49 % 85 % 1008,2 hPa 0,0 l/m² 5,8 km/h (2 Bft) S-SW 197 ° 0 min 0 W/m² 2,8 °C 5,1 °C 8,0 km/h (2 Bft)
29.01.2025 17:57 20,9 °C 5,1 °C 49 % 85 % 1008,2 hPa 0,0 l/m² 5,2 km/h (1 Bft) S-SW 197 ° 0 min 0 W/m² 2,8 °C 5,1 °C 6,4 km/h (2 Bft)
29.01.2025 17:58 20,9 °C 5,1 °C 49 % 85 % 1008,3 hPa 0,0 l/m² 5,3 km/h (1 Bft) S-SW 197 ° 0 min 0 W/m² 2,8 °C 5,1 °C 6,4 km/h (2 Bft)
29.01.2025 17:59 20,9 °C 5,1 °C 49 % 85 % 1008,3 hPa 0,0 l/m² 5,1 km/h (1 Bft) S-SW 197 ° 0 min 0 W/m² 2,8 °C 5,1 °C 8,0 km/h (2 Bft)
29.01.2025 18:00 20,9 °C 5,2 °C 49 % 85 % 1008,2 hPa 0,0 l/m² 4,6 km/h (1 Bft) S-SW 197 ° 0 min 0 W/m² 2,9 °C 5,2 °C 6,4 km/h (2 Bft)
29.01.2025 18:01 20,9 °C 5,2 °C 49 % 85 % 1008,3 hPa 0,0 l/m² 3,6 km/h (1 Bft) S-SW 197 ° 0 min 0 W/m² 2,9 °C 5,2 °C 4,8 km/h (1 Bft)
29.01.2025 18:02 20,9 °C 5,3 °C 49 % 85 % 1008,2 hPa 0,0 l/m² 3,6 km/h (1 Bft) S-SW 197 ° 0 min 0 W/m² 3,0 °C 5,3 °C 4,8 km/h (1 Bft)
29.01.2025 18:03 20,9 °C 5,3 °C 49 % 85 % 1008,2 hPa 0,0 l/m² 2,5 km/h (1 Bft) S-SW 197 ° 0 min 0 W/m² 3,0 °C 5,3 °C 3,2 km/h (1 Bft)
29.01.2025 18:04 20,9 °C 5,3 °C 49 % 85 % 1008,2 hPa 0,0 l/m² 1,7 km/h (1 Bft) S-SW 197 ° 0 min 0 W/m² 3,0 °C 5,3 °C 3,2 km/h (1 Bft)
29.01.2025 18:05 20,9 °C 5,3 °C 49 % 84 % 1008,3 hPa 0,0 l/m² 0,7 km/h (0 Bft) S-SW 197 ° 0 min 0 W/m² 2,8 °C 5,3 °C 3,2 km/h (1 Bft)
29.01.2025 18:06 20,9 °C 5,3 °C 49 % 84 % 1008,2 hPa 0,0 l/m² 1,1 km/h (1 Bft) S-SW 197 ° 0 min 0 W/m² 2,8 °C 5,3 °C 3,2 km/h (1 Bft)
29.01.2025 18:07 20,9 °C 5,2 °C 49 % 84 % 1008,3 hPa 0,0 l/m² 0,1 km/h (0 Bft) S-SW 197 ° 0 min 0 W/m² 2,7 °C 5,2 °C 1,6 km/h (1 Bft)
29.01.2025 18:08 20,9 °C 5,1 °C 49 % 84 % 1008,4 hPa 0,0 l/m² 0,2 km/h (0 Bft) S-SW 197 ° 0 min 0 W/m² 2,6 °C 5,1 °C 3,2 km/h (1 Bft)
29.01.2025 18:09 20,9 °C 4,9 °C 49 % 83 % 1008,3 hPa 0,0 l/m² 1,5 km/h (1 Bft) S-SW 197 ° 0 min 0 W/m² 2,3 °C 4,9 °C 3,2 km/h (1 Bft)
29.01.2025 18:10 20,9 °C 4,9 °C 49 % 84 % 1008,4 hPa 0,0 l/m² 2,1 km/h (1 Bft) S-SW 197 ° 0 min 0 W/m² 2,4 °C 4,9 °C 3,2 km/h (1 Bft)
29.01.2025 18:11 20,9 °C 4,9 °C 49 % 84 % 1008,4 hPa 0,0 l/m² 4,1 km/h (1 Bft) S-SW 197 ° 0 min 0 W/m² 2,4 °C 4,9 °C 6,4 km/h (2 Bft)
29.01.2025 18:12 20,9 °C 4,8 °C 49 % 84 % 1008,4 hPa 0,0 l/m² 2,7 km/h (1 Bft) S-SW 197 ° 0 min 0 W/m² 2,3 °C 4,8 °C 3,2 km/h (1 Bft)
29.01.2025 18:13 20,9 °C 4,9 °C 49 % 85 % 1008,4 hPa 0,0 l/m² 3,8 km/h (1 Bft) S-SW 197 ° 0 min 0 W/m² 2,6 °C 4,9 °C 6,4 km/h (2 Bft)
29.01.2025 18:14 20,9 °C 4,9 °C 49 % 85 % 1008,4 hPa 0,0 l/m² 3,8 km/h (1 Bft) S-SW 197 ° 0 min 0 W/m² 2,6 °C 4,9 °C 4,8 km/h (1 Bft)
29.01.2025 18:15 20,9 °C 4,9 °C 49 % 85 % 1008,5 hPa 0,0 l/m² 3,0 km/h (1 Bft) S-SW 197 ° 0 min 0 W/m² 2,6 °C 4,9 °C 4,8 km/h (1 Bft)
29.01.2025 18:16 20,9 °C 4,9 °C 49 % 85 % 1008,4 hPa 0,0 l/m² 4,0 km/h (1 Bft) S-SW 197 ° 0 min 0 W/m² 2,6 °C 4,9 °C 6,4 km/h (2 Bft)
29.01.2025 18:17 20,9 °C 4,9 °C 49 % 85 % 1008,5 hPa 0,0 l/m² 2,8 km/h (1 Bft) S-SW 197 ° 0 min 0 W/m² 2,6 °C 4,9 °C 4,8 km/h (1 Bft)
29.01.2025 18:18 20,9 °C 4,9 °C 49 % 85 % 1008,5 hPa 0,0 l/m² 2,5 km/h (1 Bft) S-SW 197 ° 0 min 0 W/m² 2,6 °C 4,9 °C 3,2 km/h (1 Bft)
29.01.2025 18:19 20,9 °C 4,9 °C 49 % 85 % 1008,4 hPa 0,0 l/m² 1,8 km/h (1 Bft) S-SW 197 ° 0 min 0 W/m² 2,6 °C 4,9 °C 3,2 km/h (1 Bft)
29.01.2025 18:20 20,9 °C 4,9 °C 49 % 85 % 1008,5 hPa 0,0 l/m² 0,7 km/h (0 Bft) S-SW 197 ° 0 min 0 W/m² 2,6 °C 4,9 °C 1,6 km/h (1 Bft)
29.01.2025 18:21 20,9 °C 4,9 °C 49 % 85 % 1008,5 hPa 0,0 l/m² 0,0 km/h (0 Bft) S-SW 197 ° 0 min 0 W/m² 2,6 °C 4,9 °C 0,0 km/h (0 Bft)
29.01.2025 18:22 20,9 °C 4,9 °C 49 % 85 % 1008,5 hPa 0,0 l/m² 1,0 km/h (0 Bft) S-SW 197 ° 0 min 0 W/m² 2,6 °C 4,9 °C 3,2 km/h (1 Bft)
29.01.2025 18:23 20,9 °C 4,8 °C 49 % 85 % 1008,5 hPa 0,0 l/m² 0,1 km/h (0 Bft) S-SW 197 ° 0 min 0 W/m² 2,5 °C 4,8 °C 1,6 km/h (1 Bft)
29.01.2025 18:24 20,9 °C 4,8 °C 49 % 85 % 1008,5 hPa 0,0 l/m² 1,7 km/h (1 Bft) S-SW 197 ° 0 min 0 W/m² 2,5 °C 4,8 °C 4,8 km/h (1 Bft)
29.01.2025 18:25 20,9 °C 4,8 °C 49 % 85 % 1008,5 hPa 0,0 l/m² 0,1 km/h (0 Bft) S-SW 197 ° 0 min 0 W/m² 2,5 °C 4,8 °C 1,6 km/h (1 Bft)
29.01.2025 18:26 20,9 °C 4,7 °C 49 % 85 % 1008,6 hPa 0,0 l/m² 0,9 km/h (0 Bft) S-SW 197 ° 0 min 0 W/m² 2,4 °C 4,7 °C 3,2 km/h (1 Bft)
29.01.2025 18:27 20,9 °C 4,7 °C 49 % 85 % 1008,6 hPa 0,0 l/m² 2,1 km/h (1 Bft) S-SW 197 ° 0 min 0 W/m² 2,4 °C 4,7 °C 4,8 km/h (1 Bft)
29.01.2025 18:28 20,9 °C 4,8 °C 49 % 85 % 1008,5 hPa 0,0 l/m² 1,1 km/h (1 Bft) S-SW 197 ° 0 min 0 W/m² 2,5 °C 4,8 °C 3,2 km/h (1 Bft)
29.01.2025 18:29 20,9 °C 4,8 °C 49 % 86 % 1008,6 hPa 0,0 l/m² 0,5 km/h (0 Bft) S-SW 197 ° 0 min 0 W/m² 2,7 °C 4,8 °C 3,2 km/h (1 Bft)
29.01.2025 18:30 20,9 °C 4,9 °C 49 % 86 % 1008,6 hPa 0,0 l/m² 3,1 km/h (1 Bft) S-SW 197 ° 0 min 0 W/m² 2,8 °C 4,9 °C 4,8 km/h (1 Bft)
29.01.2025 18:31 20,9 °C 4,9 °C 49 % 86 % 1008,6 hPa 0,0 l/m² 3,8 km/h (1 Bft) S-SW 197 ° 0 min 0 W/m² 2,8 °C 4,9 °C 4,8 km/h (1 Bft)
29.01.2025 18:32 20,9 °C 5,0 °C 49 % 86 % 1008,6 hPa 0,0 l/m² 2,9 km/h (1 Bft) S-SW 197 ° 0 min 0 W/m² 2,9 °C 5,0 °C 4,8 km/h (1 Bft)
29.01.2025 18:33 20,9 °C 5,0 °C 49 % 86 % 1008,6 hPa 0,0 l/m² 0,8 km/h (0 Bft) S-SW 197 ° 0 min 0 W/m² 2,9 °C 5,0 °C 1,6 km/h (1 Bft)
29.01.2025 18:34 20,9 °C 5,1 °C 49 % 86 % 1008,6 hPa 0,0 l/m² 4,3 km/h (1 Bft) SW 236 ° 0 min 0 W/m² 3,0 °C 5,1 °C 12,9 km/h (3 Bft)
29.01.2025 18:35 20,9 °C 5,1 °C 49 % 86 % 1008,6 hPa 0,0 l/m² 4,6 km/h (1 Bft) SW 234 ° 0 min 0 W/m² 3,0 °C 5,1 °C 11,3 km/h (2 Bft)
29.01.2025 18:36 20,9 °C 5,1 °C 49 % 86 % 1008,6 hPa 0,0 l/m² 7,2 km/h (2 Bft) SW 215 ° 0 min 0 W/m² 3,0 °C 4,4 °C 9,7 km/h (2 Bft)
29.01.2025 18:37 20,9 °C 5,2 °C 49 % 86 % 1008,7 hPa 0,0 l/m² 7,4 km/h (2 Bft) SW 214 ° 0 min 0 W/m² 3,1 °C 4,3 °C 9,7 km/h (2 Bft)
29.01.2025 18:38 20,9 °C 5,2 °C 49 % 86 % 1008,6 hPa 0,0 l/m² 9,3 km/h (2 Bft) S-SW 196 ° 0 min 0 W/m² 3,1 °C 2,8 °C 11,3 km/h (2 Bft)
29.01.2025 18:39 20,9 °C 5,2 °C 49 % 86 % 1008,6 hPa 0,0 l/m² 10,9 km/h (2 Bft) S-SW 207 ° 0 min 0 W/m² 3,1 °C 1,7 °C 14,5 km/h (3 Bft)
29.01.2025 18:40 20,9 °C 5,3 °C 49 % 86 % 1008,7 hPa 0,0 l/m² 11,2 km/h (2 Bft) SW 215 ° 0 min 0 W/m² 3,2 °C 1,6 °C 14,5 km/h (3 Bft)
29.01.2025 18:41 20,9 °C 5,3 °C 49 % 86 % 1008,7 hPa 0,0 l/m² 8,0 km/h (2 Bft) S-SW 209 ° 0 min 0 W/m² 3,2 °C 3,9 °C 9,7 km/h (2 Bft)
29.01.2025 18:42 20,9 °C 5,4 °C 49 % 86 % 1008,7 hPa 0,0 l/m² 9,4 km/h (2 Bft) S-SW 212 ° 0 min 0 W/m² 3,3 °C 2,9 °C 11,3 km/h (2 Bft)
29.01.2025 18:43 20,9 °C 5,4 °C 49 % 86 % 1008,7 hPa 0,0 l/m² 9,5 km/h (2 Bft) S-SW 208 ° 0 min 0 W/m² 3,3 °C 2,9 °C 11,3 km/h (2 Bft)
29.01.2025 18:44 20,9 °C 5,4 °C 49 % 86 % 1008,8 hPa 0,0 l/m² 8,4 km/h (2 Bft) S-SW 209 ° 0 min 0 W/m² 3,3 °C 3,7 °C 12,9 km/h (3 Bft)
29.01.2025 18:45 20,9 °C 5,4 °C 49 % 86 % 1008,8 hPa 0,0 l/m² 8,0 km/h (2 Bft) S-SW 200 ° 0 min 0 W/m² 3,3 °C 4,0 °C 11,3 km/h (2 Bft)
29.01.2025 18:46 20,9 °C 5,5 °C 49 % 86 % 1008,8 hPa 0,0 l/m² 9,1 km/h (2 Bft) S-SW 208 ° 0 min 0 W/m² 3,3 °C 3,3 °C 11,3 km/h (2 Bft)
29.01.2025 18:47 20,9 °C 5,5 °C 49 % 86 % 1008,8 hPa 0,0 l/m² 9,1 km/h (2 Bft) S-SW 209 ° 0 min 0 W/m² 3,3 °C 3,3 °C 11,3 km/h (2 Bft)
29.01.2025 18:48 20,9 °C 5,5 °C 49 % 86 % 1008,8 hPa 0,0 l/m² 10,3 km/h (2 Bft) S-SW 213 ° 0 min 0 W/m² 3,3 °C 2,4 °C 11,3 km/h (2 Bft)
29.01.2025 18:49 20,9 °C 5,5 °C 49 % 86 % 1008,8 hPa 0,0 l/m² 9,5 km/h (2 Bft) S-SW 206 ° 0 min 0 W/m² 3,3 °C 3,0 °C 11,3 km/h (2 Bft)
29.01.2025 18:50 20,9 °C 5,5 °C 49 % 86 % 1008,9 hPa 0,0 l/m² 9,7 km/h (2 Bft) SW 217 ° 0 min 0 W/m² 3,3 °C 2,8 °C 12,9 km/h (3 Bft)
29.01.2025 18:51 20,9 °C 5,5 °C 49 % 86 % 1008,8 hPa 0,0 l/m² 8,6 km/h (2 Bft) SW 217 ° 0 min 0 W/m² 3,3 °C 3,7 °C 11,3 km/h (2 Bft)
29.01.2025 18:52 20,9 °C 5,5 °C 49 % 86 % 1008,8 hPa 0,0 l/m² 7,6 km/h (2 Bft) S-SW 211 ° 0 min 0 W/m² 3,3 °C 4,5 °C 9,7 km/h (2 Bft)
29.01.2025 18:53 20,9 °C 5,5 °C 49 % 86 % 1008,8 hPa 0,0 l/m² 8,5 km/h (2 Bft) S-SW 206 ° 0 min 0 W/m² 3,3 °C 3,7 °C 11,3 km/h (2 Bft)
29.01.2025 18:54 20,9 °C 5,5 °C 49 % 86 % 1008,8 hPa 0,0 l/m² 8,9 km/h (2 Bft) S-SW 211 ° 0 min 0 W/m² 3,3 °C 3,4 °C 12,9 km/h (3 Bft)
29.01.2025 18:55 20,9 °C 5,4 °C 49 % 86 % 1008,8 hPa 0,0 l/m² 11,9 km/h (2 Bft) S-SW 197 ° 0 min 0 W/m² 3,3 °C 1,3 °C 14,5 km/h (3 Bft)
29.01.2025 18:56 20,9 °C 5,4 °C 49 % 86 % 1008,9 hPa 0,0 l/m² 9,7 km/h (2 Bft) S-SW 210 ° 0 min 0 W/m² 3,3 °C 2,7 °C 11,3 km/h (2 Bft)
29.01.2025 18:57 20,9 °C 5,4 °C 49 % 86 % 1008,9 hPa 0,0 l/m² 9,5 km/h (2 Bft) S-SW 198 ° 0 min 0 W/m² 3,3 °C 2,9 °C 14,5 km/h (3 Bft)
29.01.2025 18:58 20,9 °C 5,4 °C 49 % 86 % 1009,0 hPa 0,0 l/m² 9,9 km/h (2 Bft) SW 232 ° 0 min 0 W/m² 3,3 °C 2,6 °C 12,9 km/h (3 Bft)
29.01.2025 18:59 20,9 °C 5,5 °C 49 % 86 % 1009,0 hPa 0,0 l/m² 11,7 km/h (2 Bft) SW 215 ° 0 min 0 W/m² 3,3 °C 1,5 °C 14,5 km/h (3 Bft)
29.01.2025 19:00 20,9 °C 5,5 °C 49 % 86 % 1008,9 hPa 0,0 l/m² 12,0 km/h (2 Bft) SW 217 ° 0 min 0 W/m² 3,3 °C 1,3 °C 14,5 km/h (3 Bft)
29.01.2025 19:01 20,9 °C 5,5 °C 49 % 86 % 1009,0 hPa 0,0 l/m² 11,1 km/h (2 Bft) S-SW 202 ° 0 min 0 W/m² 3,3 °C 1,9 °C 14,5 km/h (3 Bft)
29.01.2025 19:02 20,9 °C 5,5 °C 49 % 86 % 1008,9 hPa 0,0 l/m² 10,7 km/h (2 Bft) S-SW 208 ° 0 min 0 W/m² 3,3 °C 2,2 °C 12,9 km/h (3 Bft)
29.01.2025 19:03 20,9 °C 5,6 °C 49 % 86 % 1008,9 hPa 0,0 l/m² 11,7 km/h (2 Bft) S-SW 205 ° 0 min 0 W/m² 3,4 °C 1,6 °C 14,5 km/h (3 Bft)
29.01.2025 19:04 20,9 °C 5,6 °C 49 % 86 % 1009,0 hPa 0,0 l/m² 13,6 km/h (3 Bft) S-SW 212 ° 0 min 0 W/m² 3,4 °C 0,5 °C 19,3 km/h (3 Bft)
29.01.2025 19:05 20,9 °C 5,6 °C 49 % 86 % 1009,0 hPa 0,0 l/m² 10,9 km/h (2 Bft) S-SW 196 ° 0 min 0 W/m² 3,4 °C 2,1 °C 12,9 km/h (3 Bft)
29.01.2025 19:06 20,9 °C 5,7 °C 49 % 86 % 1008,9 hPa 0,0 l/m² 11,9 km/h (2 Bft) S-SW 192 ° 0 min 0 W/m² 3,5 °C 1,6 °C 14,5 km/h (3 Bft)
29.01.2025 19:07 20,9 °C 5,7 °C 49 % 86 % 1008,9 hPa 0,0 l/m² 9,6 km/h (2 Bft) S-SW 195 ° 0 min 0 W/m² 3,5 °C 3,1 °C 11,3 km/h (2 Bft)
29.01.2025 19:08 20,9 °C 5,7 °C 49 % 86 % 1008,9 hPa 0,0 l/m² 10,9 km/h (2 Bft) S-SW 193 ° 0 min 0 W/m² 3,5 °C 2,2 °C 12,9 km/h (3 Bft)
29.01.2025 19:09 20,9 °C 5,7 °C 49 % 86 % 1008,9 hPa 0,0 l/m² 10,6 km/h (2 Bft) S-SW 195 ° 0 min 0 W/m² 3,5 °C 2,4 °C 14,5 km/h (3 Bft)
29.01.2025 19:10 20,9 °C 5,8 °C 49 % 86 % 1009,0 hPa 0,0 l/m² 11,9 km/h (2 Bft) S 187 ° 0 min 0 W/m² 3,6 °C 1,7 °C 16,1 km/h (3 Bft)
29.01.2025 19:11 20,8 °C 5,8 °C 49 % 86 % 1008,9 hPa 0,0 l/m² 11,6 km/h (2 Bft) S-SW 198 ° 0 min 0 W/m² 3,6 °C 1,9 °C 14,5 km/h (3 Bft)
29.01.2025 19:12 20,9 °C 5,8 °C 49 % 86 % 1009,0 hPa 0,0 l/m² 10,5 km/h (2 Bft) S-SW 194 ° 0 min 0 W/m² 3,6 °C 2,6 °C 14,5 km/h (3 Bft)
29.01.2025 19:13 20,9 °C 5,9 °C 49 % 86 % 1009,0 hPa 0,0 l/m² 11,2 km/h (2 Bft) S-SW 192 ° 0 min 0 W/m² 3,7 °C 2,3 °C 12,9 km/h (3 Bft)
29.01.2025 19:14 20,9 °C 5,9 °C 49 % 86 % 1009,0 hPa 0,0 l/m² 11,5 km/h (2 Bft) S-SW 198 ° 0 min 0 W/m² 3,7 °C 2,1 °C 12,9 km/h (3 Bft)
29.01.2025 19:15 20,9 °C 6,0 °C 49 % 86 % 1008,9 hPa 0,0 l/m² 10,5 km/h (2 Bft) S 186 ° 0 min 0 W/m² 3,8 °C 2,8 °C 12,9 km/h (3 Bft)
29.01.2025 19:16 20,9 °C 6,0 °C 49 % 86 % 1009,0 hPa 0,0 l/m² 10,8 km/h (2 Bft) S 186 ° 0 min 0 W/m² 3,8 °C 2,6 °C 14,5 km/h (3 Bft)
29.01.2025 19:17 20,9 °C 6,1 °C 49 % 86 % 1009,0 hPa 0,0 l/m² 10,2 km/h (2 Bft) S-SW 192 ° 0 min 0 W/m² 3,9 °C 3,2 °C 14,5 km/h (3 Bft)
29.01.2025 19:18 20,9 °C 6,1 °C 49 % 86 % 1009,0 hPa 0,0 l/m² 10,8 km/h (2 Bft) S 182 ° 0 min 0 W/m² 3,9 °C 2,8 °C 14,5 km/h (3 Bft)
29.01.2025 19:19 20,9 °C 6,1 °C 49 % 86 % 1009,1 hPa 0,0 l/m² 9,5 km/h (2 Bft) S-SW 193 ° 0 min 0 W/m² 3,9 °C 3,6 °C 11,3 km/h (2 Bft)
29.01.2025 19:20 20,9 °C 6,1 °C 49 % 86 % 1009,0 hPa 0,0 l/m² 11,2 km/h (2 Bft) S-SW 204 ° 0 min 0 W/m² 3,9 °C 2,5 °C 14,5 km/h (3 Bft)
29.01.2025 19:21 20,9 °C 6,1 °C 49 % 86 % 1009,1 hPa 0,0 l/m² 10,1 km/h (2 Bft) S 189 ° 0 min 0 W/m² 3,9 °C 3,2 °C 12,9 km/h (3 Bft)
29.01.2025 19:22 20,9 °C 6,1 °C 49 % 86 % 1009,0 hPa 0,0 l/m² 8,8 km/h (2 Bft) S 189 ° 0 min 0 W/m² 3,9 °C 4,1 °C 9,7 km/h (2 Bft)
29.01.2025 19:23 20,9 °C 6,2 °C 49 % 86 % 1009,0 hPa 0,0 l/m² 9,4 km/h (2 Bft) S 191 ° 0 min 0 W/m² 4,0 °C 3,8 °C 12,9 km/h (3 Bft)
29.01.2025 19:24 20,9 °C 6,2 °C 49 % 86 % 1009,1 hPa 0,0 l/m² 9,3 km/h (2 Bft) S 190 ° 0 min 0 W/m² 4,0 °C 3,9 °C 11,3 km/h (2 Bft)
29.01.2025 19:25 20,9 °C 6,2 °C 49 % 86 % 1009,1 hPa 0,0 l/m² 10,5 km/h (2 Bft) S-SW 192 ° 0 min 0 W/m² 4,0 °C 3,1 °C 14,5 km/h (3 Bft)
29.01.2025 19:26 20,9 °C 6,2 °C 49 % 86 % 1009,2 hPa 0,0 l/m² 8,3 km/h (2 Bft) S 190 ° 0 min 0 W/m² 4,0 °C 4,6 °C 11,3 km/h (2 Bft)
29.01.2025 19:27 20,9 °C 6,2 °C 49 % 86 % 1009,1 hPa 0,0 l/m² 10,2 km/h (2 Bft) S 189 ° 0 min 0 W/m² 4,0 °C 3,3 °C 12,9 km/h (3 Bft)
29.01.2025 19:28 20,9 °C 6,2 °C 49 % 86 % 1009,2 hPa 0,0 l/m² 9,9 km/h (2 Bft) S 182 ° 0 min 0 W/m² 4,0 °C 3,5 °C 12,9 km/h (3 Bft)
29.01.2025 19:29 20,9 °C 6,2 °C 49 % 86 % 1009,2 hPa 0,0 l/m² 11,3 km/h (2 Bft) S 186 ° 0 min 0 W/m² 4,0 °C 2,6 °C 16,1 km/h (3 Bft)
29.01.2025 19:30 20,9 °C 6,2 °C 49 % 86 % 1009,2 hPa 0,0 l/m² 12,8 km/h (3 Bft) S-SW 195 ° 0 min 0 W/m² 4,0 °C 1,7 °C 17,7 km/h (3 Bft)
29.01.2025 19:31 20,9 °C 6,2 °C 49 % 86 % 1009,2 hPa 0,0 l/m² 11,8 km/h (2 Bft) S-SW 193 ° 0 min 0 W/m² 4,0 °C 2,3 °C 14,5 km/h (3 Bft)
29.01.2025 19:32 20,9 °C 6,2 °C 49 % 86 % 1009,2 hPa 0,0 l/m² 11,7 km/h (2 Bft) S-SW 196 ° 0 min 0 W/m² 4,0 °C 2,3 °C 14,5 km/h (3 Bft)
29.01.2025 19:33 20,9 °C 6,2 °C 49 % 86 % 1009,3 hPa 0,0 l/m² 10,1 km/h (2 Bft) S-SW 193 ° 0 min 0 W/m² 4,0 °C 3,3 °C 12,9 km/h (3 Bft)
29.01.2025 19:34 20,9 °C 6,2 °C 49 % 86 % 1009,3 hPa 0,0 l/m² 9,5 km/h (2 Bft) S-SW 193 ° 0 min 0 W/m² 4,0 °C 3,7 °C 11,3 km/h (2 Bft)
29.01.2025 19:35 20,9 °C 6,2 °C 49 % 86 % 1009,3 hPa 0,0 l/m² 9,9 km/h (2 Bft) S 190 ° 0 min 0 W/m² 4,0 °C 3,5 °C 11,3 km/h (2 Bft)
29.01.2025 19:36 20,9 °C 6,2 °C 49 % 86 % 1009,3 hPa 0,0 l/m² 9,6 km/h (2 Bft) S 182 ° 0 min 0 W/m² 4,0 °C 3,7 °C 11,3 km/h (2 Bft)
29.01.2025 19:37 20,9 °C 6,2 °C 49 % 86 % 1009,4 hPa 0,0 l/m² 7,5 km/h (2 Bft) S 186 ° 0 min 0 W/m² 4,0 °C 5,3 °C 11,3 km/h (2 Bft)
29.01.2025 19:38 20,9 °C 6,2 °C 49 % 86 % 1009,4 hPa 0,0 l/m² 7,8 km/h (2 Bft) S-SW 197 ° 0 min 0 W/m² 4,0 °C 5,0 °C 12,9 km/h (3 Bft)
29.01.2025 19:39 20,9 °C 6,2 °C 49 % 86 % 1009,4 hPa 0,0 l/m² 9,3 km/h (2 Bft) S 191 ° 0 min 0 W/m² 4,0 °C 3,9 °C 12,9 km/h (3 Bft)
29.01.2025 19:40 20,9 °C 6,2 °C 49 % 86 % 1009,4 hPa 0,0 l/m² 7,6 km/h (2 Bft) S 181 ° 0 min 0 W/m² 4,0 °C 5,2 °C 9,7 km/h (2 Bft)
29.01.2025 19:41 20,9 °C 6,2 °C 49 % 86 % 1009,5 hPa 0,0 l/m² 8,5 km/h (2 Bft) S 176 ° 0 min 0 W/m² 4,0 °C 4,5 °C 11,3 km/h (2 Bft)
29.01.2025 19:42 20,9 °C 6,2 °C 49 % 86 % 1009,4 hPa 0,0 l/m² 8,6 km/h (2 Bft) S 172 ° 0 min 0 W/m² 4,0 °C 4,4 °C 11,3 km/h (2 Bft)
29.01.2025 19:43 20,9 °C 6,2 °C 49 % 86 % 1009,4 hPa 0,0 l/m² 8,2 km/h (2 Bft) S 190 ° 0 min 0 W/m² 4,0 °C 4,7 °C 9,7 km/h (2 Bft)
29.01.2025 19:44 20,9 °C 6,2 °C 49 % 85 % 1009,5 hPa 0,0 l/m² 9,4 km/h (2 Bft) S 175 ° 0 min 0 W/m² 3,9 °C 3,8 °C 12,9 km/h (3 Bft)
29.01.2025 19:45 20,9 °C 6,2 °C 49 % 85 % 1009,5 hPa 0,0 l/m² 8,4 km/h (2 Bft) S 178 ° 0 min 0 W/m² 3,9 °C 4,6 °C 11,3 km/h (2 Bft)
29.01.2025 19:46 20,9 °C 6,1 °C 49 % 85 % 1009,5 hPa 0,0 l/m² 9,0 km/h (2 Bft) S 174 ° 0 min 0 W/m² 3,8 °C 4,0 °C 11,3 km/h (2 Bft)
29.01.2025 19:47 20,9 °C 6,2 °C 49 % 85 % 1009,6 hPa 0,0 l/m² 6,2 km/h (2 Bft) S 174 ° 0 min 0 W/m² 3,9 °C 6,2 °C 8,0 km/h (2 Bft)
29.01.2025 19:48 20,9 °C 6,1 °C 49 % 85 % 1009,5 hPa 0,0 l/m² 8,7 km/h (2 Bft) S 169 ° 0 min 0 W/m² 3,8 °C 4,2 °C 11,3 km/h (2 Bft)
29.01.2025 19:49 20,9 °C 6,1 °C 49 % 85 % 1009,6 hPa 0,0 l/m² 8,3 km/h (2 Bft) S 171 ° 0 min 0 W/m² 3,8 °C 4,5 °C 11,3 km/h (2 Bft)
29.01.2025 19:50 20,9 °C 6,1 °C 49 % 86 % 1009,7 hPa 0,0 l/m² 8,5 km/h (2 Bft) S 173 ° 0 min 0 W/m² 3,9 °C 4,4 °C 11,3 km/h (2 Bft)
29.01.2025 19:51 20,9 °C 6,1 °C 49 % 85 % 1009,6 hPa 0,0 l/m² 7,0 km/h (2 Bft) S 171 ° 0 min 0 W/m² 3,8 °C 5,6 °C 9,7 km/h (2 Bft)
29.01.2025 19:52 20,9 °C 6,1 °C 49 % 86 % 1009,7 hPa 0,0 l/m² 8,5 km/h (2 Bft) S 171 ° 0 min 0 W/m² 3,9 °C 4,4 °C 9,7 km/h (2 Bft)
29.01.2025 19:53 20,9 °C 6,1 °C 49 % 86 % 1009,7 hPa 0,0 l/m² 6,6 km/h (2 Bft) S 178 ° 0 min 0 W/m² 3,9 °C 6,0 °C 9,7 km/h (2 Bft)
29.01.2025 19:54 20,9 °C 6,1 °C 49 % 86 % 1009,7 hPa 0,0 l/m² 7,2 km/h (2 Bft) S 176 ° 0 min 0 W/m² 3,9 °C 5,4 °C 9,7 km/h (2 Bft)
29.01.2025 19:55 20,9 °C 6,1 °C 49 % 86 % 1009,7 hPa 0,0 l/m² 7,8 km/h (2 Bft) S-SO 167 ° 0 min 0 W/m² 3,9 °C 4,9 °C 11,3 km/h (2 Bft)
29.01.2025 19:56 20,9 °C 6,1 °C 49 % 85 % 1009,7 hPa 0,0 l/m² 8,9 km/h (2 Bft) S-SO 167 ° 0 min 0 W/m² 3,8 °C 4,1 °C 12,9 km/h (3 Bft)
29.01.2025 19:57 20,9 °C 6,1 °C 49 % 86 % 1009,7 hPa 0,0 l/m² 9,7 km/h (2 Bft) S-SO 167 ° 0 min 0 W/m² 3,9 °C 3,5 °C 12,9 km/h (3 Bft)
29.01.2025 19:58 20,9 °C 6,1 °C 49 % 86 % 1009,7 hPa 0,0 l/m² 8,8 km/h (2 Bft) S-SO 168 ° 0 min 0 W/m² 3,9 °C 4,1 °C 14,5 km/h (3 Bft)
29.01.2025 19:59 20,9 °C 6,1 °C 49 % 86 % 1009,7 hPa 0,0 l/m² 8,2 km/h (2 Bft) S-SO 163 ° 0 min 0 W/m² 3,9 °C 4,6 °C 12,9 km/h (3 Bft)
29.01.2025 20:00 20,9 °C 6,1 °C 49 % 86 % 1009,7 hPa 0,0 l/m² 10,4 km/h (2 Bft) S-SO 166 ° 0 min 0 W/m² 3,9 °C 3,0 °C 14,5 km/h (3 Bft)
29.01.2025 20:01 20,9 °C 6,1 °C 49 % 86 % 1009,7 hPa 0,0 l/m² 10,1 km/h (2 Bft) S 182 ° 0 min 0 W/m² 3,9 °C 3,2 °C 12,9 km/h (3 Bft)
29.01.2025 20:02 20,9 °C 6,1 °C 49 % 86 % 1009,8 hPa 0,0 l/m² 10,2 km/h (2 Bft) S-SO 161 ° 0 min 0 W/m² 3,9 °C 3,2 °C 12,9 km/h (3 Bft)
29.01.2025 20:03 20,9 °C 6,1 °C 49 % 86 % 1009,8 hPa 0,0 l/m² 9,7 km/h (2 Bft) S 173 ° 0 min 0 W/m² 3,9 °C 3,5 °C 12,9 km/h (3 Bft)
29.01.2025 20:04 20,9 °C 6,1 °C 49 % 86 % 1009,8 hPa 0,0 l/m² 9,3 km/h (2 Bft) S 180 ° 0 min 0 W/m² 3,9 °C 3,8 °C 12,9 km/h (3 Bft)
29.01.2025 20:05 20,9 °C 6,1 °C 49 % 86 % 1009,8 hPa 0,0 l/m² 8,7 km/h (2 Bft) S 177 ° 0 min 0 W/m² 3,9 °C 4,2 °C 12,9 km/h (3 Bft)
29.01.2025 20:06 20,9 °C 6,1 °C 49 % 86 % 1009,8 hPa 0,0 l/m² 8,7 km/h (2 Bft) S 179 ° 0 min 0 W/m² 3,9 °C 4,2 °C 11,3 km/h (2 Bft)
29.01.2025 20:07 20,9 °C 6,1 °C 49 % 86 % 1009,8 hPa 0,0 l/m² 10,2 km/h (2 Bft) S 182 ° 0 min 0 W/m² 3,9 °C 3,2 °C 12,9 km/h (3 Bft)
29.01.2025 20:08 20,9 °C 6,1 °C 49 % 86 % 1009,8 hPa 0,0 l/m² 11,1 km/h (2 Bft) S 180 ° 0 min 0 W/m² 3,9 °C 2,6 °C 14,5 km/h (3 Bft)
29.01.2025 20:09 20,9 °C 6,1 °C 49 % 86 % 1009,9 hPa 0,0 l/m² 8,3 km/h (2 Bft) S-SW 198 ° 0 min 0 W/m² 3,9 °C 4,5 °C 12,9 km/h (3 Bft)
29.01.2025 20:10 20,9 °C 6,1 °C 49 % 86 % 1009,9 hPa 0,0 l/m² 8,6 km/h (2 Bft) S 180 ° 0 min 0 W/m² 3,9 °C 4,3 °C 12,9 km/h (3 Bft)
29.01.2025 20:11 20,9 °C 6,1 °C 49 % 86 % 1009,9 hPa 0,0 l/m² 9,5 km/h (2 Bft) S-SW 193 ° 0 min 0 W/m² 3,9 °C 3,6 °C 11,3 km/h (2 Bft)
29.01.2025 20:12 20,9 °C 6,1 °C 49 % 86 % 1010,0 hPa 0,0 l/m² 10,3 km/h (2 Bft) S-SW 193 ° 0 min 0 W/m² 3,9 °C 3,1 °C 12,9 km/h (3 Bft)
29.01.2025 20:13 20,9 °C 6,1 °C 49 % 86 % 1010,0 hPa 0,0 l/m² 10,2 km/h (2 Bft) S-SW 198 ° 0 min 0 W/m² 3,9 °C 3,2 °C 12,9 km/h (3 Bft)
29.01.2025 20:14 20,9 °C 6,1 °C 49 % 86 % 1010,1 hPa 0,0 l/m² 8,9 km/h (2 Bft) S-SW 201 ° 0 min 0 W/m² 3,9 °C 4,1 °C 11,3 km/h (2 Bft)
29.01.2025 20:15 20,9 °C 6,1 °C 49 % 86 % 1010,0 hPa 0,0 l/m² 9,7 km/h (2 Bft) S-SW 195 ° 0 min 0 W/m² 3,9 °C 3,5 °C 11,3 km/h (2 Bft)
29.01.2025 20:16 20,9 °C 6,1 °C 49 % 86 % 1010,1 hPa 0,0 l/m² 9,4 km/h (2 Bft) S-SW 196 ° 0 min 0 W/m² 3,9 °C 3,7 °C 12,9 km/h (3 Bft)
29.01.2025 20:17 20,9 °C 6,1 °C 49 % 86 % 1010,2 hPa 0,0 l/m² 10,9 km/h (2 Bft) S-SW 195 ° 0 min 0 W/m² 3,9 °C 2,7 °C 14,5 km/h (3 Bft)
29.01.2025 20:18 20,9 °C 6,1 °C 49 % 86 % 1010,1 hPa 0,0 l/m² 12,2 km/h (2 Bft) S-SW 198 ° 0 min 0 W/m² 3,9 °C 1,9 °C 14,5 km/h (3 Bft)
29.01.2025 20:19 20,9 °C 6,1 °C 49 % 86 % 1010,1 hPa 0,0 l/m² 10,7 km/h (2 Bft) S-SW 202 ° 0 min 0 W/m² 3,9 °C 2,8 °C 14,5 km/h (3 Bft)
29.01.2025 20:20 20,9 °C 6,2 °C 49 % 86 % 1010,1 hPa 0,0 l/m² 11,1 km/h (2 Bft) S-SW 202 ° 0 min 0 W/m² 4,0 °C 2,7 °C 12,9 km/h (3 Bft)
29.01.2025 20:21 20,9 °C 6,2 °C 49 % 86 % 1010,1 hPa 0,0 l/m² 11,2 km/h (2 Bft) S 185 ° 0 min 0 W/m² 4,0 °C 2,6 °C 14,5 km/h (3 Bft)
29.01.2025 20:22 20,9 °C 6,2 °C 49 % 86 % 1010,1 hPa 0,0 l/m² 11,2 km/h (2 Bft) S-SW 207 ° 0 min 0 W/m² 4,0 °C 2,6 °C 14,5 km/h (3 Bft)
29.01.2025 20:23 20,9 °C 6,2 °C 49 % 86 % 1010,1 hPa 0,0 l/m² 10,6 km/h (2 Bft) S-SW 195 ° 0 min 0 W/m² 4,0 °C 3,0 °C 12,9 km/h (3 Bft)
29.01.2025 20:24 20,9 °C 6,2 °C 49 % 86 % 1010,1 hPa 0,0 l/m² 11,3 km/h (2 Bft) S-SW 196 ° 0 min 0 W/m² 4,0 °C 2,6 °C 14,5 km/h (3 Bft)
29.01.2025 20:25 20,9 °C 6,2 °C 49 % 86 % 1010,1 hPa 0,0 l/m² 13,3 km/h (3 Bft) S-SW 196 ° 0 min 0 W/m² 4,0 °C 1,4 °C 16,1 km/h (3 Bft)
29.01.2025 20:26 20,9 °C 6,2 °C 49 % 86 % 1010,1 hPa 0,0 l/m² 10,8 km/h (2 Bft) S-SW 200 ° 0 min 0 W/m² 4,0 °C 2,9 °C 12,9 km/h (3 Bft)
29.01.2025 20:27 20,9 °C 6,2 °C 49 % 86 % 1010,2 hPa 0,0 l/m² 12,6 km/h (3 Bft) S-SW 194 ° 0 min 0 W/m² 4,0 °C 1,8 °C 16,1 km/h (3 Bft)
29.01.2025 20:28 20,9 °C 6,3 °C 49 % 86 % 1010,1 hPa 0,0 l/m² 10,4 km/h (2 Bft) S-SW 198 ° 0 min 0 W/m² 4,1 °C 3,2 °C 12,9 km/h (3 Bft)
29.01.2025 20:29 20,9 °C 6,3 °C 49 % 86 % 1010,1 hPa 0,0 l/m² 11,5 km/h (2 Bft) S 190 ° 0 min 0 W/m² 4,1 °C 2,6 °C 14,5 km/h (3 Bft)
29.01.2025 20:30 20,9 °C 6,2 °C 49 % 87 % 1010,2 hPa 0,0 l/m² 12,0 km/h (2 Bft) S-SW 197 ° 0 min 0 W/m² 4,2 °C 2,1 °C 14,5 km/h (3 Bft)
29.01.2025 20:31 20,9 °C 6,3 °C 49 % 87 % 1010,2 hPa 0,0 l/m² 11,5 km/h (2 Bft) S-SW 195 ° 0 min 0 W/m² 4,3 °C 2,6 °C 14,5 km/h (3 Bft)
29.01.2025 20:32 20,9 °C 6,3 °C 49 % 87 % 1010,2 hPa 0,0 l/m² 13,8 km/h (3 Bft) S-SW 201 ° 0 min 0 W/m² 4,3 °C 1,3 °C 17,7 km/h (3 Bft)
29.01.2025 20:33 20,9 °C 6,3 °C 49 % 87 % 1010,1 hPa 0,0 l/m² 12,7 km/h (3 Bft) S 186 ° 0 min 0 W/m² 4,3 °C 1,9 °C 22,5 km/h (4 Bft)
29.01.2025 20:34 20,9 °C 6,3 °C 49 % 87 % 1010,2 hPa 0,2 l/m² 12,5 km/h (2 Bft) S-SW 205 ° 0 min 0 W/m² 4,3 °C 2,0 °C 16,1 km/h (3 Bft)
29.01.2025 20:35 20,9 °C 6,3 °C 49 % 87 % 1010,3 hPa 0,0 l/m² 14,6 km/h (3 Bft) S-SW 195 ° 0 min 0 W/m² 4,3 °C 0,8 °C 16,1 km/h (3 Bft)
29.01.2025 20:36 20,9 °C 6,3 °C 49 % 87 % 1010,2 hPa 0,0 l/m² 13,8 km/h (3 Bft) S-SW 200 ° 0 min 0 W/m² 4,3 °C 1,3 °C 16,1 km/h (3 Bft)
29.01.2025 20:37 20,9 °C 6,4 °C 49 % 87 % 1010,1 hPa 0,0 l/m² 11,6 km/h (2 Bft) S-SW 195 ° 0 min 0 W/m² 4,4 °C 2,6 °C 14,5 km/h (3 Bft)
29.01.2025 20:38 20,9 °C 6,4 °C 49 % 87 % 1010,2 hPa 0,0 l/m² 11,7 km/h (2 Bft) S-SW 198 ° 0 min 0 W/m² 4,4 °C 2,5 °C 16,1 km/h (3 Bft)
29.01.2025 20:39 20,9 °C 6,4 °C 49 % 87 % 1010,2 hPa 0,0 l/m² 12,1 km/h (2 Bft) S-SW 196 ° 0 min 0 W/m² 4,4 °C 2,3 °C 14,5 km/h (3 Bft)
29.01.2025 20:40 20,9 °C 6,4 °C 49 % 87 % 1010,3 hPa 0,0 l/m² 11,4 km/h (2 Bft) S-SW 194 ° 0 min 0 W/m² 4,4 °C 2,7 °C 14,5 km/h (3 Bft)
29.01.2025 20:41 20,9 °C 6,4 °C 49 % 87 % 1010,2 hPa 0,0 l/m² 11,1 km/h (2 Bft) S-SW 211 ° 0 min 0 W/m² 4,4 °C 2,9 °C 14,5 km/h (3 Bft)
29.01.2025 20:42 20,9 °C 6,4 °C 49 % 87 % 1010,2 hPa 0,0 l/m² 11,3 km/h (2 Bft) S-SW 200 ° 0 min 0 W/m² 4,4 °C 2,8 °C 14,5 km/h (3 Bft)
29.01.2025 20:43 20,9 °C 6,5 °C 49 % 87 % 1010,3 hPa 0,0 l/m² 11,7 km/h (2 Bft) S-SW 202 ° 0 min 0 W/m² 4,5 °C 2,7 °C 14,5 km/h (3 Bft)
29.01.2025 20:44 20,9 °C 6,5 °C 49 % 87 % 1010,3 hPa 0,0 l/m² 9,6 km/h (2 Bft) S-SW 200 ° 0 min 0 W/m² 4,5 °C 4,0 °C 12,9 km/h (3 Bft)
29.01.2025 20:45 20,9 °C 6,4 °C 49 % 87 % 1010,3 hPa 0,0 l/m² 8,4 km/h (2 Bft) S-SW 200 ° 0 min 0 W/m² 4,4 °C 4,8 °C 9,7 km/h (2 Bft)
29.01.2025 20:46 20,9 °C 6,5 °C 49 % 87 % 1010,3 hPa 0,0 l/m² 8,5 km/h (2 Bft) S-SW 193 ° 0 min 0 W/m² 4,5 °C 4,8 °C 11,3 km/h (2 Bft)
29.01.2025 20:47 20,9 °C 6,5 °C 49 % 87 % 1010,3 hPa 0,0 l/m² 9,7 km/h (2 Bft) S-SW 192 ° 0 min 0 W/m² 4,5 °C 3,9 °C 11,3 km/h (2 Bft)
29.01.2025 20:48 20,9 °C 6,4 °C 49 % 87 % 1010,4 hPa 0,0 l/m² 9,3 km/h (2 Bft) S-SW 196 ° 0 min 0 W/m² 4,4 °C 4,1 °C 11,3 km/h (2 Bft)
29.01.2025 20:49 20,9 °C 6,4 °C 49 % 87 % 1010,4 hPa 0,0 l/m² 9,1 km/h (2 Bft) S-SW 196 ° 0 min 0 W/m² 4,4 °C 4,2 °C 11,3 km/h (2 Bft)
29.01.2025 20:50 20,9 °C 6,4 °C 49 % 87 % 1010,4 hPa 0,0 l/m² 10,0 km/h (2 Bft) S-SW 198 ° 0 min 0 W/m² 4,4 °C 3,6 °C 11,3 km/h (2 Bft)
29.01.2025 20:51 20,8 °C 6,4 °C 49 % 87 % 1010,4 hPa 0,0 l/m² 8,8 km/h (2 Bft) S-SW 197 ° 0 min 0 W/m² 4,4 °C 4,5 °C 9,7 km/h (2 Bft)
29.01.2025 20:52 20,9 °C 6,5 °C 49 % 87 % 1010,4 hPa 0,0 l/m² 8,2 km/h (2 Bft) S-SW 196 ° 0 min 0 W/m² 4,5 °C 5,0 °C 9,7 km/h (2 Bft)
29.01.2025 20:53 20,9 °C 6,4 °C 49 % 87 % 1010,4 hPa 0,0 l/m² 7,6 km/h (2 Bft) S-SW 196 ° 0 min 0 W/m² 4,4 °C 5,4 °C 9,7 km/h (2 Bft)
29.01.2025 20:54 20,9 °C 6,4 °C 49 % 87 % 1010,4 hPa 0,0 l/m² 8,2 km/h (2 Bft) S-SW 196 ° 0 min 0 W/m² 4,4 °C 4,9 °C 11,3 km/h (2 Bft)
29.01.2025 20:55 20,8 °C 6,5 °C 49 % 87 % 1010,4 hPa 0,0 l/m² 7,9 km/h (2 Bft) S-SW 195 ° 0 min 0 W/m² 4,5 °C 5,3 °C 11,3 km/h (2 Bft)
29.01.2025 20:56 20,9 °C 6,4 °C 49 % 87 % 1010,5 hPa 0,0 l/m² 7,2 km/h (2 Bft) S-SW 196 ° 0 min 0 W/m² 4,4 °C 5,7 °C 8,0 km/h (2 Bft)
29.01.2025 20:57 20,9 °C 6,4 °C 49 % 87 % 1010,5 hPa 0,0 l/m² 8,0 km/h (2 Bft) S-SW 200 ° 0 min 0 W/m² 4,4 °C 5,1 °C 9,7 km/h (2 Bft)
29.01.2025 20:58 20,9 °C 6,4 °C 49 % 87 % 1010,4 hPa 0,0 l/m² 6,5 km/h (2 Bft) S-SW 200 ° 0 min 0 W/m² 4,4 °C 6,3 °C 8,0 km/h (2 Bft)
29.01.2025 20:59 20,8 °C 6,4 °C 49 % 87 % 1010,5 hPa 0,0 l/m² 5,5 km/h (2 Bft) S-SW 200 ° 0 min 0 W/m² 4,4 °C 6,4 °C 8,0 km/h (2 Bft)
29.01.2025 21:00 20,9 °C 6,4 °C 49 % 87 % 1010,5 hPa 0,0 l/m² 5,3 km/h (1 Bft) S-SW 200 ° 0 min 0 W/m² 4,4 °C 6,4 °C 6,4 km/h (2 Bft)
29.01.2025 21:01 20,9 °C 6,4 °C 49 % 87 % 1010,6 hPa 0,0 l/m² 4,6 km/h (1 Bft) S-SW 200 ° 0 min 0 W/m² 4,4 °C 6,4 °C 6,4 km/h (2 Bft)
29.01.2025 21:02 20,9 °C 6,4 °C 49 % 87 % 1010,5 hPa 0,0 l/m² 6,1 km/h (2 Bft) S-SW 198 ° 0 min 0 W/m² 4,4 °C 6,4 °C 8,0 km/h (2 Bft)
29.01.2025 21:03 20,9 °C 6,4 °C 49 % 87 % 1010,5 hPa 0,0 l/m² 5,2 km/h (1 Bft) S-SW 199 ° 0 min 0 W/m² 4,4 °C 6,4 °C 8,0 km/h (2 Bft)
29.01.2025 21:04 20,9 °C 6,4 °C 49 % 87 % 1010,5 hPa 0,0 l/m² 4,5 km/h (1 Bft) S-SW 199 ° 0 min 0 W/m² 4,4 °C 6,4 °C 6,4 km/h (2 Bft)
29.01.2025 21:05 20,9 °C 6,4 °C 49 % 87 % 1010,5 hPa 0,0 l/m² 7,4 km/h (2 Bft) S-SW 198 ° 0 min 0 W/m² 4,4 °C 5,6 °C 8,0 km/h (2 Bft)
29.01.2025 21:06 20,8 °C 6,4 °C 49 % 87 % 1010,5 hPa 0,0 l/m² 7,3 km/h (2 Bft) S-SW 196 ° 0 min 0 W/m² 4,4 °C 5,6 °C 8,0 km/h (2 Bft)
29.01.2025 21:07 20,8 °C 6,4 °C 49 % 87 % 1010,6 hPa 0,0 l/m² 5,9 km/h (2 Bft) S-SW 196 ° 0 min 0 W/m² 4,4 °C 6,4 °C 8,0 km/h (2 Bft)
29.01.2025 21:08 20,8 °C 6,4 °C 49 % 87 % 1010,6 hPa 0,0 l/m² 5,3 km/h (1 Bft) S-SW 196 ° 0 min 0 W/m² 4,4 °C 6,4 °C 8,0 km/h (2 Bft)
29.01.2025 21:09 20,9 °C 6,4 °C 49 % 87 % 1010,5 hPa 0,0 l/m² 5,3 km/h (1 Bft) S-SW 196 ° 0 min 0 W/m² 4,4 °C 6,4 °C 6,4 km/h (2 Bft)
29.01.2025 21:10 20,9 °C 6,4 °C 49 % 87 % 1010,5 hPa 0,0 l/m² 6,1 km/h (2 Bft) S-SW 195 ° 0 min 0 W/m² 4,4 °C 6,4 °C 8,0 km/h (2 Bft)
29.01.2025 21:11 20,9 °C 6,4 °C 49 % 87 % 1010,5 hPa 0,0 l/m² 6,8 km/h (2 Bft) S-SW 195 ° 0 min 0 W/m² 4,4 °C 6,1 °C 9,7 km/h (2 Bft)
29.01.2025 21:12 20,9 °C 6,4 °C 49 % 87 % 1010,5 hPa 0,0 l/m² 6,1 km/h (2 Bft) S-SW 195 ° 0 min 0 W/m² 4,4 °C 6,4 °C 8,0 km/h (2 Bft)
29.01.2025 21:13 20,9 °C 6,4 °C 49 % 87 % 1010,6 hPa 0,0 l/m² 5,5 km/h (2 Bft) S-SW 195 ° 0 min 0 W/m² 4,4 °C 6,4 °C 6,4 km/h (2 Bft)
29.01.2025 21:14 20,8 °C 6,4 °C 49 % 87 % 1010,6 hPa 0,0 l/m² 7,0 km/h (2 Bft) S 184 ° 0 min 0 W/m² 4,4 °C 5,9 °C 9,7 km/h (2 Bft)
29.01.2025 21:15 20,9 °C 6,4 °C 49 % 87 % 1010,6 hPa 0,0 l/m² 5,1 km/h (1 Bft) S 184 ° 0 min 0 W/m² 4,4 °C 6,4 °C 6,4 km/h (2 Bft)
29.01.2025 21:16 20,9 °C 6,4 °C 49 % 87 % 1010,6 hPa 0,0 l/m² 2,9 km/h (1 Bft) S 184 ° 0 min 0 W/m² 4,4 °C 6,4 °C 4,8 km/h (1 Bft)
29.01.2025 21:17 20,9 °C 6,3 °C 49 % 87 % 1010,6 hPa 0,0 l/m² 2,3 km/h (1 Bft) S 184 ° 0 min 0 W/m² 4,3 °C 6,3 °C 4,8 km/h (1 Bft)
29.01.2025 21:18 20,9 °C 6,4 °C 49 % 87 % 1010,6 hPa 0,0 l/m² 2,7 km/h (1 Bft) S 184 ° 0 min 0 W/m² 4,4 °C 6,4 °C 3,2 km/h (1 Bft)
29.01.2025 21:19 20,9 °C 6,3 °C 49 % 87 % 1010,6 hPa 0,0 l/m² 1,9 km/h (1 Bft) S 184 ° 0 min 0 W/m² 4,3 °C 6,3 °C 3,2 km/h (1 Bft)
29.01.2025 21:20 20,9 °C 6,4 °C 49 % 87 % 1010,6 hPa 0,0 l/m² 3,0 km/h (1 Bft) S 184 ° 0 min 0 W/m² 4,4 °C 6,4 °C 3,2 km/h (1 Bft)
29.01.2025 21:21 20,9 °C 6,4 °C 49 % 87 % 1010,7 hPa 0,0 l/m² 2,6 km/h (1 Bft) S 184 ° 0 min 0 W/m² 4,4 °C 6,4 °C 4,8 km/h (1 Bft)
29.01.2025 21:22 20,9 °C 6,3 °C 49 % 87 % 1010,6 hPa 0,0 l/m² 2,2 km/h (1 Bft) S 184 ° 0 min 0 W/m² 4,3 °C 6,3 °C 3,2 km/h (1 Bft)
29.01.2025 21:23 20,9 °C 6,3 °C 49 % 87 % 1010,7 hPa 0,0 l/m² 3,2 km/h (1 Bft) S 184 ° 0 min 0 W/m² 4,3 °C 6,3 °C 4,8 km/h (1 Bft)
29.01.2025 21:24 20,9 °C 6,3 °C 49 % 87 % 1010,7 hPa 0,0 l/m² 2,7 km/h (1 Bft) S 184 ° 0 min 0 W/m² 4,3 °C 6,3 °C 4,8 km/h (1 Bft)
29.01.2025 21:25 20,9 °C 6,3 °C 49 % 87 % 1010,7 hPa 0,0 l/m² 3,1 km/h (1 Bft) S 184 ° 0 min 0 W/m² 4,3 °C 6,3 °C 4,8 km/h (1 Bft)
29.01.2025 21:26 20,9 °C 6,3 °C 49 % 87 % 1010,6 hPa 0,0 l/m² 3,3 km/h (1 Bft) S 184 ° 0 min 0 W/m² 4,3 °C 6,3 °C 4,8 km/h (1 Bft)
29.01.2025 21:27 20,9 °C 6,3 °C 49 % 87 % 1010,7 hPa 0,0 l/m² 4,1 km/h (1 Bft) S 184 ° 0 min 0 W/m² 4,3 °C 6,3 °C 6,4 km/h (2 Bft)
29.01.2025 21:28 20,9 °C 6,3 °C 49 % 87 % 1010,7 hPa 0,0 l/m² 3,7 km/h (1 Bft) S 184 ° 0 min 0 W/m² 4,3 °C 6,3 °C 4,8 km/h (1 Bft)
29.01.2025 21:29 20,9 °C 6,3 °C 49 % 87 % 1010,7 hPa 0,0 l/m² 3,8 km/h (1 Bft) S 184 ° 0 min 0 W/m² 4,3 °C 6,3 °C 4,8 km/h (1 Bft)
29.01.2025 21:30 20,9 °C 6,3 °C 49 % 87 % 1010,8 hPa 0,0 l/m² 2,6 km/h (1 Bft) S 184 ° 0 min 0 W/m² 4,3 °C 6,3 °C 4,8 km/h (1 Bft)
29.01.2025 21:31 20,9 °C 6,3 °C 49 % 87 % 1010,7 hPa 0,0 l/m² 1,7 km/h (1 Bft) S 184 ° 0 min 0 W/m² 4,3 °C 6,3 °C 3,2 km/h (1 Bft)
29.01.2025 21:32 20,9 °C 6,2 °C 49 % 87 % 1010,8 hPa 0,0 l/m² 0,6 km/h (0 Bft) S 184 ° 0 min 0 W/m² 4,2 °C 6,2 °C 3,2 km/h (1 Bft)
29.01.2025 21:33 20,9 °C 6,2 °C 49 % 87 % 1010,8 hPa 0,0 l/m² 2,4 km/h (1 Bft) S 184 ° 0 min 0 W/m² 4,2 °C 6,2 °C 3,2 km/h (1 Bft)
29.01.2025 21:34 20,9 °C 6,2 °C 49 % 87 % 1010,8 hPa 0,0 l/m² 0,1 km/h (0 Bft) S 184 ° 0 min 0 W/m² 4,2 °C 6,2 °C 1,6 km/h (1 Bft)
29.01.2025 21:35 20,9 °C 6,2 °C 49 % 87 % 1010,8 hPa 0,0 l/m² 2,0 km/h (1 Bft) S 184 ° 0 min 0 W/m² 4,2 °C 6,2 °C 4,8 km/h (1 Bft)
29.01.2025 21:36 20,9 °C 6,2 °C 49 % 87 % 1010,8 hPa 0,0 l/m² 2,7 km/h (1 Bft) S 184 ° 0 min 0 W/m² 4,2 °C 6,2 °C 4,8 km/h (1 Bft)
29.01.2025 21:37 20,9 °C 6,2 °C 49 % 87 % 1010,8 hPa 0,0 l/m² 2,2 km/h (1 Bft) S 184 ° 0 min 0 W/m² 4,2 °C 6,2 °C 3,2 km/h (1 Bft)
29.01.2025 21:38 20,9 °C 6,1 °C 49 % 87 % 1010,8 hPa 0,0 l/m² 1,5 km/h (1 Bft) S 184 ° 0 min 0 W/m² 4,1 °C 6,1 °C 3,2 km/h (1 Bft)
29.01.2025 21:39 20,9 °C 6,1 °C 49 % 87 % 1010,8 hPa 0,0 l/m² 2,7 km/h (1 Bft) S 184 ° 0 min 0 W/m² 4,1 °C 6,1 °C 3,2 km/h (1 Bft)
29.01.2025 21:40 20,9 °C 6,1 °C 49 % 87 % 1010,8 hPa 0,0 l/m² 2,1 km/h (1 Bft) S 184 ° 0 min 0 W/m² 4,1 °C 6,1 °C 3,2 km/h (1 Bft)
29.01.2025 21:41 20,9 °C 6,1 °C 49 % 87 % 1010,8 hPa 0,0 l/m² 1,7 km/h (1 Bft) S 184 ° 0 min 0 W/m² 4,1 °C 6,1 °C 4,8 km/h (1 Bft)
29.01.2025 21:42 20,9 °C 6,1 °C 49 % 87 % 1010,8 hPa 0,0 l/m² 0,9 km/h (0 Bft) S 184 ° 0 min 0 W/m² 4,1 °C 6,1 °C 1,6 km/h (1 Bft)
29.01.2025 21:43 20,9 °C 6,1 °C 49 % 87 % 1010,8 hPa 0,0 l/m² 0,5 km/h (0 Bft) S 184 ° 0 min 0 W/m² 4,1 °C 6,1 °C 1,6 km/h (1 Bft)
29.01.2025 21:44 20,9 °C 6,0 °C 49 % 87 % 1010,8 hPa 0,0 l/m² 0,0 km/h (0 Bft) S 184 ° 0 min 0 W/m² 4,0 °C 6,0 °C 0,0 km/h (0 Bft)
29.01.2025 21:45 20,9 °C 6,0 °C 49 % 87 % 1010,8 hPa 0,0 l/m² 0,0 km/h (0 Bft) S 184 ° 0 min 0 W/m² 4,0 °C 6,0 °C 0,0 km/h (0 Bft)
29.01.2025 21:46 20,9 °C 6,0 °C 49 % 87 % 1010,8 hPa 0,0 l/m² 0,0 km/h (0 Bft) S 184 ° 0 min 0 W/m² 4,0 °C 6,0 °C 0,0 km/h (0 Bft)
29.01.2025 21:47 20,9 °C 6,0 °C 49 % 87 % 1010,8 hPa 0,0 l/m² 0,0 km/h (0 Bft) S 184 ° 0 min 0 W/m² 4,0 °C 6,0 °C 0,0 km/h (0 Bft)
29.01.2025 21:48 20,9 °C 6,0 °C 49 % 87 % 1010,8 hPa 0,0 l/m² 0,0 km/h (0 Bft) S 184 ° 0 min 0 W/m² 4,0 °C 6,0 °C 0,0 km/h (0 Bft)
29.01.2025 21:49 20,9 °C 5,9 °C 49 % 87 % 1010,8 hPa 0,0 l/m² 0,0 km/h (0 Bft) S 184 ° 0 min 0 W/m² 3,9 °C 5,9 °C 0,0 km/h (0 Bft)
29.01.2025 21:50 20,9 °C 5,9 °C 49 % 87 % 1010,8 hPa 0,0 l/m² 0,0 km/h (0 Bft) S 184 ° 0 min 0 W/m² 3,9 °C 5,9 °C 0,0 km/h (0 Bft)
29.01.2025 21:51 20,9 °C 5,9 °C 49 % 87 % 1010,9 hPa 0,0 l/m² 0,0 km/h (0 Bft) S 184 ° 0 min 0 W/m² 3,9 °C 5,9 °C 0,0 km/h (0 Bft)
29.01.2025 21:52 21,0 °C 5,9 °C 49 % 87 % 1010,9 hPa 0,0 l/m² 0,0 km/h (0 Bft) S 184 ° 0 min 0 W/m² 3,9 °C 5,9 °C 0,0 km/h (0 Bft)
29.01.2025 21:53 21,0 °C 5,9 °C 49 % 87 % 1010,9 hPa 0,0 l/m² 0,0 km/h (0 Bft) S 184 ° 0 min 0 W/m² 3,9 °C 5,9 °C 0,0 km/h (0 Bft)
29.01.2025 21:54 21,0 °C 5,9 °C 49 % 87 % 1010,9 hPa 0,0 l/m² 0,1 km/h (0 Bft) S 184 ° 0 min 0 W/m² 3,9 °C 5,9 °C 1,6 km/h (1 Bft)
29.01.2025 21:55 21,0 °C 5,9 °C 49 % 87 % 1011,0 hPa 0,0 l/m² 0,1 km/h (0 Bft) S 184 ° 0 min 0 W/m² 3,9 °C 5,9 °C 1,6 km/h (1 Bft)
29.01.2025 21:56 20,9 °C 5,9 °C 49 % 87 % 1010,9 hPa 0,0 l/m² 0,0 km/h (0 Bft) S 184 ° 0 min 0 W/m² 3,9 °C 5,9 °C 0,0 km/h (0 Bft)
29.01.2025 21:57 21,0 °C 5,9 °C 49 % 87 % 1011,0 hPa 0,0 l/m² 0,0 km/h (0 Bft) S 184 ° 0 min 0 W/m² 3,9 °C 5,9 °C 0,0 km/h (0 Bft)
29.01.2025 21:58 21,0 °C 5,9 °C 49 % 87 % 1011,0 hPa 0,0 l/m² 0,0 km/h (0 Bft) S 184 ° 0 min 0 W/m² 3,9 °C 5,9 °C 0,0 km/h (0 Bft)
29.01.2025 21:59 21,0 °C 5,9 °C 49 % 87 % 1010,9 hPa 0,0 l/m² 0,8 km/h (0 Bft) S 184 ° 0 min 0 W/m² 3,9 °C 5,9 °C 3,2 km/h (1 Bft)
29.01.2025 22:00 20,9 °C 5,9 °C 49 % 87 % 1011,0 hPa 0,0 l/m² 1,0 km/h (0 Bft) S 184 ° 0 min 0 W/m² 3,9 °C 5,9 °C 3,2 km/h (1 Bft)
29.01.2025 22:01 21,0 °C 5,8 °C 49 % 87 % 1010,9 hPa 0,0 l/m² 0,0 km/h (0 Bft) S 184 ° 0 min 0 W/m² 3,8 °C 5,8 °C 0,0 km/h (0 Bft)
29.01.2025 22:02 21,0 °C 5,8 °C 49 % 87 % 1011,0 hPa 0,0 l/m² 0,0 km/h (0 Bft) S 184 ° 0 min 0 W/m² 3,8 °C 5,8 °C 0,0 km/h (0 Bft)
29.01.2025 22:03 21,0 °C 5,8 °C 49 % 87 % 1011,0 hPa 0,0 l/m² 0,0 km/h (0 Bft) S 184 ° 0 min 0 W/m² 3,8 °C 5,8 °C 0,0 km/h (0 Bft)
29.01.2025 22:04 21,0 °C 5,8 °C 49 % 87 % 1010,9 hPa 0,0 l/m² 0,3 km/h (0 Bft) S 184 ° 0 min 0 W/m² 3,8 °C 5,8 °C 1,6 km/h (1 Bft)
29.01.2025 22:05 20,9 °C 5,8 °C 49 % 87 % 1010,9 hPa 0,0 l/m² 0,0 km/h (0 Bft) S 184 ° 0 min 0 W/m² 3,8 °C 5,8 °C 0,0 km/h (0 Bft)
29.01.2025 22:06 21,0 °C 5,8 °C 49 % 87 % 1011,0 hPa 0,0 l/m² 0,0 km/h (0 Bft) S 184 ° 0 min 0 W/m² 3,8 °C 5,8 °C 0,0 km/h (0 Bft)
29.01.2025 22:07 21,0 °C 5,8 °C 49 % 87 % 1010,9 hPa 0,0 l/m² 0,0 km/h (0 Bft) S 184 ° 0 min 0 W/m² 3,8 °C 5,8 °C 0,0 km/h (0 Bft)
29.01.2025 22:08 21,0 °C 5,8 °C 49 % 88 % 1010,9 hPa 0,0 l/m² 0,0 km/h (0 Bft) S 184 ° 0 min 0 W/m² 4,0 °C 5,8 °C 0,0 km/h (0 Bft)
29.01.2025 22:09 21,0 °C 5,8 °C 49 % 88 % 1011,0 hPa 0,0 l/m² 0,0 km/h (0 Bft) S 184 ° 0 min 0 W/m² 4,0 °C 5,8 °C 0,0 km/h (0 Bft)
29.01.2025 22:10 21,0 °C 5,8 °C 49 % 87 % 1011,0 hPa 0,0 l/m² 0,0 km/h (0 Bft) S 184 ° 0 min 0 W/m² 3,8 °C 5,8 °C 0,0 km/h (0 Bft)
29.01.2025 22:11 21,0 °C 5,8 °C 49 % 87 % 1011,0 hPa 0,0 l/m² 0,0 km/h (0 Bft) S 184 ° 0 min 0 W/m² 3,8 °C 5,8 °C 0,0 km/h (0 Bft)
29.01.2025 22:12 21,0 °C 5,8 °C 49 % 88 % 1010,9 hPa 0,0 l/m² 0,0 km/h (0 Bft) S 184 ° 0 min 0 W/m² 4,0 °C 5,8 °C 0,0 km/h (0 Bft)
29.01.2025 22:13 21,0 °C 5,8 °C 49 % 87 % 1010,9 hPa 0,0 l/m² 0,1 km/h (0 Bft) S 184 ° 0 min 0 W/m² 3,8 °C 5,8 °C 1,6 km/h (1 Bft)
29.01.2025 22:14 21,0 °C 5,8 °C 49 % 88 % 1011,0 hPa 0,0 l/m² 0,7 km/h (0 Bft) S 184 ° 0 min 0 W/m² 4,0 °C 5,8 °C 3,2 km/h (1 Bft)
29.01.2025 22:15 21,0 °C 5,8 °C 49 % 87 % 1011,0 hPa 0,0 l/m² 0,3 km/h (0 Bft) S 184 ° 0 min 0 W/m² 3,8 °C 5,8 °C 1,6 km/h (1 Bft)
29.01.2025 22:16 21,0 °C 5,8 °C 49 % 87 % 1011,0 hPa 0,0 l/m² 0,3 km/h (0 Bft) S 184 ° 0 min 0 W/m² 3,8 °C 5,8 °C 1,6 km/h (1 Bft)
29.01.2025 22:17 21,0 °C 5,7 °C 49 % 88 % 1011,0 hPa 0,0 l/m² 2,4 km/h (1 Bft) S 184 ° 0 min 0 W/m² 3,9 °C 5,7 °C 4,8 km/h (1 Bft)
29.01.2025 22:18 21,0 °C 5,7 °C 49 % 88 % 1011,0 hPa 0,0 l/m² 3,8 km/h (1 Bft) S 184 ° 0 min 0 W/m² 3,9 °C 5,7 °C 4,8 km/h (1 Bft)
29.01.2025 22:19 21,0 °C 5,7 °C 49 % 88 % 1011,0 hPa 0,0 l/m² 3,1 km/h (1 Bft) S 184 ° 0 min 0 W/m² 3,9 °C 5,7 °C 6,4 km/h (2 Bft)
29.01.2025 22:20 21,0 °C 5,7 °C 49 % 88 % 1011,0 hPa 0,0 l/m² 4,8 km/h (1 Bft) S 184 ° 0 min 0 W/m² 3,9 °C 5,7 °C 8,0 km/h (2 Bft)
29.01.2025 22:21 21,0 °C 5,7 °C 49 % 88 % 1011,0 hPa 0,0 l/m² 3,2 km/h (1 Bft) S 184 ° 0 min 0 W/m² 3,9 °C 5,7 °C 4,8 km/h (1 Bft)
29.01.2025 22:22 21,0 °C 5,7 °C 49 % 88 % 1011,0 hPa 0,0 l/m² 2,3 km/h (1 Bft) S 184 ° 0 min 0 W/m² 3,9 °C 5,7 °C 4,8 km/h (1 Bft)
29.01.2025 22:23 21,0 °C 5,7 °C 49 % 88 % 1011,0 hPa 0,0 l/m² 0,3 km/h (0 Bft) S 184 ° 0 min 0 W/m² 3,9 °C 5,7 °C 1,6 km/h (1 Bft)
29.01.2025 22:24 21,0 °C 5,7 °C 49 % 88 % 1011,0 hPa 0,0 l/m² 0,7 km/h (0 Bft) S 184 ° 0 min 0 W/m² 3,9 °C 5,7 °C 3,2 km/h (1 Bft)
29.01.2025 22:25 21,0 °C 5,7 °C 49 % 88 % 1011,0 hPa 0,0 l/m² 1,6 km/h (1 Bft) S 184 ° 0 min 0 W/m² 3,9 °C 5,7 °C 3,2 km/h (1 Bft)
29.01.2025 22:26 21,0 °C 5,7 °C 49 % 88 % 1011,1 hPa 0,0 l/m² 1,0 km/h (0 Bft) S 184 ° 0 min 0 W/m² 3,9 °C 5,7 °C 3,2 km/h (1 Bft)
29.01.2025 22:27 21,0 °C 5,7 °C 49 % 88 % 1011,1 hPa 0,0 l/m² 2,4 km/h (1 Bft) S 184 ° 0 min 0 W/m² 3,9 °C 5,7 °C 3,2 km/h (1 Bft)
29.01.2025 22:28 21,0 °C 5,7 °C 49 % 88 % 1011,0 hPa 0,0 l/m² 2,2 km/h (1 Bft) S 184 ° 0 min 0 W/m² 3,9 °C 5,7 °C 3,2 km/h (1 Bft)
29.01.2025 22:29 21,0 °C 5,7 °C 49 % 88 % 1011,1 hPa 0,0 l/m² 2,3 km/h (1 Bft) S 184 ° 0 min 0 W/m² 3,9 °C 5,7 °C 3,2 km/h (1 Bft)
29.01.2025 22:30 21,1 °C 5,7 °C 49 % 88 % 1011,1 hPa 0,0 l/m² 2,3 km/h (1 Bft) S 184 ° 0 min 0 W/m² 3,9 °C 5,7 °C 3,2 km/h (1 Bft)
29.01.2025 22:31 21,0 °C 5,7 °C 49 % 88 % 1011,0 hPa 0,0 l/m² 2,2 km/h (1 Bft) S 184 ° 0 min 0 W/m² 3,9 °C 5,7 °C 3,2 km/h (1 Bft)
29.01.2025 22:32 21,0 °C 5,7 °C 49 % 88 % 1011,1 hPa 0,0 l/m² 2,7 km/h (1 Bft) S 184 ° 0 min 0 W/m² 3,9 °C 5,7 °C 4,8 km/h (1 Bft)
29.01.2025 22:33 21,0 °C 5,7 °C 49 % 88 % 1011,0 hPa 0,0 l/m² 2,7 km/h (1 Bft) S 184 ° 0 min 0 W/m² 3,9 °C 5,7 °C 3,2 km/h (1 Bft)
29.01.2025 22:34 21,0 °C 5,7 °C 49 % 88 % 1011,0 hPa 0,0 l/m² 1,3 km/h (1 Bft) S 184 ° 0 min 0 W/m² 3,9 °C 5,7 °C 3,2 km/h (1 Bft)
29.01.2025 22:35 21,1 °C 5,6 °C 49 % 88 % 1011,0 hPa 0,0 l/m² 0,3 km/h (0 Bft) S 184 ° 0 min 0 W/m² 3,8 °C 5,6 °C 1,6 km/h (1 Bft)
29.01.2025 22:36 21,0 °C 5,6 °C 49 % 88 % 1011,0 hPa 0,0 l/m² 1,2 km/h (1 Bft) S 184 ° 0 min 0 W/m² 3,8 °C 5,6 °C 1,6 km/h (1 Bft)
29.01.2025 22:37 21,0 °C 5,6 °C 49 % 88 % 1011,1 hPa 0,0 l/m² 0,6 km/h (0 Bft) S 184 ° 0 min 0 W/m² 3,8 °C 5,6 °C 1,6 km/h (1 Bft)
29.01.2025 22:38 21,0 °C 5,6 °C 49 % 88 % 1011,1 hPa 0,0 l/m² 0,1 km/h (0 Bft) S 184 ° 0 min 0 W/m² 3,8 °C 5,6 °C 1,6 km/h (1 Bft)
29.01.2025 22:39 21,0 °C 5,6 °C 49 % 88 % 1011,1 hPa 0,0 l/m² 0,5 km/h (0 Bft) S 184 ° 0 min 0 W/m² 3,8 °C 5,6 °C 3,2 km/h (1 Bft)
29.01.2025 22:40 21,0 °C 5,6 °C 49 % 88 % 1011,2 hPa 0,0 l/m² 1,8 km/h (1 Bft) S 184 ° 0 min 0 W/m² 3,8 °C 5,6 °C 3,2 km/h (1 Bft)
29.01.2025 22:41 21,0 °C 5,6 °C 49 % 88 % 1011,1 hPa 0,0 l/m² 1,4 km/h (1 Bft) S 184 ° 0 min 0 W/m² 3,8 °C 5,6 °C 3,2 km/h (1 Bft)
29.01.2025 22:42 21,1 °C 5,6 °C 49 % 88 % 1011,2 hPa 0,0 l/m² 1,6 km/h (1 Bft) S 184 ° 0 min 0 W/m² 3,8 °C 5,6 °C 3,2 km/h (1 Bft)
29.01.2025 22:43 21,1 °C 5,6 °C 49 % 88 % 1011,1 hPa 0,0 l/m² 0,3 km/h (0 Bft) S 184 ° 0 min 0 W/m² 3,8 °C 5,6 °C 1,6 km/h (1 Bft)
29.01.2025 22:44 21,1 °C 5,6 °C 49 % 88 % 1011,2 hPa 0,0 l/m² 0,0 km/h (0 Bft) S 184 ° 0 min 0 W/m² 3,8 °C 5,6 °C 0,0 km/h (0 Bft)
29.01.2025 22:45 21,0 °C 5,6 °C 49 % 88 % 1011,1 hPa 0,0 l/m² 0,0 km/h (0 Bft) S 184 ° 0 min 0 W/m² 3,8 °C 5,6 °C 0,0 km/h (0 Bft)
29.01.2025 22:46 21,0 °C 5,6 °C 49 % 88 % 1011,1 hPa 0,0 l/m² 0,0 km/h (0 Bft) S 184 ° 0 min 0 W/m² 3,8 °C 5,6 °C 0,0 km/h (0 Bft)
29.01.2025 22:47 21,0 °C 5,6 °C 49 % 88 % 1011,2 hPa 0,0 l/m² 0,0 km/h (0 Bft) S 184 ° 0 min 0 W/m² 3,8 °C 5,6 °C 0,0 km/h (0 Bft)
29.01.2025 22:48 21,0 °C 5,6 °C 49 % 88 % 1011,1 hPa 0,0 l/m² 0,2 km/h (0 Bft) S 184 ° 0 min 0 W/m² 3,8 °C 5,6 °C 1,6 km/h (1 Bft)
29.01.2025 22:49 21,0 °C 5,6 °C 49 % 88 % 1011,1 hPa 0,0 l/m² 0,3 km/h (0 Bft) S 184 ° 0 min 0 W/m² 3,8 °C 5,6 °C 1,6 km/h (1 Bft)
29.01.2025 22:50 21,0 °C 5,6 °C 49 % 88 % 1011,2 hPa 0,0 l/m² 0,0 km/h (0 Bft) S 184 ° 0 min 0 W/m² 3,8 °C 5,6 °C 0,0 km/h (0 Bft)
29.01.2025 22:51 21,0 °C 5,5 °C 49 % 88 % 1011,1 hPa 0,0 l/m² 0,0 km/h (0 Bft) S 184 ° 0 min 0 W/m² 3,7 °C 5,5 °C 0,0 km/h (0 Bft)
29.01.2025 22:52 21,0 °C 5,5 °C 49 % 88 % 1011,1 hPa 0,0 l/m² 0,0 km/h (0 Bft) S 184 ° 0 min 0 W/m² 3,7 °C 5,5 °C 0,0 km/h (0 Bft)
29.01.2025 22:53 21,0 °C 5,5 °C 49 % 88 % 1011,1 hPa 0,0 l/m² 0,4 km/h (0 Bft) S 184 ° 0 min 0 W/m² 3,7 °C 5,5 °C 3,2 km/h (1 Bft)
29.01.2025 22:54 21,0 °C 5,5 °C 49 % 88 % 1011,1 hPa 0,0 l/m² 0,6 km/h (0 Bft) S 184 ° 0 min 0 W/m² 3,7 °C 5,5 °C 3,2 km/h (1 Bft)
29.01.2025 22:55 21,0 °C 5,5 °C 49 % 87 % 1011,1 hPa 0,0 l/m² 0,0 km/h (0 Bft) S 184 ° 0 min 0 W/m² 3,5 °C 5,5 °C 0,0 km/h (0 Bft)
29.01.2025 22:56 21,0 °C 5,5 °C 49 % 87 % 1011,1 hPa 0,0 l/m² 0,0 km/h (0 Bft) S 184 ° 0 min 0 W/m² 3,5 °C 5,5 °C 0,0 km/h (0 Bft)
29.01.2025 22:57 21,1 °C 5,5 °C 49 % 87 % 1011,1 hPa 0,0 l/m² 0,0 km/h (0 Bft) S 184 ° 0 min 0 W/m² 3,5 °C 5,5 °C 0,0 km/h (0 Bft)
29.01.2025 22:58 21,1 °C 5,4 °C 49 % 87 % 1011,1 hPa 0,0 l/m² 0,0 km/h (0 Bft) S 184 ° 0 min 0 W/m² 3,4 °C 5,4 °C 0,0 km/h (0 Bft)
29.01.2025 22:59 21,0 °C 5,4 °C 49 % 87 % 1011,1 hPa 0,0 l/m² 0,7 km/h (0 Bft) S 184 ° 0 min 0 W/m² 3,4 °C 5,4 °C 1,6 km/h (1 Bft)
29.01.2025 23:00 21,0 °C 5,4 °C 49 % 87 % 1011,2 hPa 0,0 l/m² 0,7 km/h (0 Bft) S 184 ° 0 min 0 W/m² 3,4 °C 5,4 °C 3,2 km/h (1 Bft)
29.01.2025 23:01 21,1 °C 5,4 °C 49 % 87 % 1011,2 hPa 0,0 l/m² 0,1 km/h (0 Bft) S 184 ° 0 min 0 W/m² 3,4 °C 5,4 °C 1,6 km/h (1 Bft)
29.01.2025 23:02 21,0 °C 5,3 °C 49 % 87 % 1011,1 hPa 0,0 l/m² 1,9 km/h (1 Bft) S 184 ° 0 min 0 W/m² 3,3 °C 5,3 °C 4,8 km/h (1 Bft)
29.01.2025 23:03 21,0 °C 5,3 °C 49 % 87 % 1011,2 hPa 0,0 l/m² 0,8 km/h (0 Bft) S 184 ° 0 min 0 W/m² 3,3 °C 5,3 °C 4,8 km/h (1 Bft)
29.01.2025 23:04 21,0 °C 5,3 °C 49 % 87 % 1011,2 hPa 0,0 l/m² 0,5 km/h (0 Bft) S 184 ° 0 min 0 W/m² 3,3 °C 5,3 °C 3,2 km/h (1 Bft)
29.01.2025 23:05 21,0 °C 5,3 °C 49 % 87 % 1011,2 hPa 0,0 l/m² 3,6 km/h (1 Bft) S 184 ° 0 min 0 W/m² 3,3 °C 5,3 °C 4,8 km/h (1 Bft)
29.01.2025 23:06 21,0 °C 5,3 °C 49 % 87 % 1011,2 hPa 0,0 l/m² 3,5 km/h (1 Bft) S 184 ° 0 min 0 W/m² 3,3 °C 5,3 °C 4,8 km/h (1 Bft)
29.01.2025 23:07 21,0 °C 5,2 °C 49 % 87 % 1011,2 hPa 0,0 l/m² 2,8 km/h (1 Bft) S 184 ° 0 min 0 W/m² 3,2 °C 5,2 °C 4,8 km/h (1 Bft)
29.01.2025 23:08 21,0 °C 5,2 °C 49 % 87 % 1011,2 hPa 0,0 l/m² 4,9 km/h (1 Bft) S 184 ° 0 min 0 W/m² 3,2 °C 5,2 °C 6,4 km/h (2 Bft)
29.01.2025 23:09 21,0 °C 5,2 °C 49 % 87 % 1011,3 hPa 0,0 l/m² 3,3 km/h (1 Bft) S 184 ° 0 min 0 W/m² 3,2 °C 5,2 °C 6,4 km/h (2 Bft)
29.01.2025 23:10 21,0 °C 5,2 °C 49 % 87 % 1011,3 hPa 0,0 l/m² 3,9 km/h (1 Bft) S 184 ° 0 min 0 W/m² 3,2 °C 5,2 °C 4,8 km/h (1 Bft)
29.01.2025 23:11 21,0 °C 5,1 °C 49 % 87 % 1011,3 hPa 0,0 l/m² 2,0 km/h (1 Bft) S 184 ° 0 min 0 W/m² 3,1 °C 5,1 °C 4,8 km/h (1 Bft)
29.01.2025 23:12 21,0 °C 5,1 °C 49 % 86 % 1011,3 hPa 0,0 l/m² 1,4 km/h (1 Bft) S 184 ° 0 min 0 W/m² 3,0 °C 5,1 °C 3,2 km/h (1 Bft)
29.01.2025 23:13 21,0 °C 5,1 °C 49 % 86 % 1011,3 hPa 0,0 l/m² 0,8 km/h (0 Bft) S 184 ° 0 min 0 W/m² 3,0 °C 5,1 °C 3,2 km/h (1 Bft)
29.01.2025 23:14 21,0 °C 5,0 °C 49 % 86 % 1011,3 hPa 0,0 l/m² 1,1 km/h (1 Bft) S 184 ° 0 min 0 W/m² 2,9 °C 5,0 °C 4,8 km/h (1 Bft)
29.01.2025 23:15 21,0 °C 5,0 °C 49 % 87 % 1011,3 hPa 0,0 l/m² 0,5 km/h (0 Bft) S 184 ° 0 min 0 W/m² 3,0 °C 5,0 °C 1,6 km/h (1 Bft)
29.01.2025 23:16 21,0 °C 5,0 °C 49 % 86 % 1011,3 hPa 0,0 l/m² 0,0 km/h (0 Bft) N 0 ° 0 min 0 W/m² 2,9 °C 5,0 °C 0,0 km/h (0 Bft)
29.01.2025 23:17 21,0 °C 4,9 °C 49 % 86 % 1011,3 hPa 0,0 l/m² 1,6 km/h (1 Bft) S 180 ° 0 min 0 W/m² 2,8 °C 4,9 °C 6,4 km/h (2 Bft)
29.01.2025 23:18 21,0 °C 4,9 °C 49 % 86 % 1011,2 hPa 0,0 l/m² 4,8 km/h (1 Bft) S 180 ° 0 min 0 W/m² 2,8 °C 4,9 °C 6,4 km/h (2 Bft)
29.01.2025 23:19 20,9 °C 4,9 °C 49 % 86 % 1011,3 hPa 0,0 l/m² 4,8 km/h (1 Bft) S 180 ° 0 min 0 W/m² 2,8 °C 4,9 °C 6,4 km/h (2 Bft)
29.01.2025 23:20 21,0 °C 4,9 °C 49 % 86 % 1011,2 hPa 0,0 l/m² 4,8 km/h (1 Bft) S 180 ° 0 min 0 W/m² 2,8 °C 4,9 °C 6,4 km/h (2 Bft)
29.01.2025 23:21 21,0 °C 4,9 °C 49 % 86 % 1011,2 hPa 0,0 l/m² 4,8 km/h (1 Bft) S 180 ° 0 min 0 W/m² 2,8 °C 4,9 °C 4,8 km/h (1 Bft)
29.01.2025 23:26 20,9 °C 4,7 °C 49 % 86 % 1011,3 hPa 0,0 l/m² 3,5 km/h (1 Bft) S 184 ° 0 min 0 W/m² 2,6 °C 4,7 °C 4,8 km/h (1 Bft)
29.01.2025 23:28 20,9 °C 4,7 °C 49 % 86 % 1011,3 hPa 0,0 l/m² 4,2 km/h (1 Bft) S 184 ° 0 min 0 W/m² 2,6 °C 4,7 °C 6,4 km/h (2 Bft)
29.01.2025 23:29 20,9 °C 4,7 °C 49 % 86 % 1011,3 hPa 0,0 l/m² 5,0 km/h (1 Bft) S 184 ° 0 min 0 W/m² 2,6 °C 4,7 °C 6,4 km/h (2 Bft)
29.01.2025 23:31 21,0 °C 4,6 °C 49 % 86 % 1011,2 hPa 0,0 l/m² 5,8 km/h (2 Bft) S 184 ° 0 min 0 W/m² 2,5 °C 4,6 °C 8,0 km/h (2 Bft)
29.01.2025 23:32 21,0 °C 4,6 °C 49 % 86 % 1011,2 hPa 0,0 l/m² 4,4 km/h (1 Bft) S 184 ° 0 min 0 W/m² 2,5 °C 4,6 °C 6,4 km/h (2 Bft)
29.01.2025 23:34 21,0 °C 4,5 °C 49 % 86 % 1011,3 hPa 0,0 l/m² 5,1 km/h (1 Bft) S 184 ° 0 min 0 W/m² 2,4 °C 4,5 °C 6,4 km/h (2 Bft)
29.01.2025 23:36 21,0 °C 4,4 °C 49 % 86 % 1011,3 hPa 0,0 l/m² 3,4 km/h (1 Bft) S 184 ° 0 min 0 W/m² 2,3 °C 4,4 °C 6,4 km/h (2 Bft)
29.01.2025 23:38 20,9 °C 4,4 °C 49 % 86 % 1011,4 hPa 0,0 l/m² 3,6 km/h (1 Bft) S 184 ° 0 min 0 W/m² 2,3 °C 4,4 °C 6,4 km/h (2 Bft)
29.01.2025 23:40 20,9 °C 4,4 °C 49 % 86 % 1011,3 hPa 0,0 l/m² 0,1 km/h (0 Bft) S 184 ° 0 min 0 W/m² 2,3 °C 4,4 °C 1,6 km/h (1 Bft)
29.01.2025 23:41 20,9 °C 4,3 °C 49 % 86 % 1011,3 hPa 0,0 l/m² 0,0 km/h (0 Bft) S 184 ° 0 min 0 W/m² 2,2 °C 4,3 °C 0,0 km/h (0 Bft)
29.01.2025 23:42 20,9 °C 4,3 °C 49 % 86 % 1011,3 hPa 0,0 l/m² 0,0 km/h (0 Bft) S 184 ° 0 min 0 W/m² 2,2 °C 4,3 °C 0,0 km/h (0 Bft)
29.01.2025 23:44 21,0 °C 4,3 °C 49 % 86 % 1011,4 hPa 0,0 l/m² 0,0 km/h (0 Bft) S 184 ° 0 min 0 W/m² 2,2 °C 4,3 °C 0,0 km/h (0 Bft)
29.01.2025 23:45 21,0 °C 4,3 °C 49 % 86 % 1011,4 hPa 0,0 l/m² 0,0 km/h (0 Bft) S 184 ° 0 min 0 W/m² 2,2 °C 4,3 °C 0,0 km/h (0 Bft)
29.01.2025 23:47 21,0 °C 4,3 °C 49 % 86 % 1011,4 hPa 0,0 l/m² 0,0 km/h (0 Bft) S 184 ° 0 min 0 W/m² 2,2 °C 4,3 °C 0,0 km/h (0 Bft)
29.01.2025 23:49 20,9 °C 4,2 °C 49 % 86 % 1011,4 hPa 0,0 l/m² 0,0 km/h (0 Bft) S 184 ° 0 min 0 W/m² 2,1 °C 4,2 °C 0,0 km/h (0 Bft)
29.01.2025 23:50 20,9 °C 4,2 °C 49 % 86 % 1011,4 hPa 0,0 l/m² 0,0 km/h (0 Bft) S 184 ° 0 min 0 W/m² 2,1 °C 4,2 °C 0,0 km/h (0 Bft)
29.01.2025 23:51 21,0 °C 4,2 °C 49 % 86 % 1011,3 hPa 0,0 l/m² 0,0 km/h (0 Bft) S 184 ° 0 min 0 W/m² 2,1 °C 4,2 °C 0,0 km/h (0 Bft)
29.01.2025 23:52 21,0 °C 4,2 °C 49 % 86 % 1011,3 hPa 0,0 l/m² 0,0 km/h (0 Bft) S 184 ° 0 min 0 W/m² 2,1 °C 4,2 °C 0,0 km/h (0 Bft)
29.01.2025 23:55 20,9 °C 4,1 °C 49 % 87 % 1011,4 hPa 0,0 l/m² 0,0 km/h (0 Bft) S 184 ° 0 min 0 W/m² 2,1 °C 4,1 °C 0,0 km/h (0 Bft)
29.01.2025 23:57 20,9 °C 4,1 °C 49 % 87 % 1011,4 hPa 0,0 l/m² 0,1 km/h (0 Bft) S 184 ° 0 min 0 W/m² 2,1 °C 4,1 °C 1,6 km/h (1 Bft)
29.01.2025 23:59 20,9 °C 4,0 °C 49 % 86 % 1011,4 hPa 0,0 l/m² 0,0 km/h (0 Bft) S 184 ° 0 min 0 W/m² 1,9 °C 4,0 °C 0,0 km/h (0 Bft)
_ Min-Zeit 21:14 23:59 23:59 13:50 03:44 - 23:59 - - - - 23:59 03:48 23:59
Minimum _ 20,8 °C 4,0 °C 49 % 70 % 998,4 hPa - 0,0 km/h (0 Bft) - - - - 1,9 °C -4,2 °C 0,0 km/h (0 Bft)
_ Max-Zeit 02:27 13:48 23:59 01:00 23:59 20:34 13:58 - - 13:07 11:28 11:50 15:32 13:58
Maximum _ 21,2 °C 10,7 °C 49 % 89 % 1011,4 hPa 0,2 l/m² 39,5 km/h
W-SW (6 Bft)
- - 2 min 443 W/m² 7,1 °C 6,5 °C 51,5 km/h
W-SW (7 Bft)
Durchschnitt _ 21,0 °C 6,7 °C 49 % 84 % 1003,8 hPa #0,4 l/m² 12,6 km/h (3 Bft) S - #6:14 h 43 W/m² 4,2 °C 2,7 °C 17,3 km/h (3 Bft)
© 2009 Mathias Hoßbach